[[{"header":{"parameterUnit":"m.s-1","parameterCategory":1,"la1":30.6,"la2":28.766,"lo1":-90.7593,"lo2":-88.6598,"dy":0.0162,"dx":0.0183,"nx":116,"ny":114,"refTime":"2023-09-21T18:00:00:Z","depth":0,"parameterNumber":2,"parameterNumberName":"U-component_of_WINDS"},"data":[0.0,0.0,0.0,0.0,0.0,0.0,0.0,0.0,0.0,0.0,0.0,0.0,0.0,0.0,0.0,0.0,0.0,0.0,0.0,0.0,0.0,0.0,0.0,0.0,0.0,0.0,0.0,0.0,0.0,0.0,0.0,0.0,0.0,0.0,0.0,0.0,0.0,0.0,0.0,0.0,0.0,0.0,0.0,0.0,0.0,0.0,0.0,0.0,0.0,0.0,0.0,0.0,0.0,0.0,0.0,0.0,0.0,0.0,0.0,0.0,0.0,0.0,0.0,0.0,0.0,0.0,0.0,0.0,0.0,0.0,0.0,0.0,0.0,0.0,0.0,0.0,0.0,0.0,0.0,0.0,0.0,0.0,0.0,0.0,0.0,0.0,0.0,0.0,0.0,0.0,0.0,0.0,0.0,0.0,0.0,0.0,0.0,0.0,0.0,0.0,0.0,0.0,0.0,0.0,0.0,0.0,0.0,0.0,0.0,0.0,0.0,0.0,0.0,0.0,0.0,0.0,0.0,0.0,0.0,0.0,0.0,0.0,0.0,0.0,0.0,0.0,0.0,0.0,0.0,0.0,0.0,0.0,0.0,0.0,0.0,0.0,0.0,0.0,0.0,0.0,0.0,0.0,0.0,0.0,0.0,0.0,0.0,0.0,0.0,0.0,0.0,0.0,0.0,0.0,0.0,0.0,0.0,0.0,0.0,0.0,0.0,0.0,0.0,0.0,0.0,0.0,0.0,0.0,0.0,0.0,0.0,0.0,0.0,0.0,0.0,0.0,0.0,0.0,0.0,0.0,0.0,0.0,0.0,0.0,0.0,0.0,0.0,0.0,0.0,0.0,0.0,0.0,0.0,0.0,0.0,0.0,0.0,0.0,0.0,0.0,0.0,0.0,0.0,0.0,0.0,0.0,0.0,0.0,0.0,0.0,0.0,0.0,0.0,0.0,0.0,0.0,0.0,0.0,0.0,0.0,0.0,0.0,0.0,0.0,0.0,0.0,0.0,0.0,0.0,0.0,0.0,0.0,0.0,0.0,0.0,0.0,0.0,0.0,0.0,0.0,0.0,0.0,0.0,0.0,0.0,0.0,0.0,0.0,0.0,0.0,0.0,0.0,0.0,0.0,0.0,0.0,0.0,0.0,0.0,0.0,0.0,0.0,0.0,0.0,0.0,0.0,0.0,0.0,0.0,0.0,0.0,0.0,0.0,0.0,0.0,0.0,0.0,0.0,0.0,0.0,0.0,0.0,0.0,0.0,0.0,0.0,0.0,0.0,0.0,0.0,0.0,0.0,0.0,0.0,0.0,0.0,0.0,0.0,0.0,0.0,0.0,0.0,0.0,0.0,0.0,0.0,0.0,0.0,0.0,0.0,0.0,0.0,0.0,0.0,0.0,0.0,0.0,0.0,0.0,0.0,0.0,0.0,0.0,0.0,0.0,0.0,0.0,0.0,0.0,0.0,0.0,0.0,0.0,0.0,0.0,0.0,0.0,0.0,0.0,0.0,0.0,0.0,0.0,0.0,0.0,0.0,0.0,0.0,0.0,0.0,0.0,0.0,0.0,0.0,0.0,0.0,0.0,0.0,0.0,0.0,0.0,0.0,0.0,0.0,0.0,0.0,0.0,0.0,0.0,0.0,0.0,0.0,0.0,0.0,0.0,0.0,0.0,0.0,0.0,0.0,0.0,0.0,0.0,0.0,0.0,0.0,0.0,0.0,0.0,0.0,0.0,0.0,0.0,0.0,0.0,0.0,0.0,0.0,0.0,0.0,0.0,0.0,0.0,0.0,0.0,0.0,0.0,0.0,0.0,0.0,0.0,0.0,0.0,0.0,0.0,0.0,0.0,0.0,0.0,0.0,0.0,0.0,0.0,0.0,0.0,0.0,0.0,0.0,0.0,0.0,0.0,0.0,0.0,0.0,0.0,0.0,0.0,0.0,0.0,0.0,0.0,0.0,0.0,0.0,0.0,0.0,0.0,0.0,0.0,0.0,0.0,0.0,0.0,0.0,0.0,0.0,0.0,0.0,0.0,0.0,0.0,0.0,0.0,0.0,0.0,0.0,0.0,0.0,0.0,0.0,0.0,0.0,0.0,0.0,0.0,0.0,0.0,0.0,0.0,0.0,0.0,0.0,0.0,0.0,0.0,0.0,0.0,0.0,0.0,0.0,0.0,0.0,0.0,0.0,0.0,0.0,0.0,0.0,0.0,0.0,0.0,0.0,0.0,0.0,0.0,0.0,0.0,0.0,0.0,0.0,0.0,0.0,0.0,0.0,0.0,0.0,0.0,0.0,0.0,0.0,0.0,0.0,0.0,0.0,0.0,0.0,0.0,0.0,0.0,0.0,0.0,0.0,0.0,0.0,0.0,0.0,0.0,0.0,0.0,0.0,0.0,0.0,0.0,0.0,0.0,0.0,0.0,0.0,0.0,0.0,0.0,0.0,0.0,0.0,0.0,0.0,0.0,0.0,0.0,0.0,0.0,0.0,0.0,0.0,0.0,0.0,0.0,0.0,0.0,0.0,0.0,0.0,0.0,0.0,0.0,0.0,0.0,0.0,0.0,0.0,0.0,0.0,0.0,0.0,0.0,0.0,0.0,0.0,0.0,0.0,0.0,0.0,0.0,0.0,0.0,0.0,0.0,0.0,0.0,0.0,0.0,0.0,0.0,0.0,0.0,0.0,0.0,0.0,0.0,0.0,0.0,0.0,0.0,0.0,0.0,0.0,0.0,0.0,0.0,0.0,0.0,0.0,0.0,0.0,0.0,0.0,0.0,0.0,0.0,0.0,0.0,0.0,0.0,0.0,0.0,0.0,0.0,0.0,0.0,0.0,0.0,0.0,0.0,0.0,0.0,0.0,0.0,0.0,0.0,0.0,0.0,0.0,0.0,0.0,0.0,0.0,0.0,0.0,0.0,0.0,0.0,0.0,0.0,0.0,0.0,0.0,0.0,0.0,0.0,0.0,0.0,0.0,0.0,0.0,0.0,0.0,0.0,0.0,0.0,0.0,0.0,0.0,0.0,0.0,0.0,0.0,0.0,0.0,0.0,0.0,0.0,0.0,0.0,0.0,0.0,0.0,0.0,0.0,0.0,0.0,0.0,0.0,0.0,0.0,0.0,0.0,0.0,0.0,0.0,0.0,0.0,0.0,0.0,0.0,0.0,0.0,0.0,0.0,0.0,0.0,0.0,0.0,0.0,0.0,0.0,0.0,0.0,0.0,0.0,0.0,0.0,0.0,0.0,0.0,0.0,0.0,0.0,0.0,0.0,0.0,0.0,0.0,0.0,0.0,0.0,0.0,0.0,0.0,0.0,0.0,0.0,0.0,0.0,0.0,0.0,0.0,0.0,0.0,0.0,0.0,0.0,0.0,0.0,0.0,0.0,0.0,0.0,0.0,0.0,0.0,0.0,0.0,0.0,0.0,0.0,0.0,0.0,0.0,0.0,0.0,0.0,0.0,0.0,0.0,0.0,0.0,0.0,0.0,0.0,0.0,0.0,0.0,0.0,0.0,0.0,0.0,0.0,0.0,0.0,0.0,0.0,0.0,0.0,0.0,0.0,0.0,0.0,0.0,0.0,0.0,0.0,0.0,0.0,0.0,0.0,0.0,0.0,0.0,0.0,0.0,0.0,0.0,0.0,0.0,0.0,0.0,0.0,0.0,0.0,0.0,0.0,0.0,0.0,0.0,0.0,0.0,0.0,0.0,0.0,0.0,0.0,0.0,0.0,0.0,0.0,0.0,0.0,0.0,0.0,0.0,0.0,0.0,0.0,0.0,0.0,0.0,0.0,0.0,0.0,0.0,0.0,0.0,0.0,0.0,0.0,0.0,0.0,0.0,0.0,0.0,0.0,0.0,0.0,0.0,0.0,0.0,0.0,0.0,0.0,0.0,0.0,0.0,0.0,0.0,0.0,0.0,0.0,0.0,0.0,0.0,0.0,0.0,0.0,0.0,0.0,0.0,0.0,0.0,0.0,0.0,0.0,0.0,0.0,0.0,0.0,0.0,0.0,0.0,0.0,0.0,0.0,0.0,0.0,0.0,0.0,0.0,0.0,0.0,0.0,0.0,0.0,0.0,0.0,0.0,0.0,0.0,0.0,0.0,0.0,0.0,0.0,0.0,0.0,0.0,0.0,0.0,0.0,0.0,0.0,0.0,0.0,0.0,0.0,0.0,0.0,0.0,0.0,0.0,0.0,0.0,0.0,0.0,0.0,0.0,0.0,0.0,0.0,0.0,0.0,0.0,0.0,0.0,0.0,0.0,0.0,0.0,0.0,0.0,0.0,0.0,0.0,0.0,0.0,0.0,0.0,0.0,0.0,0.0,0.0,0.0,0.0,0.0,0.0,0.0,0.0,0.0,0.0,0.0,0.0,0.0,0.0,0.0,0.0,0.0,0.0,0.0,0.0,0.0,0.0,0.0,0.0,0.0,0.0,0.0,0.0,0.0,0.0,0.0,0.0,0.0,0.0,0.0,0.0,0.0,0.0,0.0,0.0,0.0,0.0,0.0,0.0,0.0,0.0,0.0,0.0,0.0,0.0,0.0,0.0,0.0,0.0,0.0,0.0,0.0,0.0,0.0,0.0,0.0,0.0,0.0,0.0,0.0,0.0,0.0,0.0,0.0,0.0,0.0,0.0,0.0,0.0,0.0,0.0,0.0,0.0,0.0,0.0,0.0,0.0,0.0,0.0,0.0,0.0,0.0,0.0,0.0,0.0,0.0,0.0,0.0,0.0,0.0,0.0,0.0,0.0,0.0,0.0,0.0,0.0,0.0,0.0,0.0,0.0,0.0,0.0,0.0,0.0,0.0,0.0,0.0,0.0,0.0,0.0,0.0,0.0,0.0,0.0,0.0,0.0,0.0,0.0,0.0,0.0,0.0,0.0,0.0,0.0,0.0,0.0,0.0,0.0,0.0,0.0,0.0,0.0,0.0,0.0,0.0,0.0,0.0,0.0,0.0,0.0,0.0,0.0,0.0,0.0,0.0,0.0,0.0,0.0,0.0,0.0,0.0,0.0,0.0,0.0,0.0,0.0,0.0,0.0,0.0,0.0,0.0,0.0,0.0,0.0,0.0,0.0,0.0,0.0,0.0,0.0,0.0,0.0,0.0,0.0,0.0,0.0,0.0,0.0,0.0,0.0,0.0,0.0,0.0,0.0,0.0,0.0,0.0,0.0,0.0,0.0,0.0,0.0,0.0,0.0,0.0,0.0,0.0,0.0,0.0,0.0,0.0,0.0,0.0,0.0,0.0,0.0,0.0,0.0,0.0,0.0,0.0,0.0,0.0,0.0,0.0,0.0,0.0,0.0,0.0,0.0,0.0,0.0,0.0,0.0,0.0,0.0,0.0,0.0,0.0,0.0,0.0,0.0,0.0,0.0,0.0,0.0,0.0,0.0,0.0,0.0,0.0,0.0,0.0,0.0,0.0,0.0,0.0,0.0,0.0,0.0,0.0,0.0,0.0,0.0,0.0,0.0,0.0,0.0,0.0,0.0,0.0,0.0,0.0,0.0,0.0,0.0,0.0,0.0,0.0,0.0,0.0,0.0,0.0,0.0,0.0,0.0,0.0,0.0,0.0,0.0,0.0,0.0,0.0,0.0,0.0,0.0,0.0,0.0,0.0,0.0,0.0,0.0,0.0,0.0,0.0,0.0,0.0,0.0,0.0,0.0,0.0,0.0,0.0,0.0,0.0,0.0,0.0,0.0,0.0,0.0,0.0,0.0,0.0,0.0,0.0,0.0,0.0,0.0,0.0,0.0,0.0,0.0,0.0,0.0,0.0,0.0,0.0,0.0,0.0,0.0,0.0,0.0,0.0,0.0,0.0,0.0,0.0,0.0,0.0,0.0,0.0,0.0,0.0,0.0,0.0,0.0,0.0,0.0,0.0,0.0,0.0,0.0,0.0,0.0,0.0,0.0,0.0,0.0,0.0,0.0,0.0,0.0,0.0,0.0,0.0,0.0,0.0,0.0,0.0,0.0,0.0,0.0,0.0,0.0,0.0,0.0,0.0,0.0,0.0,0.0,0.0,0.0,0.0,0.0,0.0,0.0,0.0,0.0,0.0,0.0,0.0,0.0,0.0,0.0,0.0,0.0,0.0,1.1626,1.1905,0.0,0.0,0.0,0.0,0.0,0.0,0.0,0.0,0.0,0.0,0.0,0.0,0.0,0.0,0.0,0.0,0.0,0.0,0.0,0.0,0.0,0.0,0.0,0.0,0.0,0.0,0.0,0.0,0.0,0.0,0.0,0.0,0.0,0.0,0.0,0.0,0.0,0.0,-0.3808,-0.3371,-0.2946,-0.3185,-0.3232,-0.311,0.0,0.0,0.0,0.0,0.0,0.0,0.0,0.0,0.0,0.0,0.0,0.0,0.0,0.0,0.0,0.0,0.0,0.0,0.0,0.0,0.0,0.0,0.0,0.0,0.0,0.0,0.0,0.0,0.0,0.0,0.0,0.0,0.0,0.0,0.0,0.0,0.0,0.0,0.0,0.0,0.0,0.0,0.0,0.0,0.0,0.0,0.0,0.0,0.0,0.0,0.0,0.0,0.0,0.0,0.0,0.0,0.0,0.0,0.0,0.0,0.0,0.0,0.0,0.0,0.0,0.0,0.0,0.0,0.0,0.0,1.2142,1.2411,0.0,0.0,0.0,0.0,0.0,0.0,0.0,0.0,0.0,0.0,0.0,0.0,0.0,0.0,0.0,0.0,0.0,0.0,0.0,0.0,0.0,0.0,0.0,-0.909,-0.8773,-0.8643,-0.8191,-0.7677,0.0,0.0,0.0,0.0,0.0,0.0,0.0,-0.6143,-0.6307,-0.6355,-0.5485,-0.4843,-0.4381,-0.4477,-0.3952,-0.3003,-0.3207,0.0,0.0,0.0,0.0,0.0,0.0,0.0,0.0,0.0,0.0,0.0,0.0,0.0,0.0,0.0,0.0,0.0,0.0,0.0,0.0,0.0,0.0,0.0,0.0,0.0,0.0,0.0,0.0,0.0,0.0,0.0,0.0,0.0,0.0,0.0,0.0,0.0,0.0,0.0,0.0,0.0,0.0,0.0,0.0,0.0,0.0,0.0,0.0,0.0,0.0,0.0,0.0,0.0,0.0,0.0,0.0,0.0,0.0,0.0,0.0,0.0,0.0,0.0,0.9924,1.063,1.1735,1.1985,1.1867,1.1526,1.3155,1.336,1.2606,1.3951,0.0,0.0,0.0,0.0,0.0,0.0,0.0,0.0,0.0,0.0,0.0,0.0,0.0,0.0,0.0,0.0,0.0,0.0,0.0,0.0,0.0,-0.9392,-0.9052,-0.8411,-0.8077,-0.7758,-0.7455,0.0,0.0,0.0,0.0,0.0,-0.6657,-0.6591,-0.6439,-0.6217,-0.5365,-0.4998,-0.5154,-0.4714,-0.4079,-0.3329,-0.3302,-0.2832,-0.2006,0.0,0.0,0.0,0.0,0.0,0.0,0.0,0.0,0.0,0.0,0.0,0.0,0.0,0.0,0.0,0.0,0.0,0.0,0.0,0.0,0.0,0.0,0.0,0.0,0.0,0.0,0.0,0.0,0.0,0.0,0.0,0.0,0.0,0.0,0.0,0.0,0.0,0.0,0.0,0.0,0.0,0.5779,0.6624,0.0,0.0,0.0,0.0,0.0,0.0,0.0,0.0,0.0,0.0,0.0,0.0,0.0,0.7824,0.7297,0.8503,0.893,0.8609,0.9372,1.0185,1.0941,1.1235,1.2019,1.3326,1.4435,0.0,1.1836,1.2952,0.0,0.0,0.0,0.0,0.0,0.0,0.0,0.0,0.0,0.0,0.0,0.0,0.0,0.0,0.0,0.0,0.0,0.0,0.0,0.0,0.0,-1.1388,-1.1248,-1.0708,-1.0145,-0.9447,-0.8577,-0.8067,0.0,0.0,0.0,-0.7427,-0.7427,-0.7691,-0.7702,-0.743,-0.7273,-0.6814,-0.6075,-0.5912,-0.5387,-0.4501,-0.4033,-0.3008,-0.1698,-0.184,0.0,0.0,0.0,0.0,0.0,0.0,0.0,0.0,0.0,0.0,0.0,0.0,0.0,0.0,0.0,0.0,0.0,0.0,0.0,0.0,0.0,0.0,0.0,0.0,0.0,0.0,0.0,0.0,0.0,0.0,0.0,0.0,0.0,0.0,0.0,0.0,0.0,0.0,0.0,0.4298,0.5305,0.5369,0.6486,0.7145,0.0,0.0,0.0,0.0,0.0,0.0,0.0,0.0,0.0,0.6305,0.726,0.7644,0.7342,0.8095,0.8723,0.9292,0.9676,1.0386,1.1324,1.2276,1.2907,1.3324,1.466,1.449,1.3289,1.4277,1.4172,1.3472,0.0,0.0,0.0,0.0,1.5822,1.703,0.0,0.0,0.0,0.0,0.0,0.0,0.0,0.0,0.0,0.0,0.0,0.0,-1.2678,-1.3054,-1.3098,-1.2691,-1.1785,-1.078,-0.9731,-0.8721,-0.7866,-0.7168,-0.7626,-0.7905,-0.7905,-0.8551,-0.8873,-0.8849,-0.9065,-0.8624,-0.7564,-0.7306,-0.6779,-0.6031,-0.513,-0.372,-0.2001,-0.2185,-0.1512,-0.0198,0.0,0.0,0.0,0.0,0.0,0.0,0.0,0.0,0.0,0.0,0.0,0.0,0.0,0.0,0.0,0.0,0.0,0.0,0.0,0.0,0.0,0.0,0.0,0.0,0.0,0.0,0.0,0.0,0.0,0.0,0.0,0.0,0.0,0.0,0.0,0.0,0.0,0.3378,0.4242,0.3873,0.5521,0.6577,0.0,0.0,0.0,0.0,0.0,0.0,0.6302,0.6739,0.7021,0.7099,0.7428,0.7665,0.7702,0.7872,0.8531,0.9596,0.9596,1.0211,1.133,1.2456,1.2863,1.2807,1.3987,1.4458,1.4402,1.5186,1.486,1.3863,1.3995,1.4246,1.4627,1.5064,1.6026,1.7116,0.0,0.0,0.0,0.0,0.0,0.0,0.0,0.0,0.0,0.0,0.0,-1.2621,-1.3031,-1.3422,-1.351,-1.3101,-1.1817,-1.091,-1.0642,-0.869,-0.7511,-0.7471,-0.7756,-0.7905,-0.7905,-0.8751,-0.9442,-1.0013,-0.9782,-0.9771,-0.9915,-0.8577,-0.7905,-0.7829,-0.6705,-0.5328,-0.3777,-0.2292,-0.1476,-0.108,0.0508,0.0,0.0,0.0,0.0,0.0,0.0,0.0,0.0,0.0,0.0,0.0,0.0,0.0,0.0,0.0,0.0,0.0,0.0,0.0,0.0,0.0,0.0,0.0,0.0,0.0,0.0,0.0,0.0,0.0,0.0,0.0,0.0,0.0,0.0,0.0,0.0,0.0,0.0,0.2311,0.3524,0.0,0.0,0.0,0.0,0.603,0.6573,0.6926,0.7034,0.7512,0.7889,0.8234,0.8265,0.834,0.8425,0.8442,0.8504,0.8563,0.8563,0.915,1.0297,1.0348,1.0938,1.1963,1.2022,1.2785,1.3957,1.4514,1.4765,1.484,1.4924,1.5457,1.6083,1.5306,1.5581,1.6225,0.0,0.0,0.0,0.0,0.0,0.0,0.0,0.0,-1.134,-1.2232,-1.3383,-1.4443,-1.5331,-1.5842,-1.6014,-1.5647,-1.4246,-1.2794,-1.1442,-0.9867,-0.8934,-0.8842,-0.8435,-0.8571,-0.9291,-0.961,-1.0281,-1.1243,-1.1322,-1.1278,-1.1112,-1.0629,-0.9637,-0.8241,-0.7849,-0.6902,-0.551,-0.4161,-0.2794,-0.1392,-0.0316,0.0952,0.0,0.0,0.0,0.0,0.0,0.0,0.0,0.0,0.0,0.0,0.0,0.0,0.0,0.0,0.0,0.0,0.0,0.0,0.0,0.0,0.0,0.0,0.0,0.0,0.0,0.0,0.0,0.0,0.0,0.0,0.0,0.0,0.0,0.0,0.0,0.0,0.0,0.1643,0.2736,0.0,0.3175,0.3606,0.4376,0.563,0.6018,0.6768,0.8083,0.8482,0.878,0.889,0.8989,0.896,0.8968,0.8968,0.8869,0.8774,0.8676,0.8811,0.9113,0.9861,1.0362,1.073,1.1556,1.2188,1.2641,1.2817,1.3715,1.4954,1.474,1.5148,1.5761,1.5739,1.6466,1.7462,0.0,0.0,0.0,0.0,0.0,0.0,0.0,0.0,-1.145,-1.271,-1.385,-1.5104,-1.6498,-1.7015,-1.7214,-1.7144,-1.5586,-1.3942,-1.2368,-1.0858,-0.9853,-0.9556,-0.9098,-0.9254,-1.0094,-1.0376,-1.1035,-1.2011,-1.2512,-1.2603,-1.233,-1.2044,-1.0921,-0.919,-0.8749,-0.7863,-0.663,-0.5841,-0.4408,-0.2527,-0.1347,0.0,0.1396,0.0,0.0,0.0,0.0,0.0,0.0,0.0,0.0,0.0,0.0,0.0,0.0,0.0,0.0,0.0,0.0,0.0,0.0,0.0,0.0,0.0,0.0,0.0,0.0,0.0,0.0,0.0,0.0,0.0,0.0,0.0,0.0,0.0,0.0,0.069,0.109,0.091,0.1928,0.2611,0.2432,0.282,0.3605,0.4903,0.5136,0.5834,0.7185,0.8034,0.8441,0.8487,0.9061,0.9334,0.9286,0.9286,0.9181,0.9086,0.8933,0.8781,0.8685,0.9354,0.9646,0.9535,1.0384,1.0979,1.1368,1.1347,1.241,1.4102,1.4343,1.4903,1.5647,1.6149,1.675,1.7458,0.0,0.0,0.0,0.0,0.0,0.0,0.0,-1.0706,-1.1576,-1.3189,-1.3593,-1.4489,-1.6427,-1.6782,-1.7012,-1.739,-1.5588,-1.4145,-1.3476,-1.1555,-1.0132,-0.9471,-0.9712,-0.9955,-1.0154,-1.0969,-1.173,-1.2331,-1.3174,-1.3606,-1.3579,-1.2741,-1.182,-1.0805,-0.9552,-0.8292,-0.7153,-0.7112,-0.6197,-0.4633,-0.2691,-0.1344,-0.0332,0.0,0.0,0.0,0.0,0.0,0.0,0.0,0.0,0.0,0.0,0.0,0.0,0.0,0.0,0.0,0.0,0.0,0.0,0.0,0.0,0.0,0.0,0.0,0.0,0.0,0.0,0.0,0.0,0.0,0.0,0.0,0.0,0.0,0.0,0.0,0.0,0.0,0.1039,0.177,0.173,0.2916,0.3711,0.3767,0.3999,0.4274,0.4516,0.5983,0.6913,0.7023,0.8521,0.9333,0.933,0.9388,0.9388,0.9381,0.9286,0.9083,0.8878,0.8784,0.8632,0.8482,0.8482,0.9205,1.0323,1.0192,1.0924,1.2274,1.3705,1.4837,1.5749,1.6368,1.627,1.5981,0.0,0.0,0.0,0.0,0.0,0.0,-1.0303,-1.0706,-1.1576,-1.3189,-1.425,-1.5551,-1.7339,-1.7853,-1.7971,-1.785,-1.6162,-1.4712,-1.3749,-1.2082,-1.088,-1.0359,-1.0696,-1.1065,-1.1397,-1.1623,-1.2144,-1.2959,-1.338,-1.3713,-1.3968,-1.3906,-1.3318,-1.2192,-1.114,-0.9963,-0.8776,-0.7834,-0.7151,-0.6525,-0.5027,-0.3331,-0.1579,0.0,0.0,0.0,0.0,0.0,0.0,0.0,0.0,0.0,0.0,0.0,0.0,0.0,0.0,0.0,0.0,0.0,0.0,0.0,0.0,0.0,0.0,0.0,0.0,0.0,0.0,0.0,0.0,0.0,0.0,0.0,0.0,0.0,0.0,0.0,0.0,0.0,0.0285,0.0519,0.0518,0.0807,0.1563,0.275,0.2953,0.3525,0.4729,0.5218,0.5469,0.5494,0.7107,0.7897,0.7751,0.8947,0.9493,0.9381,0.934,0.9184,0.8881,0.8841,0.873,0.8482,0.8482,0.8689,0.8996,0.9001,0.9753,1.1001,1.2108,1.2727,1.3125,1.4237,1.5305,1.6201,0.0,0.0,0.0,0.0,0.0,0.0,-1.0303,-1.0534,-1.1257,-1.282,-1.3902,-1.5171,-1.6806,-1.7273,-1.7413,-1.7233,-1.5771,-1.4458,-1.357,-1.264,-1.1818,-1.1158,-1.1918,-1.2228,-1.1921,-1.2275,-1.2746,-1.3353,-1.3766,-1.4095,-1.4275,-1.4569,-1.4129,-1.2993,-1.1812,-1.0681,-0.955,-0.8248,-0.7604,-0.7434,-0.6702,-0.5288,-0.3516,-0.2463,-0.1411,-0.0322,0.0573,0.125,0.1848,0.26,0.0,0.0,0.0,0.0,0.0,0.0,0.0,0.0,0.0,0.0,0.0,0.0,0.0,0.0,0.0,0.0,0.0,0.0,0.0,0.0,0.0,0.0,0.0,0.0,0.0,0.0,0.0,0.0,0.0,0.0,0.0,0.0,0.0,0.0,0.0422,0.1398,0.1459,0.1831,0.2768,0.3506,0.3873,0.3873,0.6198,0.7332,0.7208,0.8846,0.9652,0.9564,0.9507,0.9384,0.9218,0.9154,0.9025,0.8859,0.8859,0.8859,0.8849,0.8723,0.9094,0.9861,0.0,0.0,0.0,0.0,1.3912,1.4879,0.0,0.0,0.0,0.0,0.0,0.0,-1.0303,-1.0303,-1.0805,-1.2257,-1.302,-1.3953,-1.5328,-1.5766,-1.5928,-1.588,-1.4756,-1.3806,-1.325,-1.3141,-1.2763,-1.202,-1.3162,-1.3225,-1.2029,-1.2786,-1.334,-1.3553,-1.4173,-1.4522,-1.4529,-1.4856,-1.4533,-1.3572,-1.2033,-1.0857,-0.9936,-0.846,-0.7763,-0.7658,-0.7787,-0.7026,-0.5668,-0.4613,-0.3442,-0.2287,-0.1519,-0.0357,0.0858,0.1514,0.0,0.0,0.0,0.0,0.0,0.0,0.0,0.0,0.0,0.0,0.0,0.0,0.0,0.0,0.0,0.0,0.0,0.0,0.0,0.0,0.0,0.0,0.0,0.0,0.0,0.0,0.0,0.0,0.0,0.0,0.0,0.0,0.0,0.0,0.0,0.0,0.0,0.0,0.0,0.1422,0.0,0.0,0.0,0.7116,0.7116,0.8897,0.9822,0.9819,0.9693,0.9625,0.9605,0.9469,0.9398,0.9381,0.9381,0.9381,0.9361,0.91,0.8922,0.9051,1.0192,1.1264,1.2196,1.2196,1.2432,1.2958,0.0,0.0,0.0,0.0,0.0,0.0,-1.0303,-1.0303,-1.0715,-1.1865,-1.2589,-1.3317,-1.4084,-1.469,-1.4893,-1.4513,-1.3938,-1.3691,-1.3888,-1.3395,-1.3302,-1.3769,-1.3335,-1.2934,-1.2634,-1.2993,-1.324,-1.3293,-1.4115,-1.4522,-1.4529,-1.5064,-1.5199,-1.4929,-1.276,-1.1699,-1.1347,-0.897,-0.7931,-0.7907,-0.7934,-0.7599,-0.6943,-0.5877,-0.5205,-0.4739,-0.3641,-0.2436,-0.1349,-0.1107,0.0,0.1315,0.1456,0.2369,0.0,0.0,0.0,0.0,0.0,0.0,0.0,0.0,0.0,0.0,0.0,0.0,0.0,0.0,0.0,0.0,0.0,0.0,0.0,0.0,0.0,0.0,0.0,0.0,0.0,0.0,0.0,0.0,0.0,0.0,0.0,0.0,0.0,0.0,0.0,0.0316,0.0503,0.0503,0.3652,0.5406,0.5406,0.8346,0.9822,0.9822,0.9791,0.0,0.9608,0.9581,0.9496,0.9381,0.9381,0.9381,0.9374,0.932,0.9222,0.9129,0.8994,0.9698,1.0802,1.0802,1.1651,1.282,0.0,0.0,0.0,0.0,0.0,0.0,-1.0303,-1.0303,-1.0656,-1.1633,-1.2029,-1.2536,-1.3283,-1.3442,-1.3393,-1.3178,-1.2964,-1.312,-1.3753,-1.3792,-1.39,-1.4104,-1.3873,-1.3511,-1.3005,-1.3273,-1.346,-1.3647,-1.4382,-1.4743,-1.4756,-1.5337,-1.5611,-1.5477,-1.301,-1.1896,-1.176,-0.921,-0.8109,-0.7995,-0.8123,-0.7974,-0.7658,-0.7124,-0.6426,-0.5724,-0.5051,-0.3925,-0.2691,-0.2022,-0.1111,-0.011,0.0721,0.158,0.2294,0.0,0.0,0.0,0.0,0.0,0.0,0.0,0.0,0.0,0.0,0.0,0.0,0.0,0.0,0.0437,0.0047,0.0,0.0,0.0,0.0,0.0,0.0,0.0,0.0,0.0,0.0,0.0,0.0,0.0,0.0,0.0,0.0,0.0,0.0,0.0,0.0,0.0,0.3271,0.5027,0.5027,0.8287,0.9872,0.9872,0.9859,0.9785,0.9717,0.9717,0.9673,0.9602,0.9602,0.9602,0.9591,0.9442,0.935,0.9187,0.8961,0.9201,0.9666,0.9666,1.0142,1.0966,0.0,0.0,0.0,0.0,0.0,0.0,0.0,-1.0244,-1.0547,-1.1263,-1.143,-1.1692,-1.2338,-1.2139,-1.1979,-1.2067,-1.2233,-1.2759,-1.3809,-1.4367,-1.4559,-1.43,-1.4607,-1.4314,-1.3287,-1.3487,-1.3746,-1.4088,-1.472,-1.5035,-1.5102,-1.5585,-1.5784,-1.5683,-1.306,-1.1922,-1.1776,-0.9318,-0.8214,-0.8133,-0.8231,-0.8197,-0.8029,-0.8002,-0.7316,-0.6349,-0.6171,-0.5056,-0.3519,-0.2483,-0.1756,-0.1059,0.0286,0.0908,0.1182,0.1687,0.2016,0.0,0.0,0.0,0.0,0.0,0.0,0.0,0.0,0.1516,0.0867,0.0902,0.0425,0.0,0.0,0.0,0.0,0.0,0.0,0.0,0.0,0.0,0.0,0.0,0.0,0.0,0.0,0.0,0.0,0.0,0.0,0.0,0.0,0.0,0.0,0.0,0.3008,0.4751,0.5072,0.8054,0.9715,1.0031,0.9968,0.991,0.991,0.988,0.9866,0.9863,0.9832,0.9822,0.9798,0.9534,0.9354,0.9296,0.9265,0.9127,0.9022,0.8991,0.8981,0.9141,0.0,0.0,0.0,0.0,0.0,0.0,0.0,0.0,-1.0342,-1.043,-1.0752,-1.0879,-1.0625,-1.0859,-1.1211,-1.1623,-1.2377,-1.3486,-1.5098,-1.5264,-1.5455,-1.5749,-1.558,-1.4897,-1.3581,-1.3586,-1.3746,-1.4088,-1.472,-1.5142,-1.5357,-1.5678,-1.5784,-1.5683,-1.306,-1.2007,-1.1984,-0.9415,-0.8333,-0.8425,-0.8316,-0.831,-0.8231,-0.8092,-0.7928,-0.771,-0.7336,-0.5819,-0.3894,-0.3399,-0.1878,-0.0151,0.0038,0.0553,0.1106,0.1184,0.1668,0.2203,0.221,0.2195,0.2341,0.2874,0.2084,0.1358,0.0,0.1053,0.01,0.0108,0.0056,0.0,0.0,0.0,0.0,0.0,0.0,0.0,0.0,0.0,0.0,0.0,0.0,0.0,0.0,0.0,0.0,0.0,0.0,0.0,0.0,0.0,0.0,0.0,0.1812,0.3533,0.5072,0.6919,0.8643,1.0253,1.0239,1.0229,1.0226,1.0086,0.996,0.9953,0.988,0.9822,0.9808,0.9649,0.9574,0.9544,0.9408,0.9347,0.9317,0.9234,0.9187,0.9166,0.0,0.0,0.0,0.0,0.0,0.0,0.0,0.0,0.0,-1.0615,-1.0586,-1.0576,-1.0645,-1.0811,-1.0977,-1.1183,-1.1992,-1.3223,-1.4941,-1.5155,-1.5375,-1.5737,-1.554,-1.4944,-1.3895,-1.3901,-1.4128,-1.464,-1.501,-1.5277,-1.5404,-1.5691,-1.5784,-1.5689,-1.3203,-1.2133,-1.2034,-0.958,-0.8509,-0.8476,-0.8418,-0.8343,-0.8296,-0.8001,-0.7695,-0.7389,-0.6713,-0.5661,0.0,-0.2968,-0.1782,-0.0812,-0.0182,0.0216,0.0458,0.0467,0.0694,0.0916,0.0922,0.0921,0.0996,0.1247,0.0859,0.0527,0.0794,0.0377,0.0,0.0,0.0,0.0,0.0,0.0,0.0,0.0,0.0,0.0,0.0,0.0,0.0,0.0,0.0,0.0,0.0,0.0,0.0,0.0,0.0,0.0,0.0,0.0,0.0,0.0,0.1714,0.3493,0.5267,0.692,0.8646,1.0402,1.0321,1.028,1.028,1.0212,1.0134,0.9977,0.9886,0.9822,0.9812,0.9666,0.9608,0.9602,0.954,0.9513,0.9496,0.9344,0.9344,0.9276,0.0,0.0,0.0,0.0,0.0,0.0,0.0,0.0,0.0,0.0,-1.0273,-1.0134,-1.0287,-1.0398,-1.0573,-1.0843,-1.1554,-1.2646,-1.4217,-1.4756,-1.5011,-1.4957,-1.5194,-1.4955,-1.4117,-1.4168,-1.4496,-1.5129,-1.5291,-1.5438,-1.5518,-1.5732,-1.5784,-1.5689,-1.3628,-1.2492,-1.2128,-1.0064,-0.8924,-0.854,-0.8499,-0.8347,-0.8106,-0.7756,-0.7183,-0.6459,-0.5884,-0.5207,-0.4244,-0.2394,-0.1491,-0.101,-0.0243,0.0,0.0,0.0,0.0,0.0,0.0,0.0,0.0,0.0,0.0,0.0,0.0,0.0,0.0,0.0,0.0,0.0,0.0,0.0,0.0,0.0,0.0,0.0,0.0,0.0,0.0,0.0,0.0,0.0,0.0,0.0,0.0,0.0,0.0,0.0,0.0,0.0,0.0,0.0,0.127,0.3087,0.5364,0.6568,0.8312,1.0555,1.0453,1.0402,1.0399,1.0358,1.0256,1.0107,0.9995,0.9924,0.9876,0.9774,0.9707,0.9666,0.9666,0.9666,0.9652,0.9544,0.9479,0.9439,0.0,0.0,0.0,0.0,0.0,0.0,0.0,0.0,0.0,0.0,0.0,0.0,0.0,-0.9111,-0.9744,-1.0717,-1.1187,-1.1923,-1.3077,-1.4183,-1.4375,-1.3403,-1.4667,-1.498,-1.411,-1.4362,-1.4796,-1.5384,-1.5391,-1.5538,-1.5764,-1.5778,-1.5784,-1.573,-1.4424,-1.3325,-1.2289,-1.091,-0.9719,-0.8693,-0.854,-0.8218,-0.7777,-0.7284,-0.6285,-0.5199,-0.5348,-0.4433,-0.2995,-0.1947,-0.0908,-0.0031,0.0,0.0,0.0,0.0,0.0,0.0,0.0,0.0,0.0,0.0,0.0,0.0,0.0,0.0,0.0,0.0,0.0,0.0,0.0,0.0,0.0,0.0,0.0,0.0,0.0,0.0,0.0,0.0,0.0,0.0,0.0,0.0,0.0,0.0,0.0,0.0,0.0,0.0,0.0,0.0,0.0067,0.1814,0.5364,0.5427,0.7231,1.0714,1.0711,1.0707,1.0704,1.0555,1.0409,1.0273,1.027,1.0181,0.998,0.9974,0.9886,0.9815,0.9815,0.9815,0.9815,0.9808,0.972,0.9581,0.0,0.0,0.0,0.0,0.0,0.0,0.0,0.0,0.0,0.0,0.0,0.0,0.0,0.0,0.0,0.0,-1.0221,-1.101,-1.2295,-1.2842,-1.3093,-1.2973,-1.3878,-1.4125,-1.3527,-1.3753,-1.4322,-1.511,-1.491,-1.4963,-1.5257,-1.5257,-1.5357,-1.5498,-1.4291,-1.3188,-1.2188,-1.0952,-0.964,-0.8387,-0.8038,-0.7743,-0.7402,-0.6204,-0.5345,-0.456,0.0,-0.2614,-0.1953,-0.0878,-0.0299,0.0,0.0,0.0,0.0,0.0,0.0,0.0,0.0,0.0,0.0,0.0,0.0,0.0,0.0,0.0,0.0,0.0,0.0,0.0,0.0,0.0,0.0,0.0,0.0,0.0,0.0,0.0,0.0,0.0,0.0,0.0,0.0,0.0,0.0,0.0,0.0,0.0,0.0,0.0,0.0,0.0,0.0,0.1747,0.5364,0.5431,0.7167,1.0721,1.0721,1.0721,1.0714,1.0561,1.0466,1.0415,1.0321,1.0249,1.0202,1.0202,1.011,0.992,1.0086,1.0063,0.9923,1.0086,1.0093,1.0019,0.0,0.0,0.0,0.0,0.0,0.0,0.0,0.0,0.0,0.0,0.0,0.0,0.0,0.0,0.0,0.0,0.0,-0.986,-1.0821,-1.149,-1.174,-1.1529,-1.2563,-1.2969,-1.2559,-1.2821,-1.334,-1.4057,-1.3821,-1.3821,-1.4057,-1.4164,-1.4318,-1.4419,-1.3487,-1.2464,-1.142,-1.0253,-0.898,-0.7678,-0.7336,-0.7041,-0.6662,-0.531,-0.4409,0.0,-0.2096,-0.1332,-0.0918,-0.0227,0.0,0.0,0.0,0.0,0.0,0.0,0.0,0.0,0.0,0.0,0.0,0.0,0.0,0.0,0.0,0.0,0.0,0.0,0.0,0.0,0.0,0.0,0.0,0.0,0.0,0.0,0.0,0.0,0.0,0.0,0.0,0.0,0.0,0.0,0.0,0.0,0.0,0.0,0.0,0.0,0.0,0.0,0.0605,0.2417,0.5364,0.603,0.7769,1.0721,1.0721,1.0721,1.0717,1.0619,1.0571,1.0568,1.0477,1.0409,1.0354,1.0354,1.0266,1.0141,1.0243,1.0219,1.0144,1.0243,1.0314,1.0321,0.0,0.0,0.0,0.0,0.0,0.0,0.0,0.0,0.0,0.0,0.0,0.0,0.0,0.0,0.0,0.0,0.0,0.0,-0.8829,-1.01,-1.0332,-0.9214,-1.0739,-1.1538,-1.1303,-1.1617,-1.1966,-1.2238,-1.2238,-1.2245,-1.2265,-1.2583,-1.2723,-1.2712,-1.2159,-1.1289,-1.0138,-0.9073,-0.7889,-0.6692,-0.6532,-0.6166,-0.5603,-0.4521,-0.3508,-0.2495,-0.143,-0.0588,0.0,0.0,0.0,0.0,0.0,0.0,0.0,0.0,0.0,0.0,0.0,0.0,0.0,0.0,0.0,0.0,0.0,0.0,0.0,0.0,0.0,0.0,0.0,0.0,0.0,0.0,0.0,0.0,0.0,0.0,0.0,0.0,0.0,0.0,0.0,0.0,0.0,0.0,0.0,0.0,0.0,0.0,0.0,0.0,0.1747,0.3557,0.5369,0.7238,0.8978,1.0721,1.0721,1.0721,1.0721,1.0721,1.0721,1.0721,1.0721,1.0636,1.0504,1.0504,1.0419,1.0293,1.03,1.0297,1.0293,1.03,1.0388,1.0483,0.0,0.0,0.0,0.0,0.0,0.0,0.0,0.0,0.0,0.0,0.0,0.0,0.0,0.0,0.0,0.0,0.0,0.0,-0.8088,-0.8312,-0.8429,-0.8529,-0.919,-0.9609,-0.9764,-1.0301,-1.0815,-1.1329,-1.1329,-1.1436,-1.1615,-1.1724,-1.1884,-1.2134,-1.1982,-1.1309,-1.0285,-0.9488,-0.8295,-0.6927,-0.6134,-0.5323,-0.4476,-0.3353,-0.2407,-0.1537,-0.0625,-0.0168,0.0,0.0,0.0,0.0,0.0,0.0,0.0,0.0,0.0,0.0,0.0,0.0,0.0,0.0,0.0,0.0,0.0,0.0,0.0,0.0,0.0,0.0,0.0,0.0,0.0,0.0,0.0,0.0,0.0,0.0,0.0,0.0,0.0,0.0,0.0,0.0,0.0,0.0,0.0,0.0,0.0,0.0,0.0,0.0,0.1747,0.3639,0.551,0.8636,1.0357,1.0721,1.0721,1.0721,1.0721,1.0721,1.0721,1.0721,1.0721,1.0697,1.0663,1.0663,1.0575,1.0449,1.0565,1.0538,1.0453,1.0565,1.0629,1.0656,0.0,0.0,0.0,0.0,0.0,0.0,0.0,0.0,0.0,0.0,0.0,0.0,0.0,0.0,0.0,0.0,0.0,0.0,0.0,-0.7126,-0.735,-0.7936,-0.8252,-0.8532,-0.8851,-0.9031,-0.9379,-0.9876,-0.9473,-0.9369,-0.95,-0.9432,-0.95,-0.9647,-0.9415,-0.9042,-0.8509,-0.7573,-0.6751,0.0,0.0,-0.479,-0.4195,-0.287,-0.2094,-0.1547,-0.0395,0.0,0.0,0.0,0.0,-0.0118,-0.0696,-0.0481,0.0,0.0,0.0,0.0,0.0,0.0,0.0,0.0,0.0,0.0,0.0,0.0,0.0,0.0,0.0,0.0,0.0,0.0,0.0,0.0,0.0,0.0,0.0,0.0,0.0,0.0,0.0,0.0,0.0,0.0,0.0,0.0,0.0,0.0,0.0,0.0,0.0,0.0,0.2581,0.5273,0.8064,0.9946,1.0836,1.0819,1.0751,1.0721,1.0721,1.0721,1.0721,1.0721,1.0721,1.0721,1.0721,1.0721,1.067,1.0602,1.0687,1.0666,1.0602,1.0687,1.0721,1.0721,0.0,0.0,0.0,0.0,0.0,0.0,0.0,0.0,0.0,0.0,0.0,0.0,0.0,0.0,0.0,0.0,0.0,0.0,0.0,0.0,-0.6777,-0.7297,-0.7623,-0.7882,-0.8116,-0.7863,-0.7828,-0.8045,-0.734,-0.6972,-0.6984,-0.6804,-0.6716,-0.6731,-0.6244,-0.6125,-0.6184,-0.5078,-0.4685,-0.479,-0.457,-0.4377,-0.4042,0.0,-0.2091,-0.173,-0.0448,0.0,-0.0035,-0.0223,-0.0161,-0.0217,-0.1383,-0.094,0.0,0.0,0.0,0.0,0.0,0.0,0.0,0.0,0.0,0.0,0.0,0.0,0.005,0.0136,0.0087,0.0043,0.0167,0.0085,0.0,0.0,0.0,0.0,0.0,0.0,0.0,0.0,0.0,0.0,0.0,0.0,0.0,0.0,0.0,0.0,0.0,0.0,0.0206,0.0744,0.4145,0.7685,1.1162,1.106,1.0921,1.088,1.0812,1.0741,1.0721,1.0721,1.0721,1.0721,1.0721,1.0721,1.0721,1.0721,1.0721,1.0721,1.0721,1.0721,1.0721,1.0721,1.0721,1.0721,0.0,0.0,0.0,0.0,0.0,0.0,0.0,0.0,0.0,0.0,-0.5435,0.0,0.0,0.0,0.0,0.0,0.0,0.0,0.0,0.0,0.0,-0.6422,-0.6896,-0.697,-0.6583,-0.6752,-0.6602,-0.6173,-0.6306,-0.6358,-0.6358,-0.6316,-0.6358,-0.6458,-0.6258,-0.6292,-0.6464,-0.5548,-0.5241,-0.5317,-0.4743,-0.3735,-0.2565,-0.2313,0.0,0.0,-0.0084,0.0,-0.0162,-0.1266,-0.0901,-0.0048,-0.0251,-0.0212,0.0,0.0,0.0,0.0,0.0,0.0,0.0,0.0,0.0,0.0,0.0,0.0,0.0,0.0909,0.0513,0.0233,0.0925,0.0495,0.0,0.0,0.0,0.0,0.0,0.0,0.0,0.0,0.0,0.0,0.0,0.0,0.0,0.0,0.0,0.0,0.0,0.0,0.1394,0.4507,0.6962,0.9165,1.1165,1.1263,1.1192,1.088,1.0853,1.0843,1.0721,1.0721,1.0721,1.0721,1.0721,1.0721,1.0721,1.0721,1.0721,1.0721,1.0721,1.0721,1.0721,1.0721,1.0721,1.0721,0.0,0.0,0.0,0.0,0.0,0.0,0.0,0.0,0.0,0.0,-0.6012,-0.4982,0.0,0.0,0.0,0.0,0.0,0.0,0.0,0.0,0.0,0.0,-0.6456,-0.6523,-0.6422,-0.6674,-0.6436,-0.57,0.0,-0.5575,-0.5254,-0.5057,-0.4992,-0.5058,-0.5066,-0.5123,-0.5215,-0.4863,-0.4729,-0.4707,-0.4562,-0.3767,-0.2629,0.0,0.0,0.0,0.0,0.0,-0.0096,-0.0752,-0.053,-0.0139,-0.0817,-0.0545,0.0,0.0,0.0,0.0,0.0,0.0,0.0,0.0,0.0,0.0116,0.057,0.0,0.0,0.1829,0.1701,0.1401,0.131,0.0946,0.0521,0.0095,0.0,0.0,0.0,0.0,0.0,0.0,0.0,0.0,0.0,0.0,0.0,0.0,0.0,0.0,0.0,0.0981,0.2816,0.5626,0.7684,0.9603,1.1399,1.1396,1.128,1.106,1.0917,1.0799,1.0721,1.0721,1.0721,1.0721,1.0721,1.0721,1.0721,1.0721,1.0721,1.0721,1.0721,1.0721,1.0721,1.0721,1.0772,1.0772,0.0,0.0,0.0,0.0,0.0,0.0,0.0,-0.6666,-0.6768,-0.8093,-0.6568,-0.5173,-0.473,-0.3743,-0.3087,0.0,0.0,0.0,0.0,0.0,0.0,0.0,0.0,0.0,0.0,0.0,0.0,-0.5248,-0.5042,0.0,0.0,0.0,0.0,0.0,-0.3917,-0.3964,-0.4001,-0.4122,-0.4105,0.0,0.0,-0.367,0.0,0.0,0.0,0.0,0.0,0.0,0.0,0.0,0.0,-0.0166,-0.125,-0.0848,0.0,0.0,0.0,0.0,0.0,0.0,0.0,0.0,0.0,0.0227,0.1099,0.132,0.1609,0.275,0.2814,0.2487,0.175,0.1426,0.1021,0.0133,0.0,0.0,0.0,0.0,0.0,0.0,0.0,0.0,0.0,0.0,0.0,0.0,0.0,0.0,0.0,0.2266,0.4187,0.5732,0.8117,1.0051,1.1616,1.1501,1.1348,1.1231,1.108,1.0931,1.0721,1.0755,1.0751,1.0721,1.0721,1.0721,1.0721,1.0721,1.0721,1.0721,1.0721,1.0721,1.0721,1.0721,1.0795,1.0833,0.0,0.0,0.0,0.0,0.0,0.0,0.0,-0.6793,-0.7096,-0.8623,-0.6875,-0.5503,-0.5578,-0.4096,-0.305,0.0,0.0,0.0,0.0,0.0,0.0,0.0,0.0,0.0,0.0,0.0,0.0,-0.3795,-0.3762,0.0,0.0,0.0,0.0,0.0,0.0,-0.389,-0.3998,-0.4011,0.0,0.0,0.0,0.0,0.0,0.0,0.0,0.0,0.0,0.0,0.0,0.0,0.0,-0.0035,-0.0157,-0.0092,0.0,0.0,0.0,0.0,0.0,0.0,0.0,0.0,0.0,0.0223,0.1107,0.0,0.1776,0.3526,0.3265,0.2683,0.2572,0.1867,0.1002,0.0132,0.0,0.0,0.0,0.0,0.0,0.0,0.0,0.0,0.0,0.0,0.0,0.0,0.0,0.0,0.0,0.3512,0.5582,0.5806,0.9424,1.1387,1.1619,1.1606,1.1453,1.1234,1.129,1.1131,1.0724,1.0796,1.0853,1.0721,1.0721,1.0721,1.0721,1.0721,1.0721,1.0721,1.0721,1.0721,1.0721,1.0721,1.0727,1.0741,0.0,0.0,0.0,0.0,0.0,0.0,0.0,-0.6803,-0.6959,-0.8677,-0.6904,-0.5521,-0.5572,-0.4161,-0.3108,0.0,0.0,0.0,0.0,0.0,0.0,0.0,0.0,0.0,0.0,0.0,-0.4508,-0.3604,-0.3924,0.0,0.0,0.0,0.0,0.0,0.0,-0.3778,-0.3741,-0.355,0.0,0.0,0.0,0.0,0.0,0.0,0.0,0.0,0.0,0.0,0.0,0.0,0.0,0.0,0.0,0.0,0.0,0.0,0.0,0.0,0.0,0.0,0.0,0.0,0.0,0.0374,0.1804,0.0,0.2561,0.4467,0.4456,0.4014,0.3554,0.275,0.1862,0.0923,0.0331,0.0,0.0,0.0,0.0,0.0,0.0,0.0,0.0,0.0,0.0,0.0,0.0,0.0,0.0,0.3689,0.5777,0.5808,0.9579,1.1619,1.1619,1.1619,1.1511,1.1301,1.1362,1.1202,1.0793,1.0853,1.0796,1.0721,1.0721,1.0721,1.0721,1.0721,1.0721,1.0721,1.0721,1.0721,1.0721,1.0721,1.0778,1.0789,0.0,0.0,0.0,0.0,0.0,0.0,-0.7376,-0.6853,-0.6863,-0.8416,-0.6718,-0.5409,-0.5437,-0.4094,-0.3087,-0.2835,0.0,0.0,0.0,0.0,0.0,0.0,0.0,0.0,0.0,0.0,-0.4403,-0.3604,-0.3987,-0.3965,0.0,0.0,-0.3328,-0.3334,0.0,0.0,0.0,0.0,0.0,0.0,0.0,0.0,0.0,0.0,0.0,0.0,0.0,0.0,0.0,0.0,0.0,0.0,0.0,0.0454,0.0279,0.0085,0.0,0.0,0.0,0.0,0.0125,0.0491,0.051,0.0973,0.0,0.0,0.3462,0.5057,0.5274,0.4935,0.4132,0.349,0.2696,0.15,0.0777,0.0293,0.0048,0.0,0.0,0.0,0.0,0.0,0.0,0.0,0.0,0.0,0.0,0.0,0.0,0.3708,0.581,0.581,0.9579,1.1619,1.1619,1.1619,1.1541,1.1392,1.1436,1.128,1.0884,1.0992,1.0931,1.0785,1.0741,1.0748,1.0782,1.0741,1.0721,1.0721,1.0721,1.0721,1.0721,1.0721,1.0789,1.0813,0.0,0.0,0.0,0.0,0.0,0.0,0.0,-0.6946,-0.6914,-0.7799,-0.6266,-0.5163,-0.5283,-0.3875,-0.2949,-0.3084,0.0,0.0,0.0,0.0,0.0,0.0,0.0,0.0,0.0,0.0,-0.3604,-0.3604,-0.3604,-0.3604,-0.3578,-0.299,-0.2719,-0.2677,0.0,0.0,0.0,0.0,0.0,0.0,0.0,0.0,0.0,0.0,0.0,0.0,0.0,0.0,0.0,0.0,0.0,0.0,0.0,0.1562,0.0947,0.0218,0.0,0.0,0.0,0.0,0.0292,0.164,0.1757,0.2115,0.4217,0.4404,0.4428,0.5248,0.5392,0.5123,0.4184,0.3984,0.3406,0.1604,0.1298,0.0979,0.0145,0.0,0.0,0.0,0.0,0.0,0.0,0.0,0.0,0.0,0.0,0.0,0.0,0.3708,0.581,0.581,0.9579,1.1619,1.1619,1.1619,1.1541,1.1392,1.1545,1.1382,1.0887,1.1094,1.1084,1.087,1.0785,1.0806,1.0867,1.0782,1.0721,1.0721,1.0721,1.0721,1.0721,1.0721,1.0721,1.0721,0.0,0.0,0.0,0.0,0.0,0.0,0.0,-0.594,-0.5837,-0.6207,-0.5222,-0.4469,-0.4414,-0.3497,-0.2909,-0.2953,0.0,0.0,0.0,0.0,0.0,0.0,0.0,0.0,0.0,0.0,-0.3499,-0.3747,-0.3747,-0.3778,-0.3856,-0.3158,-0.2838,-0.2812,-0.2153,-0.1844,0.0,0.0,0.0,0.0,0.0,0.0,0.0616,0.0,0.0,0.0,0.0,0.0,0.0,0.0,0.0,0.0,0.0,0.0,0.0,0.1555,0.0802,0.0,0.0,0.0382,0.0836,0.1262,0.1683,0.2349,0.3638,0.3807,0.3941,0.4984,0.5125,0.5026,0.4956,0.4419,0.3606,0.2446,0.1733,0.0986,0.014,0.0,0.0,0.0,0.0,0.0,0.0,0.0,0.0,0.0,0.0,0.0,0.0,0.3708,0.581,0.581,0.9579,1.1619,1.1619,1.1514,1.144,1.1392,1.144,1.1284,1.0887,1.1097,1.1029,1.0792,1.0741,1.0748,1.0789,1.0741,1.0721,1.0721,1.0721,1.0721,1.0721,1.0721,1.0721,1.0721,0.0,0.0,0.0,0.0,0.0,0.0,0.0,-0.5513,-0.5253,-0.5342,-0.448,-0.388,-0.3917,-0.3267,-0.2866,-0.2963,0.0,0.0,0.0,0.0,0.0,0.0,0.0,0.0,0.0,-0.3279,-0.3472,-0.3792,-0.3792,-0.3723,-0.3565,-0.2893,-0.2407,-0.2109,-0.1435,-0.1131,0.0,0.0,0.0,0.0,0.0,0.0,0.0918,0.0,0.0,0.0,0.0,0.0,0.0,0.0,0.0,0.0,0.0,0.0,0.0,0.0,0.1783,0.084,0.0822,0.1161,0.1621,0.2132,0.2539,0.0,0.4113,0.4207,0.4236,0.4953,0.5029,0.5074,0.5351,0.4925,0.4254,0.3388,0.2459,0.1555,0.0724,0.0249,0.0,0.0,0.0,0.0,0.0,0.0,0.0,0.0,0.0,0.0,0.0,0.3708,0.581,0.581,0.9579,1.1619,1.1619,1.1525,1.145,1.1392,1.1392,1.1236,1.0884,1.1043,1.0982,1.0802,1.0744,1.0755,0.0,1.0744,1.0721,1.0721,1.0721,1.0721,1.0721,1.0721,1.0721,1.0721,0.0,0.0,0.0,0.0,0.0,0.0,0.0,0.0,0.0,0.0,-0.4021,-0.3411,-0.3686,-0.3113,-0.2791,0.0,0.0,0.0,0.0,0.0,0.0,0.0,0.0,0.0,0.0,-0.3175,-0.3428,-0.3792,-0.3802,-0.3519,-0.2976,-0.2321,-0.1659,-0.0956,-0.0287,0.0,0.0,0.0,0.0,0.0,0.0,0.0,0.0,0.0,0.0,0.0,0.0,0.0,0.0,0.0,0.0,0.0,0.0,0.0,0.0,0.0,0.0,0.0,0.0,0.2326,0.2564,0.3823,0.399,0.4147,0.5261,0.5287,0.0,0.5066,0.5076,0.5137,0.5378,0.5412,0.5145,0.4375,0.3368,0.2445,0.1739,0.0693,0.0,0.0,0.0,0.0,0.0,0.0,0.0,0.0,0.0,0.0073,0.0219,0.378,0.5881,0.6027,0.9654,1.1613,1.1603,1.1592,1.1511,1.1358,1.1358,1.1209,1.0863,1.0877,1.0877,1.0857,1.0782,1.0802,1.0853,1.0778,1.0721,1.0721,1.0721,1.0721,1.0721,1.0721,1.0721,1.0721,0.0,0.0,0.0,0.0,0.0,0.0,0.0,0.0,0.0,0.0,-0.3702,-0.3212,-0.2984,-0.2808,0.0,0.0,0.0,0.0,0.0,0.0,0.0,0.0,0.0,0.0,0.0,-0.2667,-0.3057,-0.3792,-0.391,-0.3943,-0.388,-0.2696,-0.2055,-0.1836,-0.0556,0.0,0.0,0.0,0.0,0.0,0.0,0.0,0.0,0.0,0.0,0.0,0.3398,0.349,0.0,0.0,0.0,0.0,0.0,0.0,0.0,0.0,0.3993,0.3965,0.3946,0.0,0.311,0.3446,0.392,0.4411,0.0,0.4699,0.4682,0.4769,0.4887,0.5084,0.5467,0.5569,0.5382,0.4816,0.3693,0.2588,0.1838,0.0723,0.0,0.0,0.0,0.0,0.0,0.0,0.0,0.0,0.0,0.0656,0.211,0.4505,0.646,0.7979,1.0377,1.1562,1.1447,1.1328,1.1196,1.1053,1.1053,1.0887,1.0778,1.083,1.0816,1.0772,1.0734,1.0741,1.0772,1.0734,1.0721,1.0721,1.0721,1.0721,1.0721,1.0721,1.0721,1.0721,0.0,0.0,0.0,0.0,0.0,0.0,0.0,0.0,0.0,0.0,0.0,0.0,0.0,0.0,0.0,0.0,0.0,0.0,0.0,0.0,0.0,0.0,0.0,0.0,-0.249,-0.2493,-0.2956,-0.3897,-0.3954,-0.3949,-0.3803,-0.2713,-0.2009,-0.1634,-0.051,0.0,0.0024,0.0303,0.0607,0.0,0.1499,0.0,0.0,0.0,0.0,0.0,0.3723,0.3699,0.0,0.3758,0.3693,0.3638,0.0,0.0,0.0,0.0,0.4277,0.4379,0.447,0.4228,0.3951,0.4013,0.433,0.4614,0.4685,0.459,0.4552,0.4748,0.0,0.5057,0.5508,0.5183,0.484,0.4743,0.3272,0.1894,0.1106,0.0408,0.0,0.0,0.0,0.0,0.0,0.0,0.0,0.0,0.0,0.0875,0.2762,0.4721,0.6677,0.8631,1.0534,1.1474,1.1392,1.1307,1.1158,1.088,1.088,1.0799,1.0724,1.0806,1.0799,1.0721,1.0721,1.0721,1.0721,1.0721,1.0721,1.0721,1.0721,1.0721,1.0721,1.0721,1.0721,1.0721,0.0,0.0,0.0,0.0,0.0,0.0,0.0,0.0,0.0,0.0,0.0,0.0,0.0,0.0,0.0,0.0,0.0,0.0,0.0,0.0,0.0,0.0,0.0,-0.1602,-0.2413,-0.2483,-0.301,-0.3994,-0.4018,-0.388,-0.3541,-0.2663,-0.1786,-0.0906,-0.029,0.0,0.0047,0.0637,0.0943,0.1127,0.2262,0.0,0.0,0.0,0.0,0.0,0.0,0.0,0.0,0.395,0.3839,0.3679,0.3907,0.0,0.0,0.0,0.0,0.0,0.4484,0.4672,0.4802,0.484,0.4785,0.4755,0.486,0.0,0.0,0.0,0.0,0.4897,0.5363,0.4573,0.3944,0.4306,0.2701,0.1035,0.0115,0.0,0.0,0.0,0.0,0.0,0.0,0.0,0.0,0.0,0.0292,0.1311,0.3271,0.5156,0.7106,0.904,1.0593,1.1369,1.1324,1.1324,1.1199,1.088,1.0857,1.0779,1.0721,1.0721,1.0721,1.0721,1.0721,1.0721,1.0721,1.0721,1.0721,1.0721,1.0721,1.0721,1.0721,1.0721,1.0721,1.0721,0.0,0.0,0.0,0.0,0.0,0.0,0.0,0.0,0.0,0.0,0.0,0.0,0.0,0.0,0.0,0.0,0.0,0.0,0.0,0.0,0.0,0.0,-0.0953,-0.1314,-0.2071,-0.2474,-0.3115,-0.3994,-0.4126,-0.4217,-0.4294,-0.3042,-0.1635,-0.0176,-0.0047,0.0,0.0045,0.0633,0.1196,0.1711,0.2413,0.0,0.0,0.0,0.0,0.0,0.0,0.0,0.0,0.3987,0.3904,0.3768,0.3812,0.0,0.0,0.0,0.0,0.0,0.4644,0.4982,0.5173,0.4682,0.4711,0.4857,0.4752,0.4884,0.0,0.0,0.0,0.4246,0.4586,0.38,0.3217,0.3653,0.2591,0.1297,0.0188,0.0,0.0,0.0,0.0,0.0,0.0,0.0,0.0,0.0,0.1529,0.3271,0.5229,0.7183,0.9093,1.0928,1.1258,1.127,1.0951,1.0948,1.0924,1.088,1.0749,1.0744,1.0721,1.0721,1.0721,1.0721,1.0721,1.0721,1.0721,1.0721,1.0721,1.0721,1.0721,1.0721,1.0721,1.0721,1.0721,1.0721,0.0,0.0,0.0,0.0,0.0,0.0,0.0,0.0,0.0,0.0,0.0,0.0,0.0,0.0,0.0,0.0,0.0,0.0,0.0,0.0,0.0,-0.1006,-0.1636,-0.2147,-0.2489,-0.2699,-0.3294,-0.426,-0.4328,-0.444,-0.4582,-0.306,-0.1506,0.0025,0.0349,0.0477,0.0555,0.1488,0.2033,0.2351,0.0,0.0,0.0,0.0,0.0,0.0,0.0,0.0,0.0,0.0,0.3866,0.3726,0.3866,0.0,0.0,0.0,0.0,0.0,0.4556,0.4504,0.4342,0.3961,0.4204,0.4348,0.3761,0.3574,0.3563,0.0,0.0,0.3269,0.359,0.2748,0.1939,0.1713,0.1174,0.0658,0.0064,0.0,0.0,0.0,0.0,0.0,0.0,0.0,0.0,0.0,0.182,0.3778,0.5665,0.7616,0.9518,1.1325,1.1311,1.1202,1.1067,1.0904,1.0759,1.0756,1.0755,1.0721,1.0721,1.0721,1.0721,1.0721,1.0721,1.0721,1.0721,1.0721,1.0721,1.0721,1.0721,1.0721,1.0721,1.0721,1.0721,1.0721,0.0,0.0,0.0,0.0,0.0,0.0,0.0,0.0,0.0,0.0,0.0,0.0,0.0,0.0,0.0,0.0,0.0,0.0,0.0,0.0,-0.1034,-0.1294,-0.2335,-0.2939,-0.2994,-0.3091,-0.3592,-0.4491,-0.4491,-0.4381,-0.4164,-0.2684,-0.1213,0.0224,0.0695,0.0979,0.1169,0.226,0.2715,0.2816,0.0,0.0,0.0,0.0,0.0,0.0,0.0,0.0,0.0,0.0,0.0,0.0,0.0,0.0,0.0,0.4127,0.4244,0.4274,0.428,0.3988,0.3556,0.2975,0.334,0.3644,0.2827,0.2509,0.2409,0.2558,0.2434,0.2356,0.2565,0.1698,0.0767,0.0114,0.0,0.0,0.0,0.0,0.0,0.0,0.0,0.0,0.0,0.0,0.0,0.0,0.2171,0.418,0.5709,0.7993,0.993,1.1221,1.1175,1.1094,1.106,1.0833,1.0738,1.0772,1.0738,1.0721,1.0721,1.0721,1.0721,1.0721,1.0721,1.0721,1.0721,1.0721,1.0721,1.0721,1.0721,1.0721,1.0721,1.0721,1.0721,1.0721,0.0,0.0,0.0,0.0,0.0,0.0,0.0,0.0,0.0,0.0,0.0,0.0,0.0,0.0,0.0,0.0,0.0,0.0,0.0,0.0,-0.1205,-0.1911,-0.2557,-0.3015,-0.3279,-0.3689,-0.41,-0.4491,-0.4491,-0.3879,-0.2631,-0.1777,-0.0586,0.0835,0.089,0.1208,0.177,0.2433,0.2761,0.2929,0.342,0.0,0.0,0.0,0.0,0.0,0.0,0.0,0.0,0.0,0.0,0.0,0.0,0.0,0.4167,0.4187,0.4341,0.4369,0.382,0.3804,0.3572,0.1877,0.2145,0.2757,0.255,0.2697,0.2848,0.2862,0.2239,0.1692,0.1699,0.0827,0.0055,0.0,0.0,0.0,0.0,0.0,0.0,0.0,0.0,0.0,0.0,0.0,0.0,0.0,0.3341,0.5489,0.5628,0.9081,1.099,1.0917,1.09,1.083,1.0755,1.0731,1.0792,1.0863,1.0789,1.0721,1.0721,1.0721,1.0721,1.0721,1.0721,1.0721,1.0721,1.0721,1.0721,1.0721,1.0721,1.0721,1.0721,1.0721,1.0721,1.0721,0.0,0.0,0.0,0.0,0.0,0.0,0.0,0.0,0.0,0.0,0.0,0.0,0.0,0.0,0.0,0.0,0.0,0.0,0.0,0.0,-0.175,-0.2115,-0.3143,-0.3807,-0.4044,-0.4102,-0.4281,-0.4634,-0.4172,-0.3444,-0.248,-0.1584,-0.0626,0.0357,0.073,0.1228,0.183,0.245,0.2948,0.3371,0.3708,0.3897,0.0,0.0,0.0,0.0,0.0,0.0,0.0,0.0,0.4133,0.4112,0.4324,0.4294,0.4214,0.4355,0.4088,0.3716,0.3483,0.282,0.2026,0.1361,0.1115,0.1002,0.0942,0.1012,0.1083,0.1093,0.0831,0.0587,0.0587,0.0278,0.0,0.0,0.0,0.0,0.0,0.0,0.0,0.0,0.0,0.0,0.0,0.0,0.0495,0.1563,0.4144,0.6083,0.7237,0.9793,1.1097,1.0887,1.088,1.0806,1.0721,1.0721,1.0751,1.0806,1.0748,1.0721,1.0721,1.0721,1.0721,1.0721,1.0721,1.0721,1.0721,1.0721,1.0721,1.0721,1.0721,1.0721,1.0721,1.0721,1.0721,1.0721,0.0,0.0,0.0,0.0,0.0,0.0,0.0,0.0,0.0,0.0,0.0,0.0,0.0,0.0,0.0,0.0,0.0,0.0,0.0,-0.1034,-0.1718,-0.1858,-0.291,-0.3705,-0.415,-0.401,-0.4167,-0.4648,-0.3634,-0.2796,-0.2027,-0.1174,-0.0375,0.031,0.0726,0.1231,0.1831,0.224,0.2796,0.3401,0.3521,0.3702,0.0,0.0,0.0,0.0,0.0,0.0,0.0,0.0,0.4183,0.4195,0.4426,0.4395,0.4281,0.4155,0.3732,0.3204,0.2732,0.1873,0.1049,0.0827,0.0375,0.0,0.0,0.0,0.0,0.0,0.0,0.0,0.0,0.0,0.0,0.0,0.0,0.0,0.0,0.0,0.0,0.0,0.0,0.0,0.0,0.0,0.0767,0.2588,0.4435,0.635,0.8107,1.0011,1.0978,1.0813,1.0809,1.0759,1.0721,1.0721,1.0721,1.0721,1.0721,1.0721,1.0721,1.0721,1.0721,1.0721,1.0721,1.0721,1.0721,1.0721,1.0721,1.0721,1.0721,1.0721,1.0721,1.0721,1.0721,1.0721,0.0,0.0,0.0,0.0,0.0,0.0,0.0,0.0,0.0,0.0,0.0,0.0,0.0,0.0,0.0,0.0,0.0,0.0,0.0,-0.0561,-0.0953,-0.1106,-0.1687,-0.2445,-0.3367,-0.3317,-0.368,-0.4491,-0.2954,-0.1807,-0.1086,-0.034,0.0307,0.0883,0.0893,0.1233,0.178,0.1786,0.2209,0.2869,0.2746,0.321,0.3998,0.0,0.0,0.0,0.0,0.0,0.0,0.0,0.4345,0.4491,0.4491,0.4491,0.4322,0.3539,0.3287,0.2954,0.1507,0.1086,0.0907,0.0166,0.0,0.0,0.0,0.0,0.0,0.0,0.0,0.0,0.0,0.0,0.0,0.0,0.0,0.0,0.0,0.0,0.0,0.0,0.0,0.0,0.0,0.0,0.076,0.2586,0.436,0.6201,0.7919,0.9716,1.0721,1.0721,1.0721,1.0721,1.0721,1.0721,1.0721,1.0721,1.0721,1.0721,1.0721,1.0721,1.0721,1.0721,1.0721,1.0721,1.0721,1.0721,1.0721,1.0721,1.0721,1.0721,1.0721,1.0721,1.0721,1.0721,0.0,0.0,0.0,0.0,0.0,0.0,0.0,0.0,0.0,0.0,0.0,0.0,0.0,0.0,0.0,0.0,0.0,0.0,0.0,-0.0645,-0.1053,-0.1107,-0.2318,-0.285,-0.2563,-0.2538,-0.2926,-0.3735,-0.2174,-0.131,-0.1071,-0.0344,0.0104,0.0273,0.0276,0.0605,0.1158,0.1169,0.1544,0.2137,0.2195,0.2664,0.3369,0.0,0.0,0.0,0.0,0.0,0.0,0.0,0.0,0.0,0.4491,0.4125,0.3622,0.337,0.2565,0.1656,0.1208,0.0731,0.028,0.0073,0.0,0.0,0.0,0.0,0.0,0.0,0.0,0.0,0.0,0.0,0.0,0.0,0.0,0.0,0.0,0.0,0.0,0.0,0.0,0.0,0.0,0.0,0.1287,0.4345,0.5119,0.6711,0.9768,1.0405,1.0721,1.0721,1.0721,1.0721,1.0721,1.0721,1.0721,1.0721,1.0721,1.0721,1.0721,1.0721,1.0721,1.0721,1.0721,1.0721,1.0721,1.0721,1.0721,1.0721,1.0721,1.0721,1.0721,1.0721,1.0721,1.0721,0.0,0.0,0.0,0.0,0.0,0.0,0.0,0.0,0.0,0.0,0.0,0.0,0.0,0.0,0.0,0.0,0.0,0.0,0.0,-0.0424,-0.0659,-0.0669,-0.1546,-0.1965,-0.1757,-0.1758,-0.2009,-0.2482,-0.1563,-0.1098,-0.1088,-0.0647,-0.0426,-0.0439,-0.0444,-0.0079,0.0553,0.0544,0.0901,0.1442,0.1531,0.1976,0.2629,0.0,0.0,0.0,0.0,0.0,0.0,0.0,0.0,0.0,0.4491,0.3959,0.3234,0.2954,0.2037,0.1045,0.074,0.0329,0.0,0.0,0.0,0.0,0.0,0.0,0.0,0.0,0.0,0.0,0.0,0.0,0.0,0.0,0.0,0.0,0.0,0.0,0.0,0.0,0.0,0.0,0.0,0.0,0.1478,0.5096,0.5431,0.6967,1.0518,1.0721,1.0721,1.0721,1.0721,1.0721,1.0721,1.0721,1.0721,1.0721,1.0721,1.0721,1.0721,1.0721,1.0721,1.0721,1.0721,1.0721,1.0721,1.0721,1.0721,1.0721,1.0721,1.0721,1.0721,1.0721,1.0721,1.0721,0.0,0.0,0.0,0.0,0.0,0.0,0.0,0.0,0.0,0.0,0.0,0.0,0.0,0.0,0.0,0.0,0.0,0.0,0.0,0.0,0.0,0.0,0.0,-0.0353,-0.1089,-0.1034,-0.1006,-0.1006,-0.1062,-0.11,-0.1094,-0.1157,-0.1154,-0.1094,-0.1102,-0.0699,0.0,0.0,0.0321,0.0827,0.0826,0.1196,0.1836,0.2687,0.0,0.0,0.0,0.0,0.0,0.0,0.0,0.0,0.4491,0.3901,0.3065,0.2397,0.1619,0.0852,0.0183,0.0,0.0,0.0,0.0,0.0,0.0,0.0,0.0,0.0,0.0,0.0,0.0,0.0,0.0,0.0,0.0,0.0,0.0,0.0,0.0,0.0,0.0,0.0,0.0,0.0,0.1475,0.5085,0.542,0.6949,1.0478,1.0694,1.0694,1.068,1.068,1.0687,1.07,1.0687,1.0687,1.07,1.0687,1.068,1.068,1.0707,1.0721,1.0721,1.0721,1.0721,1.0721,1.0721,1.0721,1.0721,1.0721,1.0721,1.0721,1.0721,1.0721,1.0721,0.0,0.0,0.0,0.0,0.0,0.0,0.0,0.0,0.0,0.0,0.0,0.0,0.0,0.0,0.0,0.0,0.0,0.0,0.0,0.0,0.0,0.0,0.0,-0.0334,-0.109,-0.0532,-0.0224,-0.0224,-0.0811,-0.1113,-0.1106,-0.1696,-0.1668,-0.1106,-0.1086,-0.0699,0.0,0.0,0.0083,0.0194,0.0193,0.063,0.134,0.2091,0.2758,0.0,0.0,0.0,0.0,0.0,0.0,0.0,0.4491,0.3539,0.2397,0.2259,0.1256,0.0201,0.0032,0.0,0.0,0.0,0.0,0.0,0.0,0.0,0.0,0.0,0.0,0.0,0.0,0.0,0.0,0.0,0.0,0.0,0.0,0.0,0.0,0.0,0.0,0.0,0.0,0.0,0.1454,0.4879,0.5339,0.6886,1.0186,1.048,1.049,1.0378,1.0375,1.0429,1.0538,1.0429,1.0429,1.0538,1.0429,1.0375,1.0382,1.0616,1.0721,1.0721,1.0721,1.0721,1.0721,1.0721,1.0721,1.0721,1.0721,1.0721,1.0721,1.0721,1.0721,1.0721,0.0,0.0,0.0,0.0,0.0,0.0,0.0,0.0,0.0,0.0,0.0,0.0,0.0,0.0,0.0,0.0,0.0,0.0,0.0,0.0,0.0,0.0,0.0,-0.0168,-0.056,-0.0196,0.0,0.0,-0.0727,-0.109,-0.1118,-0.148,-0.148,-0.109,-0.109,-0.0699,0.0,0.0,0.0,0.0,0.0,0.0224,0.0643,0.1396,0.212,0.2871,0.3649,0.0,0.0,0.0,0.0,0.0,0.0,0.0,0.212,0.1786,0.0867,0.0,0.0,0.0,0.0,0.0,0.0,0.0,0.0,0.0,0.0,0.0,0.0,0.0,0.0,0.0,0.0,0.0,0.0,0.0,0.0,0.0,0.0,0.0,0.0,0.0,0.0,0.0,0.1108,0.3769,0.4742,0.6406,0.8994,0.996,1.0354,1.0283,1.028,1.0317,1.0388,1.0317,1.0317,1.0388,1.0317,1.028,1.0287,1.0439,1.051,1.0514,1.0582,1.0612,1.0616,1.069,1.0721,1.0721,1.0721,1.0721,1.0721,1.0721,1.0721,1.0721,0.0,0.0,0.0,0.0,0.0,0.0,0.0,0.0,0.0,0.0,0.0,0.0,0.0,0.0,0.0,0.0,0.0,0.0,0.0,0.0,0.0,0.0196,0.0056,0.0,0.0,0.0,0.0,0.0,-0.0615,-0.09,0.0,0.0,-0.1229,-0.109,-0.109,-0.0699,0.0,0.0,0.0,0.0,0.0,0.0,0.0084,0.0811,0.148,0.212,0.2843,0.3539,0.4098,0.4098,0.0,0.0,0.0,0.0,0.2259,0.1507,0.0755,0.0172,0.0032,0.0,0.0,0.0,0.0,0.0,0.0,0.0,0.0,0.0,0.0,0.0,0.0,0.0,0.0,0.0,0.0,0.0,0.0,0.0,0.0,0.0,0.0,0.0,0.0,0.0,0.0771,0.2499,0.4159,0.5876,0.7645,0.9326,1.0229,1.0202,1.0202,1.0212,1.0239,1.0215,1.0215,1.0239,1.0212,1.0202,1.0202,1.0202,1.0232,1.0287,1.0429,1.049,1.0504,1.0656,1.0721,1.0721,1.0721,1.0721,1.0721,1.0721,1.0721,1.0721,0.0,0.0,0.0,0.0,0.0,0.0,0.0,0.0,0.0,0.0,0.0,0.0,0.0,0.0,0.0,0.0,0.0,0.0,0.0,0.0,0.0,0.0922,0.0336,0.0,0.0,0.0,0.0,0.0,-0.0112,0.0,0.0,0.0,0.0,-0.109,0.0,-0.0699,0.0,0.0,0.0,0.0,0.0,0.0,0.0084,0.0811,0.0,0.134,0.2091,0.2425,0.2508,0.2508,0.2926,0.0,0.0,0.0,0.301,0.2258,0.1535,0.08,0.0189,0.0,0.0,0.0,0.0,0.0,0.0,0.0,0.0,0.0,0.0,0.0,0.0,0.0,0.0,0.0,0.0,0.0,0.0,0.0,0.0,0.0,0.0,0.0,0.0,0.0,0.0696,0.24,0.4097,0.5759,0.735,0.9128,0.9957,0.9886,0.9883,0.9947,1.0017,0.9947,0.9951,1.0014,0.9947,0.9883,0.9883,0.9883,1.0029,1.0287,1.0429,1.049,1.0504,1.0656,1.0721,1.0721,1.0721,1.0721,1.0721,1.0721,1.0721,1.0721,0.0,0.0,0.0,0.0,0.0,0.0,0.0,0.0,0.0,0.0,0.0,0.0,0.0,0.0,0.0,0.1023,0.0381,0.0185,0.06,0.061,0.0755,0.109,0.0392,0.0,0.0,0.0,0.0,0.0,0.0,0.0,0.0,-0.1556,-0.1384,0.0,0.0,0.0,0.0,0.0,0.0,0.0,0.0,0.0,0.0,0.0,0.0,0.0,0.0,0.0,0.2202,0.2202,0.2704,0.3231,0.2813,0.0,0.0,0.0,0.1675,0.0926,0.02,0.0,0.0,0.0,0.0,0.0,0.0,0.0,0.0,0.0,0.0,0.0,0.0,0.0,0.0,0.0,0.0,0.0,0.0,0.0,0.0,0.0,0.0,0.0,0.0,0.0,0.0309,0.1058,0.3512,0.5271,0.5955,0.8462,0.989,0.9822,0.9822,0.9852,0.9859,0.9852,0.9852,0.9859,0.9852,0.9822,0.9822,0.9822,0.9897,1.0032,1.0178,1.0293,1.0385,1.0531,1.0643,1.0721,1.0721,1.0721,1.0721,1.0721,1.0721,1.0721,0.0,0.0,0.0,0.0,0.0,0.0,0.0,0.0,0.0,0.0,0.0,0.0,0.0,0.0,0.0,0.0,0.0471,0.03,0.106,0.109,0.109,0.109,0.0392,0.0,0.0,0.0,0.0,0.0,0.0,0.0,-0.1185,-0.1433,-0.0969,0.0,-0.0292,-0.0249,0.0,0.0,0.0,0.0,0.0,0.0,0.0,0.0,0.0,0.0,0.0,0.0,0.0,0.0,0.2258,0.2926,0.2369,0.2843,0.0,0.0,0.0,0.0927,0.0202,0.0,0.0,0.0,0.0,0.0,0.0,0.0,0.0,0.0,0.0,0.0,0.0,0.0,0.0,0.0,0.0,0.0,0.0,0.0,0.0,0.0,0.0,0.0,0.0,0.0,0.0,0.0,0.3019,0.4888,0.4884,0.8022,0.9822,0.9822,0.9822,0.9822,0.9822,0.9822,0.9822,0.9822,0.9822,0.9822,0.9822,0.9822,0.9822,0.9829,0.992,1.0137,1.029,1.0432,1.0582,1.0721,1.0721,1.0721,1.0721,1.0721,1.0721,1.0721,0.0,0.0,0.0,0.0,0.0,0.0,0.0,0.0,0.0,0.0,0.0,0.0,0.4375,0.2958,0.2033,0.2125,0.0835,0.0307,0.1062,0.109,0.109,0.109,0.0392,0.0,0.0,0.0,0.0,0.0,0.0,0.0,-0.0097,-0.0932,-0.084,-0.0036,-0.1062,-0.0958,0.0,0.0,0.0,0.0,0.0,0.0,0.0,0.0,0.0,0.0,0.0,0.0,0.0,0.0,0.0,0.2259,0.2204,0.3231,0.4294,0.0,0.0,0.0,0.0214,0.0,0.0,0.0,0.0,0.0,0.0,0.0,0.0,0.0,0.0,0.0,0.0,0.0,0.0,0.0,0.0,0.0,0.0,0.0,0.0,0.0,0.0,0.0,0.0,0.0,0.0,0.0,0.3041,0.4925,0.4931,0.8038,0.9822,0.9822,0.9822,0.9822,0.9822,0.9822,0.9822,0.9822,0.9822,0.9822,0.9822,0.9822,0.9822,0.9829,0.992,1.0137,1.029,1.0432,1.0582,1.0721,1.0721,1.0721,1.0721,1.0721,1.0721,1.0721,0.0,0.0,0.0,0.0,0.0,0.0,0.0,0.0,0.0,0.0,0.0,0.0,0.0,0.3295,0.2722,0.2781,0.2369,0.2232,0.2508,0.2063,0.1814,0.1814,0.0643,0.0,0.0,0.0,0.0,0.0,0.0,-0.035,-0.1033,-0.1346,-0.1337,-0.105,-0.1309,-0.0868,0.0,0.0,0.0,0.0,0.0,0.0,0.0,0.0,0.0,0.0,0.0,0.0,0.0,0.0,0.0,0.0,0.0,0.0,0.0,0.0,0.2232,0.1529,0.0333,0.0,0.0,0.0,0.0,0.0,0.0,0.0,0.0,0.0,0.0,0.0,0.0,0.0,0.0,0.0,0.0,0.0,0.0,0.0,0.0,0.0,0.0,0.0,0.0,0.0,0.0,0.0,0.298,0.4796,0.4788,0.7783,0.954,0.954,0.9635,0.973,0.9819,0.973,0.973,0.9822,0.9822,0.9822,0.9822,0.9822,0.9822,0.9825,0.988,0.9988,1.0144,1.0293,1.0443,1.0582,1.068,1.0721,1.0721,1.0721,1.0721,1.0721,0.0,0.0,0.0,0.0,0.0,0.0,0.0,0.0,0.0,0.0,0.0,0.0,0.0,0.0,0.2322,0.2079,0.2367,0.2454,0.2202,0.1952,0.173,0.148,0.0532,0.0,0.0,0.0,0.0,0.0,0.0,0.0,0.0,-0.1365,-0.1342,-0.1079,-0.1214,-0.0813,0.0,0.0,0.0,0.0,0.0,0.0,0.0,0.0,0.0,0.0,0.0,0.0,0.0,0.0,0.0,0.0,0.0,0.0,0.0,0.0,0.0,0.0,0.0414,0.0,0.0,0.0,0.0,0.0,0.0,0.0,0.0,0.0,0.0,0.0,0.0,0.0,0.0,0.0,0.0,0.0,0.0,0.0,0.0,0.0,0.0,0.0,0.0,0.0,0.0,0.0,0.293,0.4712,0.4707,0.7713,0.9381,0.9381,0.9479,0.9578,0.9673,0.9632,0.9656,0.9751,0.9798,0.9822,0.9822,0.9822,0.9822,0.9822,0.9822,0.9845,0.9994,1.0158,1.0317,1.0504,1.0605,1.0673,1.0721,1.0721,1.0721,1.0721,0.0,0.0,0.0,0.0,0.0,0.0,0.0,0.0,0.0,0.0,0.0,0.0,0.0,0.0,0.0,0.014,0.0727,0.0838,0.0112,0.0727,0.0783,0.0056,0.0,0.0,0.0,0.0,0.0,0.0,0.0,0.0,0.0,0.0,-0.0806,-0.0031,-0.0895,-0.0794,0.0,0.0,0.0,0.0,0.0,0.0,0.0,0.0,0.0,0.0,0.0,0.0,0.0,0.0,0.0,0.0,0.0,0.0,0.0,0.0,0.0,0.0,0.0,0.0,0.0,0.0,0.0,0.0,0.0,0.0,0.0,0.0,0.0,0.0,0.0,0.0,0.0,0.0,0.0,0.0,0.0,0.0,0.0,0.0,0.0,0.0,0.0,0.0,0.0,0.0056,0.2949,0.4688,0.4745,0.7714,0.9371,0.9374,0.9371,0.9374,0.9388,0.953,0.9608,0.9615,0.9754,0.9822,0.9822,0.9822,0.9822,0.9822,0.9822,0.9845,0.998,0.9984,1.0222,1.0487,1.049,1.0585,1.0721,1.0721,1.0721,1.0721,0.0,0.0,0.0,0.0,0.0,0.0,0.0,0.0,0.0,0.0,0.0,0.0,0.2202,0.2009,0.1814,0.1619,0.1786,0.1814,0.1619,0.1284,0.1006,0.0811,0.028,0.0,0.0,0.0,0.0,0.0,0.0,0.0,0.0,-0.0256,0.0,0.0,-0.024,-0.0238,0.0,0.0,0.0,0.0,0.0,0.0,0.0,0.0,0.0,0.0,0.0,0.0,0.0,0.0,0.0122,0.0524,0.0,0.0,0.0,0.0,0.0,0.0,0.0252,0.0,0.0,0.0,0.0,0.0,0.0,0.0,0.0,0.0,0.0,0.0,0.0,0.0,0.0,0.0,0.0,0.0,0.0,0.0,0.0,0.0,0.0,0.0,0.0,0.0,0.0443,0.1509,0.3423,0.5006,0.607,0.7962,0.911,0.9268,0.9117,0.9218,0.9544,0.9479,0.9551,0.9764,0.9802,0.9822,0.9822,0.9822,0.9822,0.9822,0.9822,0.9846,0.9893,0.9943,1.0161,1.0348,1.0453,1.0585,1.0721,1.0721,1.0721,1.0721,0.0,0.0,0.0,0.0,0.0,0.0,0.0,0.0,0.0,0.0,0.0,0.0,0.1281,0.1283,0.1283,0.1283,0.1295,0.1284,0.1284,0.0867,0.0643,0.0643,0.0224,0.0,0.0,0.0,0.0,0.0,0.0,0.0,0.0,0.0,0.0,0.0,0.0,0.0,0.0,0.0,0.0,0.0,0.0,0.0,0.0,0.0,0.0,0.0,0.0,0.0,0.0,0.0,0.0218,0.0,0.0,0.0,0.0,0.0,0.0,0.0,0.0,0.0,0.0,0.0,0.0,0.0,0.0,0.0,0.0,0.0,0.0,0.0,0.0,0.0,0.0,0.0,0.0,0.0,0.0,0.0,0.0,0.0,0.0,0.0,0.0,0.0487,0.1197,0.2156,0.4145,0.5969,0.7457,0.8346,0.8882,0.8964,0.8947,0.9006,0.9327,0.93,0.9405,0.9639,0.9703,0.9764,0.9822,0.9822,0.9822,0.9825,0.9886,0.9856,0.9862,0.995,1.0141,1.029,1.0371,1.0534,1.0721,1.0721,1.0721,1.0721,0.0,0.0,0.0,0.0,0.0,0.0,0.0,0.0,0.0,0.0,0.0453,0.0,0.0,0.0,0.0,0.0,0.0,0.0,0.0,0.0,0.0,0.0,0.0,0.0,0.0,0.0,0.0,0.0,0.0,0.0,0.0,0.0,0.0,0.0,0.0,0.0,0.0,0.0,0.0,0.0,0.0,0.0,0.0,0.0,0.0,0.0,0.0,0.0,0.0,0.0,0.0495,0.0,0.0,0.0,0.0,0.0,0.1028,0.0,0.0,0.0,0.0,0.0,0.0,0.0,0.0,0.0,0.0,0.0,0.0,0.0,0.0,0.0,0.0,0.0,0.0,0.0,0.0,0.0,0.0,0.0,0.0,0.0053,0.0213,0.1327,0.2188,0.2608,0.5156,0.7271,0.8629,0.8686,0.8693,0.871,0.8842,0.8875,0.8905,0.9089,0.9286,0.9384,0.9537,0.9676,0.9798,0.9815,0.9822,0.9829,0.9903,0.9963,0.9963,0.998,1.0151,1.03,1.0287,1.046,1.0721,1.0721,1.0721,1.0721,0.0,0.0,0.0,0.0,0.0,0.0,0.0,0.0,0.0,0.0,0.0454,0.0,0.0,0.0,0.0,0.0,0.0,0.0,0.0,0.0,0.0,0.0,0.0,0.0,0.0,0.0,0.0,0.0,0.0,0.0,0.0,0.0,0.0,0.0,0.0,0.0,0.0,0.0,0.0,0.0,0.0,0.0,0.0,0.0,0.0,0.0,0.0,0.0,0.0,0.0,0.0505,0.1099,0.0,0.0,0.0,0.1144,0.0,0.0,0.0,0.0,0.0,0.0,0.0,0.0,0.0,0.0,0.0,0.0,0.0,0.0,0.0,0.0,0.0,0.0,0.0,0.0,0.0,0.0,0.0,0.0,0.0,0.0411,0.1507,0.1821,0.2984,0.532,0.7137,0.8259,0.8526,0.8526,0.8584,0.8706,0.8737,0.8869,0.9166,0.9193,0.9286,0.9384,0.9537,0.9625,0.9656,0.9768,0.9822,0.9822,0.9852,0.9866,0.9876,0.9936,1.0209,1.0439,1.0324,1.046,1.0721,1.0721,1.0721,1.0721,0.0,0.0,0.0,0.0,0.0,0.0,0.0,0.0,0.0,0.0,0.0,0.0,0.0,0.0,0.0,0.0,0.0,0.0,0.0,0.0,0.0,0.0,0.0,0.0,0.0,0.0,0.0,0.0,0.0,0.0,0.0,0.0,0.0,0.0,0.0,0.0,0.0,0.0,0.0,0.0,0.0,0.0,0.0,0.0,0.0,0.0,0.0,0.0,0.0,0.0,0.0237,0.0545,0.056,0.0566,0.0545,0.0,0.0281,0.0,0.0,0.0,0.0,0.0,0.0,0.0,0.0,0.0,0.0,0.0,0.0,0.0,0.0,0.0,0.0,0.0,0.0,0.0,0.0,0.0,0.0,0.0,0.0,0.0536,0.1884,0.2603,0.4168,0.7102,0.7956,0.8377,0.8377,0.8377,0.8445,0.8591,0.8669,0.8818,0.9045,0.9045,0.912,0.9326,0.9344,0.9462,0.9612,0.9683,0.9754,0.9825,0.99,0.9872,0.9886,1.01,1.0293,1.0483,1.0415,1.0524,1.0721,1.0721,1.0721,1.0721,0.1786,0.0,0.0,0.0,0.0,0.0,0.0,0.0,0.0,0.0,0.0,0.0,0.0,0.0,0.0,0.0,0.0,0.0,0.0,0.0,0.0,0.0,0.0,0.0,0.0,0.0,0.0,0.0,0.0,0.0,0.0,0.0,0.0,0.0,0.0,0.0,0.0,0.0,0.0,0.0,0.0,0.0,0.0,0.0,0.0,0.0,0.0,0.0,0.0,0.0,0.0,0.0,0.0,0.0,0.0,0.0,0.0,0.0,0.0,0.0,0.0,0.0,0.0,0.0,0.0,0.0,0.0,0.0242,0.0403,0.0465,0.0284,0.0251,0.0252,0.022,0.0271,0.0365,0.0458,0.0523,0.0497,0.0321,0.0456,0.1101,0.25,0.3881,0.5638,0.7969,0.8143,0.8153,0.818,0.8211,0.8292,0.8435,0.8587,0.874,0.8838,0.8868,0.8998,0.9169,0.9197,0.93,0.9568,0.9595,0.9686,0.9829,0.9889,0.9943,0.9957,1.0205,1.0348,1.0453,1.048,1.0585,1.0721,1.0721,1.0721,1.0721,0.0252,0.0196,0.0,0.0,0.0,0.0,0.0,0.0,0.0,0.0,0.0,0.0,0.0,0.0,0.0,0.0,0.0,0.0,0.0,0.0,0.0,0.0,0.0,0.0,0.0,0.0,0.0,0.0,0.0,0.0,0.0,0.0,0.0,0.0,0.0,0.0,0.0,0.0,0.0,0.0,0.0,0.0,0.0,0.0,0.0,0.0,0.0,0.0,0.0,0.0,0.0,0.0,0.0,0.0,0.0,0.0,0.0,0.0,0.0,0.0,0.0,0.0,0.0,0.0,0.0,0.0,0.1135,0.1156,0.0,0.2139,0.1317,0.0,0.0,0.0989,0.1217,0.1615,0.2128,0.2407,0.2265,0.1514,0.1996,0.3078,0.4828,0.6207,0.721,0.7662,0.7675,0.7729,0.7858,0.7991,0.8136,0.834,0.8431,0.8581,0.8733,0.8814,0.8892,0.8964,0.9093,0.9299,0.9412,0.9547,0.9686,0.9822,0.9839,0.9846,0.9869,1.0161,1.029,1.0317,1.0443,1.0585,1.0721,1.0721,1.0721,1.0721,0.0,0.0,0.0,0.0,0.0,0.0,0.0,0.0,0.0,0.0,0.0,0.0,0.0,0.0,0.0,0.0,0.0,0.0,0.0,0.0,0.0,0.0,0.0,0.0,0.0,0.0,0.0,0.0,0.0,0.0,0.0,0.0,0.0,0.0,0.0,0.0,0.0,0.0,0.0,0.0,0.0,0.0,0.0,0.0,0.0,0.0,0.0,0.0,0.0,0.0,0.0,0.0,0.0,0.0,0.0,0.0,0.0,0.0,0.0,0.0,0.0,0.0,0.0,0.0,0.0,0.029,0.0536,0.0539,0.0,0.0,0.0,0.0,0.0,0.0,0.1789,0.234,0.2573,0.3147,0.3222,0.2336,0.2516,0.3306,0.4857,0.6263,0.7143,0.7207,0.737,0.7533,0.7682,0.7828,0.8018,0.8313,0.8381,0.8428,0.8577,0.873,0.8808,0.8808,0.8957,0.9106,0.9309,0.9313,0.9476,0.9696,0.9696,0.9744,0.9839,1.0056,1.0198,1.0293,1.0436,1.0585,1.0721,1.0721,1.0721,1.0721,0.0,0.0,0.0,0.0,0.0,0.0,0.0,-0.0299,-0.0508,-0.0495,-0.0789,-0.1394,-0.2446,-0.1647,0.0,0.0,-0.1326,-0.0542,-0.0545,-0.0214,0.0,0.0,0.0,0.0,0.0,0.0,0.0,0.0,0.0,0.0,0.0,0.0,0.0,0.0,0.0,0.0,0.0,0.0,0.0,0.0,0.0,0.0,0.0,0.0,0.0,0.0,0.0,0.0,0.0,0.0,0.0,0.0,0.0,0.0,0.0,0.0,0.0,0.0,0.0,0.0,0.0,0.0,0.0,0.0,0.0,0.0186,0.0362,0.0372,0.0576,0.0,0.0,0.0,0.1792,0.2007,0.0,0.3238,0.3338,0.3991,0.4097,0.3222,0.3414,0.3962,0.4901,0.5997,0.6657,0.6742,0.698,0.721,0.7407,0.7631,0.7872,0.8136,0.8279,0.8371,0.8425,0.8615,0.871,0.8713,0.8811,0.9015,0.921,0.9255,0.9361,0.9612,0.9649,0.9727,0.9832,0.9923,1.0141,1.0293,1.0436,1.0585,1.0721,1.0721,1.0721,1.0721,0.0,0.0,0.0,0.0,0.0,0.0,0.0,-0.0984,-0.1737,-0.1734,-0.2765,-0.3612,-0.3921,-0.3763,-0.3792,0.0,-0.2788,-0.1918,-0.192,-0.0706,0.0,0.0,0.0,0.0,0.0,0.0,0.0,0.0,0.0,0.0,0.0,0.0,0.0,0.0,0.0,0.0,0.0,0.0,0.0,0.0,0.0,0.0,0.0,0.0,0.0,0.0,0.0,0.0,0.0,0.0,0.0,0.0,0.0,0.0,0.0,0.0,0.0,0.0,0.0,0.0,0.0,0.0,0.0,0.0,0.0,0.0668,0.1272,0.1243,0.2,0.2649,0.2771,0.283,0.0,0.0,0.0,0.0,0.0,0.5333,0.5215,0.4275,0.52,0.5862,0.5765,0.5929,0.6118,0.631,0.6457,0.663,0.6893,0.7366,0.7675,0.7821,0.8116,0.8323,0.833,0.8567,0.871,0.8713,0.8811,0.9015,0.9214,0.9306,0.9459,0.9615,0.9754,0.9819,0.9832,0.9923,1.0141,1.0293,1.0436,1.0585,1.0721,1.0721,1.0721,1.0721,0.0,0.0,0.0,0.0,0.0,-0.0301,-0.1175,-0.2282,-0.3154,-0.352,-0.3823,-0.4508,-0.5797,-0.4998,-0.4748,-0.5665,-0.3543,-0.2116,-0.2014,-0.0759,0.0,0.0,0.0,0.0,0.0,0.0,0.0,0.0,0.0,0.0,0.0,0.0,0.0,0.0,0.0,0.0,0.0,0.0,0.0,0.0,0.0,0.0,0.0,0.0,0.0,0.0,0.0,0.0,0.0,0.0,0.0,0.0,0.0,0.0,0.0,0.0,0.0,0.0,0.0,0.0,0.0,0.0,0.0,0.0,0.0,0.0231,0.0423,0.045,0.0676,0.1162,0.1899,0.0,0.0,0.0,0.0,0.0,0.0,0.5405,0.5356,0.5024,0.5346,0.56,0.5549,0.5647,0.5762,0.5849,0.6177,0.646,0.6617,0.7149,0.7516,0.7665,0.796,0.8116,0.8116,0.8411,0.856,0.8564,0.8818,0.8964,0.9015,0.9066,0.9225,0.9459,0.951,0.9639,0.9825,0.9876,0.9988,1.0141,1.0293,1.0439,1.0582,1.0683,1.0721,1.0721,0.0,0.0,0.0,0.0,-0.0409,-0.1,-0.1859,-0.3474,-0.4704,-0.5099,-0.5504,-0.6204,-0.7491,-0.6669,-0.6418,-0.7276,-0.5102,-0.3427,-0.2804,-0.1485,-0.0517,-0.0041,0.0,0.0,0.0,0.0,0.0,0.0,0.0,0.0,0.0,0.0,0.0,0.0,0.0,0.0,0.0,0.0,0.0,0.0,0.0,0.0,0.0,0.0,0.0,0.0,0.0,0.0,0.0,0.0,0.0,0.0,0.0,0.0,0.0,0.0,0.0,0.0,0.0,0.0,0.0,0.0,0.0,0.0,0.0,0.0,0.0,0.0,0.0309,0.0885,0.195,0.2908,0.0,0.0,0.0,0.0,0.0,0.5443,0.5457,0.5402,0.5395,0.5395,0.5395,0.5484,0.5542,0.5542,0.5911,0.6201,0.6308,0.6932,0.736,0.7512,0.7855,0.7988,0.7988,0.8333,0.8482,0.8486,0.8794,0.8885,0.8885,0.8991,0.912,0.9306,0.9415,0.9571,0.9751,0.9798,0.9849,1.0004,1.0219,1.0368,1.051,1.0663,1.0721,1.0721,0.0,0.0,0.0,0.0,-0.1088,-0.2032,-0.2091,-0.4475,-0.6331,-0.6445,-0.7675,-0.8655,-0.8905,-0.8672,-0.8548,-0.8871,-0.7205,-0.5567,-0.4262,-0.277,-0.1328,-0.0041,0.0,0.0,0.0,0.0,0.0,0.0,0.0,0.0,0.0,0.0,0.0,0.0,0.0,0.0,0.0,0.0,0.0,0.0,0.0,0.0,0.0,0.0,0.0,0.0,0.0,0.0,0.0,0.0,0.0,0.0,0.0,0.0,0.0,0.0,0.0,0.0,0.0,0.0,0.0,0.0,0.0,0.0,0.0,0.004,0.0081,0.0079,0.0919,0.1973,0.2981,0.4021,0.4999,0.0,0.0,0.0,0.0,0.5532,0.5569,0.5423,0.5399,0.5395,0.5395,0.5395,0.5395,0.5395,0.5633,0.5864,0.5973,0.6691,0.7207,0.7402,0.7801,0.7988,0.7988,0.8333,0.8482,0.8486,0.8794,0.8885,0.8888,0.9079,0.9204,0.9224,0.9469,0.9602,0.9618,0.9764,0.9845,0.999,1.0209,1.0358,1.051,1.0663,1.0721,1.0721,0.0,0.0,0.0,0.0,-0.1045,-0.2227,-0.3337,-0.509,-0.6827,-0.8291,-0.8961,-0.9432,-0.967,-0.8509,-0.8081,-0.9063,-0.5552,-0.3535,-0.4161,-0.1876,-0.0345,0.0,0.0,0.0,0.0,0.0,0.0,0.0,0.0,0.0,0.0,0.0,0.0,0.0,0.0,0.0,0.0,0.0,0.0,0.0,0.0,0.0,0.0,0.0,0.0,0.0,0.0,0.0,0.0,0.0,0.0,0.0,0.0,0.0,0.0,0.0,0.0,0.0,0.0,0.0,0.0,0.0,0.0,0.0,0.0,0.06,0.117,0.1182,0.1994,0.3055,0.4079,0.453,0.4999,0.0,0.0,0.0,0.0,0.5566,0.5576,0.5569,0.5463,0.5395,0.5395,0.5395,0.5395,0.5395,0.5633,0.582,0.5857,0.6633,0.7112,0.7156,0.7698,0.7988,0.7988,0.8333,0.8482,0.8486,0.8794,0.8885,0.8885,0.8977,0.9052,0.9221,0.9357,0.9503,0.9618,0.9764,0.9842,0.9893,1.0049,1.0266,1.051,1.0663,1.0721,1.0721,-0.0075,0.0,0.0,0.0,-0.1215,-0.2675,-0.4096,-0.547,-0.7081,-0.8957,-0.8891,-0.8913,-0.9677,-0.8285,-0.7557,-0.8226,-0.5114,-0.3155,-0.3302,-0.1768,-0.0612,-0.0049,0.0,0.0,0.0,0.0,0.0,0.0,0.0,0.0,0.0,0.0,0.0,0.0,0.0,0.0,0.0,0.0,0.0,0.0,0.0,0.0,0.0,0.0,0.0,0.0,0.0,0.0,0.0,0.0,0.0,0.0,0.0,0.0,0.0,0.0,0.0,0.0,0.0,0.0,0.0,0.0,0.0,0.0121,0.0678,0.1256,0.1846,0.2348,0.3233,0.4069,0.4693,0.5115,0.5544,0.0,0.0,0.0,0.0,0.5739,0.5735,0.5606,0.5569,0.5539,0.5405,0.5395,0.5395,0.5395,0.5633,0.58,0.58,0.6552,0.7034,0.7095,0.779,0.8109,0.7988,0.8465,0.8615,0.8486,0.8794,0.8885,0.8885,0.8885,0.9018,0.9217,0.9313,0.9466,0.9618,0.9764,0.9822,0.9842,1.0063,1.029,1.051,1.0663,1.0721,1.0721,-0.0451,-0.0261,-0.0184,-0.0047,-0.1604,-0.3236,-0.4255,-0.5707,-0.7236,-0.8726,-0.8273,-0.8243,-0.9352,-0.7911,-0.6886,-0.7092,-0.5009,-0.3261,-0.2289,-0.1886,-0.1236,-0.0051,0.0,0.0,0.0,0.0,0.0,0.0,0.0,0.0,0.0,0.0,0.0,0.0,0.0,0.0,0.0,0.0,0.0,0.0,0.0,0.0,0.0,0.0,0.0,0.0,0.0,0.0,0.0,0.0,0.0,0.0,0.0,0.0,0.0,0.0,0.0,0.0,0.0,0.0,0.0,0.0,0.0,0.0335,0.1513,0.19,0.2347,0.3561,0.4483,0.51,0.51,0.5762,0.6262,0.6105,0.6183,0.6197,0.5871,0.5945,0.0,0.565,0.5725,0.0,0.545,0.5426,0.5416,0.5395,0.5633,0.58,0.58,0.6519,0.695,0.7092,0.7834,0.8174,0.8049,0.8561,0.8764,0.8547,0.8811,0.8885,0.8885,0.8902,0.9035,0.9217,0.9337,0.9486,0.9618,0.9764,0.9822,0.9849,1.0137,1.0337,1.0483,1.0633,1.0704,1.0721,-0.1666,-0.1666,-0.1298,-0.0191,-0.2097,-0.3615,-0.3142,-0.5642,-0.752,-0.7501,-0.8829,-0.982,-0.9886,-0.7235,-0.5906,-0.6988,-0.3221,-0.1173,-0.2133,-0.1062,-0.0262,0.0,0.0,0.0,0.0,0.0,0.0,0.0,0.0,0.0,0.0,0.0,0.0,0.0,0.0,0.0,0.0,0.0,0.0,0.0,0.0,0.0,0.0,0.0,0.0,0.0,0.0,0.0,0.0,0.0,0.0,0.0,0.0,0.0,0.0,0.0,0.0,0.0,0.0,0.0,0.0,0.0,0.0,0.0336,0.1544,0.2423,0.3392,0.4601,0.5589,0.6231,0.6231,0.6277,0.633,0.6419,0.6358,0.6235,0.5979,0.5976,0.0,0.0,0.5786,0.5735,0.5566,0.5549,0.5532,0.5402,0.5633,0.58,0.58,0.6519,0.695,0.7092,0.7628,0.8055,0.8401,0.8509,0.8662,0.8804,0.8858,0.8885,0.8888,0.9062,0.9187,0.9224,0.9449,0.9585,0.9618,0.9764,0.9822,0.9839,0.9957,1.0181,1.0334,1.048,1.0612,1.0721,-0.2121,-0.1497,0.0,-0.1348,-0.3238,-0.4243,-0.2905,-0.5604,-0.7313,-0.6025,-0.6115,-0.6476,-0.7102,-0.5118,-0.3995,-0.4638,-0.1838,-0.0279,-0.1015,-0.0373,0.0,0.0,0.0,0.0,0.0,0.0,0.0,0.0,0.0,0.0,0.0,0.0,0.0,0.0,0.0,0.0,0.0,0.0,0.0,0.0,0.0,0.0,0.0,0.0,0.0,0.0,0.0,0.0,0.0,0.0,0.0,0.0,0.0,0.0,0.0,0.0,0.0,0.0,0.0,0.0,0.0,0.0,0.0,0.0304,0.154,0.2665,0.3809,0.5021,0.5987,0.6566,0.6525,0.6457,0.646,0.6566,0.6508,0.6385,0.6271,0.6261,0.6146,0.0,0.0,0.0,0.5542,0.561,0.564,0.5525,0.5681,0.5837,0.5915,0.6488,0.6912,0.7088,0.7733,0.8153,0.837,0.8729,0.8828,0.8821,0.8844,0.8885,0.8888,0.9086,0.9255,0.9344,0.951,0.9652,0.9724,0.9791,0.9822,0.9842,1.008,1.0215,1.0307,1.0527,1.0656,1.0721,-0.2726,-0.2029,-0.1856,-0.3089,-0.4628,-0.5045,-0.2993,-0.4951,-0.6112,-0.4419,-0.3543,-0.3426,-0.4448,-0.3358,-0.2526,-0.2526,-0.0968,0.0,0.0,0.0,0.0,0.0,0.0,0.0,0.0,0.0,0.0,0.0,0.0,0.0,0.0,0.0,0.0,0.0,0.0,0.0,0.0,0.0,0.0,0.0,0.0,0.0,0.0,0.0,0.0,0.0,0.0,0.0,0.0,0.0,0.0,0.0,0.0,0.0,0.0,0.0,0.0,0.0,0.0,0.0,0.0045,0.0308,0.0399,0.0759,0.2233,0.3309,0.433,0.5534,0.626,0.6675,0.6583,0.6555,0.6532,0.6719,0.662,0.6549,0.6518,0.6511,0.6315,0.5901,0.0,0.0,0.5542,0.5694,0.5803,0.5691,0.5755,0.5867,0.5983,0.6458,0.682,0.7045,0.7794,0.8218,0.8368,0.8866,0.8971,0.8804,0.8896,0.8898,0.8988,0.9133,0.9344,0.9439,0.9588,0.9717,0.9822,0.9822,0.9839,0.9893,1.0137,1.027,1.0351,1.0585,1.0694,1.0721,-0.4419,-0.5446,-0.5996,-0.529,-0.6116,-0.6012,-0.3144,-0.2842,-0.2954,-0.2754,-0.3871,-0.4719,-0.4835,-0.3464,-0.2526,-0.2526,-0.0958,0.0,0.0,0.0,0.0,0.0,0.0,0.0,0.0,0.0,0.0,0.0,0.0,0.0,0.0,0.0,0.0,0.0,0.0,0.0,0.0,0.0,0.0,0.0,0.0,0.0,0.0,0.0,0.0,0.0,0.0,0.0,0.0,0.0,0.0,0.0,0.0,0.0,0.0,0.0,0.0,0.0,0.0,0.0,0.0269,0.1341,0.1609,0.2236,0.4543,0.5127,0.5536,0.6694,0.682,0.6739,0.6822,0.6661,0.6566,0.6861,0.678,0.663,0.6532,0.6511,0.6356,0.601,0.0,0.0,0.5793,0.5911,0.5966,0.5952,0.5871,0.5867,0.5983,0.6458,0.6776,0.69,0.7536,0.8048,0.8459,0.8655,0.8872,0.9166,0.8994,0.9008,0.9193,0.9289,0.9442,0.9595,0.9741,0.9808,0.9822,0.9822,0.9842,0.9967,0.9997,1.0236,1.0477,1.0504,1.0602,1.0721,-0.6279,-0.6049,-0.6046,-0.674,-0.7228,-0.6733,-0.447,-0.4112,-0.3297,-0.1271,-0.1573,-0.1929,-0.1973,-0.1378,-0.1,-0.1,-0.0398,0.0,0.0,0.0,0.0,0.0,0.0,0.0,0.0,0.0,0.0,0.0,0.0,0.0,0.0,0.0,0.0,0.0,0.0,0.0,0.0,0.0,0.0,0.0,0.0,0.0,0.0,0.0,0.0,0.0,0.0,0.0,0.0,0.0,0.0,0.0,0.0,0.0,0.0,0.0,0.0,0.0,0.0,0.0,0.0269,0.1478,0.179,0.2236,0.3929,0.4865,0.5536,0.5983,0.6518,0.6913,0.6889,0.6753,0.6678,0.6852,0.6722,0.6573,0.6607,0.6569,0.6436,0.6193,0.6262,0.618,0.583,0.5902,0.6067,0.6281,0.6074,0.6006,0.6159,0.6505,0.677,0.6879,0.7543,0.8079,0.835,0.8682,0.8906,0.9025,0.9052,0.9096,0.9217,0.9405,0.9598,0.9741,0.9795,0.9822,0.9822,0.9822,0.9849,0.9997,1.0151,1.031,1.0504,1.0595,1.0666,1.0721,-0.7521,-0.6552,-0.6185,-0.7579,-0.782,-0.705,-0.4739,-0.4818,-0.389,-0.0439,0.0,0.0,0.0,0.0,0.0,0.0,0.0,0.0,0.0,0.0,0.0,0.0,0.0,0.0,0.0,0.0,0.0,0.0,0.0,0.0,0.0,0.0,0.0,0.0,0.0,0.0,0.0,0.0,0.0,0.0,0.0,0.0,0.0,0.0,0.0,0.0,0.0,0.0,0.0,0.0,0.0,0.0,0.0,0.0,0.0,0.0,0.0,0.0,0.0,0.0271,0.086,0.2077,0.2674,0.327,0.4465,0.536,0.5983,0.5899,0.653,0.7018,0.6957,0.6868,0.6817,0.6923,0.681,0.6675,0.6698,0.6647,0.6536,0.6385,0.6402,0.6327,0.6023,0.6095,0.6264,0.6519,0.6346,0.6295,0.6447,0.6654,0.6837,0.6943,0.7668,0.816,0.832,0.8716,0.8885,0.8885,0.9086,0.9231,0.9286,0.9534,0.9727,0.9822,0.9822,0.9822,0.9825,0.9869,0.9978,1.0134,1.0283,1.0432,1.0571,1.068,1.0721,1.0721,-0.7804,-0.7449,-0.7469,-0.7762,-0.7802,-0.6653,-0.3221,-0.4059,-0.3875,-0.0433,0.0,0.0,0.0,0.0,0.0,0.0,0.0,0.0,0.0,0.0,0.0,0.0,0.0,0.0,0.0,0.0,0.0,0.0,0.0,0.0,0.0,0.0,0.0,0.0,0.0,0.0,0.0,0.0,0.0,0.0,0.0,0.0,0.0,0.0,0.0,0.0,0.0,0.0,0.0,0.0,0.0,0.0,0.0,0.0,0.0,0.0,0.0,0.0,0.0,0.0956,0.226,0.3454,0.4762,0.6034,0.7122,0.737,0.7326,0.7125,0.6984,0.693,0.7068,0.6977,0.693,0.7068,0.7092,0.6987,0.6742,0.6827,0.681,0.6545,0.6603,0.6634,0.6518,0.6504,0.6532,0.6685,0.6695,0.6759,0.6869,0.6879,0.6947,0.7088,0.7872,0.832,0.8323,0.8716,0.8885,0.8885,0.9086,0.9289,0.9388,0.9683,0.9819,0.9822,0.9822,0.9822,0.9832,0.9923,1.0137,1.029,1.0432,1.0582,1.0717,1.0721,1.0721,1.0721,-0.9316,-0.8321,-0.7577,-0.7663,-0.673,-0.5215,-0.2917,-0.3003,-0.2537,-0.0309,0.0,0.0,0.0,0.0,0.0,0.0,0.0,0.0,0.0,0.0,0.0,0.0,0.0,0.0,0.0,0.0,0.0,0.0,0.0,0.0,0.0,0.0,0.0,0.0,0.0,0.0,0.0,0.0,0.0,0.0,0.0,0.0,0.0,0.0,0.0,0.0,0.0,0.0,0.0,0.0,0.0,0.0,0.0,0.0,0.0186,0.108,0.1368,0.1553,0.2477,0.3044,0.367,0.4886,0.5474,0.6106,0.7253,0.7448,0.7402,0.7309,0.7177,0.7045,0.7088,0.698,0.69,0.6947,0.6909,0.6844,0.6854,0.6807,0.6776,0.6783,0.6732,0.6681,0.663,0.6627,0.6732,0.694,0.6814,0.6766,0.6876,0.7119,0.7251,0.7295,0.7929,0.8368,0.8414,0.8862,0.9086,0.9089,0.9344,0.954,0.9683,0.9778,0.9822,0.9822,0.9822,0.9822,0.9825,0.9873,1.0046,1.0287,1.0331,1.05,1.0721,1.0721,1.0721,1.0721,-0.9137,-0.7692,-0.641,-0.5766,-0.4865,-0.363,-0.183,-0.2124,-0.1983,-0.0247,0.0,0.0,0.0,0.0,0.0,0.0,0.0,0.0,0.0,0.0,0.0,0.0,0.0,0.0,0.0,0.0,0.0,0.0,0.0,0.0,0.0,0.0,0.0,0.0,0.0,0.0,0.0,0.0,0.0,0.0,0.0,0.0,0.0,0.0,0.0,0.0,0.0,0.0,0.0,0.0,0.0,0.0,0.0,0.0327,0.0937,0.1754,0.233,0.2852,0.375,0.4389,0.494,0.5706,0.6266,0.6822,0.7498,0.7563,0.7458,0.7458,0.7333,0.7227,0.7227,0.7061,0.6964,0.6964,0.6883,0.6878,0.6879,0.6892,0.6881,0.6879,0.6892,0.6844,0.6793,0.6834,0.6943,0.7082,0.7126,0.7136,0.7177,0.7356,0.7509,0.7621,0.8208,0.8564,0.8652,0.9042,0.9296,0.9299,0.949,0.9683,0.9822,0.9822,0.9822,0.9822,0.9822,0.9822,0.9825,0.9883,1.0019,1.0205,1.0317,1.0473,1.0639,1.07,1.0721,1.0721,-0.7684,-0.5962,-0.4233,-0.2763,-0.2534,-0.195,-0.0254,-0.1449,-0.1939,-0.0247,0.0,0.0,0.0,0.0,0.0,0.0,0.0,0.0,0.0,0.0,0.0,0.0,0.0,0.0,0.0,0.0,0.0,0.0,0.0,0.0,0.0,0.0,0.0,0.0,0.0,0.0,0.0,0.0,0.0,0.0,0.0,0.0,0.0,0.0,0.0,0.0,0.0,0.0,0.0,0.0,0.0,0.0,0.0,0.0999,0.2138,0.2144,0.3003,0.4003,0.4243,0.5165,0.6117,0.6117,0.7091,0.7951,0.7862,0.7716,0.7614,0.7614,0.7492,0.7433,0.7433,0.7268,0.7125,0.7112,0.7112,0.7061,0.692,0.7014,0.7051,0.693,0.7031,0.7065,0.6943,0.7041,0.7115,0.7129,0.755,0.7736,0.7634,0.7648,0.7784,0.7998,0.8578,0.8888,0.8898,0.9249,0.9401,0.9412,0.9557,0.9693,0.9822,0.9822,0.9822,0.9822,0.9822,0.9761,0.9646,0.9786,0.9849,0.9886,1.0169,1.0415,1.051,1.0663,1.0721,1.0721,-0.7457,-0.5062,-0.292,-0.2567,-0.1472,-0.0511,-0.0064,-0.0378,-0.0495,-0.0062,0.0,0.0,0.0,0.0,0.0,0.0,0.0,0.0,0.0,0.0,0.0,0.0,0.0,0.0,0.0,0.0,0.0,0.0,0.0,0.0,0.0,0.0,0.0,0.0,0.0,0.0,0.0,0.0,0.0,0.0,0.0,0.0,0.0,0.0,0.0,0.0,0.0,0.0,0.0,0.0,0.0,0.0,0.0,0.1553,0.3409,0.3514,0.4463,0.5701,0.6741,0.7263,0.7536,0.7536,0.7763,0.7982,0.7944,0.7868,0.7763,0.7763,0.7645,0.7546,0.7546,0.7516,0.7455,0.7336,0.7316,0.7261,0.7068,0.7075,0.7129,0.7255,0.7295,0.735,0.7431,0.7366,0.7366,0.7482,0.7482,0.7611,0.787,0.815,0.8255,0.8218,0.8686,0.8991,0.91,0.9405,0.9608,0.9717,0.9754,0.9788,0.9822,0.9822,0.9822,0.9822,0.9822,0.9083,0.7978,0.8005,0.8074,0.8176,0.8392,0.9285,1.051,1.0663,1.0721,1.0721,-0.5328,-0.3709,-0.2227,-0.1466,-0.0574,0.0,0.0,0.0,0.0,0.0,0.0,0.0,0.0,0.0,0.0,0.0,0.0,0.0,0.0,0.0,0.0,0.0,0.0,0.0,0.0,0.0,0.0,0.0,0.0,0.0,0.0,0.0,0.0,0.0,0.0,0.0,0.0,0.0,0.0,0.0,0.0,0.0,0.0,0.0,0.0,0.0,0.0,0.0,0.0,0.0,0.0,0.0,0.0,0.177,0.3899,0.3983,0.5363,0.7005,0.777,0.7988,0.7988,0.7988,0.7988,0.7988,0.7988,0.7924,0.7916,0.7916,0.7797,0.7695,0.7695,0.7645,0.755,0.7443,0.7415,0.7319,0.7119,0.7095,0.7197,0.7353,0.7415,0.7431,0.7587,0.7648,0.7655,0.7604,0.7838,0.8001,0.7988,0.8516,0.8723,0.8581,0.9011,0.9283,0.9361,0.9591,0.9781,0.9862,0.9862,0.9961,1.0032,1.0032,0.9992,0.9862,0.9862,0.8955,0.7421,0.7421,0.7459,0.7531,0.7701,0.8901,1.0422,1.0639,1.0721,1.0721,-0.2762,-0.2293,-0.1667,-0.0254,0.0,0.0,0.0,0.0,0.0,0.0,0.0,0.0,0.0,0.0,0.0,0.0,0.0,0.0,0.0,0.0,0.0,0.0,0.0,0.0,0.0,0.0,0.0,0.0,0.0,0.0,0.0,0.0,0.0,0.0,0.0,0.0,0.0,0.0,0.0,0.0,0.0,0.0,0.0,0.0,0.0,0.0,0.0,0.0,0.0,0.0,0.015,0.0295,0.0295,0.2159,0.4304,0.4317,0.5984,0.7875,0.7955,0.7988,0.7988,0.7988,0.7988,0.7988,0.7988,0.7988,0.7988,0.7988,0.7887,0.7845,0.7845,0.7746,0.7614,0.7461,0.7421,0.7353,0.7152,0.7132,0.7241,0.7417,0.7458,0.7539,0.7716,0.794,0.7987,0.7784,0.833,0.854,0.8174,0.8832,0.914,0.8986,0.9412,0.9618,0.9642,0.9785,0.9859,0.9987,1.0011,1.0151,1.028,1.028,1.0209,1.0024,1.0024,0.9066,0.7472,0.7472,0.7472,0.7495,0.7709,0.8823,1.0344,1.0619,1.0721,1.0721,-0.2574,-0.134,-0.0322,-0.0064,0.0,0.0,0.0,0.0,0.0,0.0,0.0,0.0,0.0,0.0,0.0,0.0,0.0,0.0,0.0,0.0,0.0,0.0,0.0,0.0,0.0,0.0,0.0,0.0,0.0,0.0,0.0,0.0,0.0,0.0,0.0,0.0,0.0,0.0,0.0,0.0,0.0,0.0,0.0,0.0,0.0,0.0,0.0,0.0,0.0,0.0,0.0747,0.1669,0.1695,0.3515,0.5684,0.5676,0.6752,0.7961,0.7982,0.7988,0.7988,0.7988,0.7988,0.7988,0.7988,0.7988,0.7988,0.7988,0.7971,0.7955,0.7955,0.7938,0.7874,0.7767,0.7641,0.7509,0.7356,0.7336,0.7438,0.7709,0.7855,0.8045,0.8316,0.8279,0.8319,0.8523,0.8526,0.8652,0.9019,0.9211,0.9395,0.9503,0.9571,0.9666,0.9788,0.9876,0.9963,0.9987,1.0181,1.0256,1.028,1.028,1.0266,1.0246,1.0246,0.9269,0.7714,0.7714,0.7714,0.7727,0.7917,0.9013,1.048,1.0656,1.0721,1.0721,-0.1134,-0.0513,0.0,0.0,0.0,0.0,0.0,0.0,0.0,0.0,0.0,0.0,0.0,0.0,0.0,0.0,0.0,0.0,0.0,0.0,0.0,0.0,0.0,0.0,0.0,0.0,0.0,0.0,0.0,0.0,0.0,0.0,0.0,0.0,0.0,0.0,0.0,0.0,0.0,0.0,0.0,0.0,0.0,0.0,0.0,0.0,0.0,0.0,0.0101,0.0857,0.1502,0.2138,0.2857,0.4443,0.6012,0.6014,0.6933,0.7988,0.7988,0.7988,0.7988,0.7988,0.7988,0.7988,0.7988,0.7988,0.8012,0.8147,0.8099,0.8015,0.8147,0.8096,0.7968,0.7897,0.7811,0.7689,0.7617,0.7607,0.7689,0.7909,0.8069,0.8248,0.8462,0.857,0.8652,0.8706,0.8869,0.9022,0.9204,0.9374,0.9537,0.9608,0.9683,0.9754,0.9822,0.9909,1.0031,1.0175,1.0324,1.0436,1.0517,1.0517,1.0473,1.0395,1.0395,0.9441,0.7832,0.7832,0.7832,0.7842,0.7951,0.9042,1.051,1.0663,1.0047,0.9238,0.0,0.0,0.0,0.0,0.0,0.0,0.0,0.0,0.0,0.0,0.0,0.0,0.0,0.0,0.0,0.0,0.0,0.0,0.0,0.0,0.0,0.0,0.0,0.0,0.0,0.0,0.0,0.0,0.0,0.0,0.0,0.0,0.0,0.0,0.0,0.0,0.0,0.0,0.0,0.0,0.0,0.0,0.0,0.0,0.0,0.0,0.0,0.0,0.0202,0.1561,0.2213,0.2715,0.4067,0.5372,0.6481,0.6481,0.7185,0.7988,0.7988,0.7988,0.7988,0.7988,0.8015,0.8092,0.8092,0.8119,0.8177,0.8296,0.8225,0.818,0.8299,0.8221,0.8083,0.8099,0.7994,0.7906,0.7868,0.7896,0.7974,0.8123,0.8309,0.8482,0.8625,0.8882,0.9008,0.8927,0.9239,0.9398,0.9371,0.953,0.9676,0.971,0.9781,0.9839,0.9873,0.9963,1.0178,1.0331,1.0477,1.0605,1.0721,1.0721,1.0656,1.0544,1.0544,0.976,0.8492,0.8492,0.8492,0.8503,0.8592,0.9418,1.0558,1.0677,0.9573,0.7966,0.0,0.0,0.0,0.0,0.0,0.0,0.0,0.0,0.0,0.0,0.0,0.0,0.0,0.0,0.0,0.0,0.0,0.0,0.0,0.0,0.0,0.0,0.0,0.0,0.0,0.0,0.0,0.0,0.0,0.0,0.0,0.0,0.0,0.0,0.0,0.0,0.0,0.0,0.0,0.0,0.0,0.0,0.0,0.0,0.0,0.0,0.0,0.0,0.0202,0.1561,0.2815,0.4066,0.5425,0.6781,0.7839,0.7839,0.7939,0.7988,0.7988,0.7988,0.7988,0.7988,0.8147,0.8252,0.8252,0.8353,0.8452,0.8465,0.8459,0.8455,0.8465,0.8459,0.8408,0.8275,0.8296,0.8187,0.7992,0.8147,0.8289,0.8431,0.871,0.8947,0.9146,0.9252,0.9401,0.9534,0.9574,0.9646,0.9764,0.9791,0.9869,0.995,0.989,0.989,0.997,1.0185,1.0334,1.0477,1.0629,1.0711,1.0721,1.0721,1.0714,1.0704,1.0704,1.0631,1.0485,1.0485,1.0485,1.0488,1.0498,1.0568,1.0704,1.0717,0.9573,0.7979,0.0,0.0,0.0,0.0,0.0,0.0,0.0,0.0,0.0,0.0,0.0,0.0,0.0,0.0,0.0,0.0,0.0,0.0,0.0,0.0,0.0,0.0,0.0,0.0,0.0,0.0,0.0,0.0,0.0,0.0,0.0,0.0,0.0,0.0,0.0,0.0,0.0,0.0,0.0,0.0,0.0,0.0,0.0,0.0,0.0,0.0,0.0,0.0555,0.1461,0.2765,0.4117,0.5475,0.683,0.7587,0.7988,0.7988,0.7988,0.8012,0.8157,0.8113,0.8012,0.816,0.8228,0.8344,0.8381,0.8442,0.8537,0.8726,0.8689,0.8679,0.8917,0.8825,0.8747,0.8693,0.8604,0.8523,0.8462,0.8587,0.8706,0.876,0.9028,0.9235,0.9289,0.9432,0.9547,0.9605,0.9778,0.9842,0.9899,0.9903,0.9926,0.9984,0.993,1.0036,1.0192,1.0249,1.0351,1.0493,1.0646,1.0721,1.0721,1.0721,1.0721,1.0721,1.0721,1.0721,1.0721,1.0721,1.0721,1.0721,1.0721,1.0721,1.0721,1.0721,0.9631,0.8008,0.0,0.0,0.0,0.0,0.0,0.0,0.0,0.0,0.0,0.0,0.0,0.0,0.0,0.0,0.0,0.0,0.0,0.0,0.0,0.0,0.0,0.0,0.0,0.0,0.0,0.0,0.0,0.0,0.0,0.0,0.0,0.0,0.0,0.0,0.0,0.0,0.0,0.0,0.0,0.0,0.0,0.0,0.0,0.0,0.0,0.005,0.0454,0.1209,0.2264,0.4017,0.5222,0.6232,0.7587,0.7988,0.7988,0.7988,0.8022,0.8136,0.8241,0.8225,0.8204,0.8309,0.8374,0.8445,0.8591,0.8659,0.8767,0.9025,0.8994,0.8981,0.9245,0.9144,0.9062,0.9015,0.8957,0.8903,0.8855,0.8981,0.9079,0.9079,0.93,0.9452,0.9452,0.9588,0.9696,0.9744,0.9872,1.0007,1.0117,1.0102,1.0188,1.0188,1.0188,1.0263,1.0419,1.0371,1.0419,1.0565,1.067,1.0721,1.0721,1.0721,1.0721,1.0721,1.0721,1.0721,1.0721,1.0721,1.0721,1.0721,1.0721,1.0721,1.0721,1.0721,0.9664,0.8141,0.0,0.0,0.0,0.0,0.0,0.0,0.0,0.0,0.0,0.0,0.0,0.0,0.0,0.0,0.0,0.0,0.0,0.0,0.0,0.0,0.0,0.0,0.0,0.0,0.0,0.0,0.0,0.0,0.0,0.0,0.0,0.0,0.0,0.0,0.0,0.0,0.0,0.0,0.0,0.0,0.0,0.0,0.0,0.0,0.0,0.0202,0.1511,0.2013,0.2414,0.5125,0.6029,0.6232,0.7587,0.7988,0.7992,0.7992,0.815,0.8323,0.8327,0.8377,0.8486,0.8482,0.8601,0.8754,0.8851,0.9052,0.9255,0.9351,0.9384,0.9384,0.9384,0.9384,0.9334,0.9238,0.9344,0.933,0.9231,0.9344,0.9384,0.9384,0.9517,0.9612,0.9612,0.9737,0.9883,0.9974,0.9987,1.012,1.0276,1.0415,1.049,1.049,1.049,1.0565,1.0717,1.0568,1.0568,1.0721,1.0721,1.0721,1.0721,1.0721,1.0721,1.0721,1.0721,1.0721,1.0721,1.0721,1.0721,1.0721,1.0721,1.0721,1.0721,1.0721,0.9664,0.829,0.0,0.0,0.0,0.0,0.0,0.0,0.0,0.0,0.0,0.0,0.0,0.0,0.0,0.0,0.0,0.0,0.0,0.0,0.0,0.0,0.0,0.0,0.0,0.0,0.0,0.0,0.0,0.0,0.0,0.0,0.0,0.0,0.0,0.0,0.0,0.0,0.0,0.0,0.0,0.0,0.0,0.0,0.0,0.0,0.0605,0.146,0.1862,0.3217,0.4924,0.5727,0.6631,0.7484,0.7889,0.8113,0.8201,0.8201,0.8306,0.8442,0.855,0.8689,0.8777,0.8669,0.8757,0.891,0.9055,0.9205,0.9357,0.951,0.954,0.9571,0.9673,0.969,0.9642,0.9496,0.951,0.949,0.9334,0.9445,0.954,0.954,0.9669,0.9758,0.9758,0.9795,0.9883,0.9974,1.0243,1.0426,1.0582,1.0527,1.049,1.049,1.049,1.0514,1.0561,1.0514,1.0568,1.0721,1.0721,1.0721,1.0721,1.0721,1.0721,1.0721,1.0721,1.0721,1.0721,1.0721,1.0721,1.0721,1.0721,1.0721,1.0721,1.0721,1.0537,1.0129,0.0,0.0,0.0,0.0,0.0,0.0,0.0,0.0,0.0,0.0,0.0,0.0,0.0,0.0,0.0,0.0,0.0,0.0,0.0,0.0,0.0,0.0,0.0,0.0,0.0,0.0,0.0,0.0,0.0,0.0,0.0,0.0,0.0,0.0,0.0,0.0,0.0,0.0,0.0,0.0,0.0,0.0313,0.0777,0.0768,0.1622,0.2865,0.3367,0.4622,0.6087,0.669,0.7503,0.8214,0.8214,0.8279,0.8353,0.8353,0.8459,0.8594,0.8686,0.8862,0.9001,0.891,0.9001,0.9154,0.93,0.9405,0.9513,0.9663,0.9693,0.972,0.9805,0.9869,0.9863,0.9717,0.9744,0.973,0.9578,0.9635,0.9693,0.9693,0.9768,0.9822,0.9822,0.9822,0.991,1.0124,1.0358,1.0558,1.0711,1.0633,1.0582,1.0582,1.0582,1.0582,1.0582,1.0582,1.0629,1.0721,1.0721,1.0721,1.0721,1.0721,1.0721,1.0721,1.0721,1.0721,1.0721,1.0721,1.0721,1.0721,1.0721,1.0721,1.0721,1.0721,1.0873,1.0946,0.0,0.0,0.0,0.0,0.0,0.0,0.0,0.0,0.0,0.0,0.0,0.0,0.0,0.0,0.0,0.0,0.0,0.0,0.0,0.0,0.0,0.0,0.0,0.0,0.0,0.0,0.0,0.0,0.0,0.0,0.0,0.0,0.0,0.0,0.0,0.0,0.0,0.0,0.0,0.0,0.016,0.0898,0.2023,0.2122,0.3013,0.4318,0.5584,0.6095,0.6416,0.7827,0.8374,0.8482,0.8482,0.8489,0.8506,0.852,0.8632,0.8754,0.8767,0.8977,0.9251,0.9251,0.9364,0.9452,0.9581,0.9618,0.9666,0.9795,0.9822,0.9822,0.9822,0.9883,0.9943,0.9866,0.9909,0.996,0.988,0.9863,0.9863,0.9863,0.9863,0.9863,0.9863,0.9873,0.9998,1.028,1.0432,1.0571,1.0714,1.0721,1.0721,1.0721,1.0721,1.0721,1.0721,1.0721,1.0721,1.0721,1.0721,1.0721,1.0721,1.0721,1.0721,1.0721,1.0721,1.0721,1.0721,1.0721,1.0721,1.0721,1.0721,1.0721,1.0721,1.0721,1.0749,1.0904,0.0,0.0,0.0,0.0,0.0,0.0,0.0,0.0,0.0,0.0,0.0,0.0,0.0,0.0,0.0,0.0,0.0,0.0,0.0,0.0,0.0,0.0,0.0,0.0,0.0,0.0,0.0,0.0,0.0,0.0,0.0,0.0,0.0,0.0,0.0,0.0,0.0,0.0,0.0,0.0109,0.125,0.1826,0.211,0.3272,0.4493,0.5636,0.6073,0.693,0.7881,0.8332,0.8459,0.8482,0.8482,0.8564,0.8682,0.8804,0.8944,0.9139,0.9205,0.9371,0.951,0.951,0.9618,0.9703,0.9629,0.9696,0.9785,0.9815,0.9822,0.9822,0.9822,0.9883,0.9977,0.9943,1.0131,1.0219,1.0185,1.0181,1.0181,1.0181,1.0181,1.0181,1.0181,1.0283,1.0375,1.0439,1.0585,1.0683,1.0717,1.0721,1.0721,1.0721,1.0721,1.0721,1.0721,1.0721,1.0721,1.0721,1.0721,1.0721,1.0721,1.0721,1.0721,1.0721,1.0721,1.0721,1.0721,1.0721,1.0721,1.0721,1.0721,1.0721,1.0721,1.0721,1.0749,1.0917,0.0,0.0,0.0,0.0,0.0,0.0,0.0,0.0,0.0,0.0,0.0,0.0,0.0,0.0,0.0,0.0,0.0,0.0,0.0,0.0,0.0,0.0,0.0,0.0,0.0,0.0,0.0,0.0,0.0,0.0,0.0,0.0,0.0,0.0,0.0,0.0,0.0,0.0,0.039,0.1106,0.1878,0.3003,0.424,0.4996,0.6073,0.7226,0.7291,0.7835,0.8503,0.8652,0.8747,0.8869,0.8886,0.8967,0.9045,0.9127,0.9201,0.9337,0.9361,0.9493,0.9608,0.9608,0.9771,0.9829,0.9744,0.9768,0.9822,0.9822,0.988,0.9869,0.9869,1.0048,1.0239,1.0171,1.0283,1.0358,1.029,1.028,1.028,1.028,1.028,1.028,1.028,1.0348,1.0419,1.0487,1.0565,1.0643,1.0717,1.0721,1.0721,1.0721,1.0721,1.0721,1.0721,1.0721,1.0721,1.0721,1.0721,1.0721,1.0721,1.0721,1.0721,1.0721,1.0721,1.0721,1.0721,1.0721,1.0721,1.0721,1.0721,1.0721,1.0721,1.0721,1.0749,1.0914,0.0,0.0,0.0,0.0,0.0,0.0,0.0,0.0,0.0,0.0,0.0,0.0,0.0,0.0,0.0,0.0,0.0,0.0,0.0,0.0,0.0,0.0,0.0,0.0,0.0,0.0,0.0,0.0,0.0,0.0,0.0,0.0,0.0,0.0,0.0,0.0,0.0,0.0,0.084,0.2235,0.2515,0.4145,0.6529,0.6802,0.7535,0.8486,0.8513,0.8635,0.8804,0.8933,0.9072,0.9272,0.934,0.9381,0.9388,0.9412,0.9418,0.9425,0.9449,0.9547,0.9652,0.968,0.9808,0.996,0.9924,0.988,0.9866,0.9893,0.9916,0.9997,1.0021,1.031,1.0453,1.0334,1.0436,1.049,1.0371,1.0354,1.0354,1.0354,1.0354,1.0354,1.0354,1.0354,1.0402,1.0521,1.0531,1.0585,1.0714,1.0721,1.0721,1.0721,1.0721,1.0721,1.0721,1.0721,1.0721,1.0721,1.0721,1.0721,1.0721,1.0721,1.0721,1.0721,1.0721,1.0721,1.0721,1.0721,1.0721,1.0721,1.0721,1.0721,1.0721,1.0721,1.0802,1.086,0.0,0.0,0.0,0.0,0.0,0.0,0.0,0.0,0.0,0.0,0.0,0.0,0.0,0.0,0.0,0.0,0.0,0.0,0.0,0.0,0.0,0.0,0.0,0.0,0.0,0.0,0.0,0.0,0.0,0.0,0.0,0.0,0.0,0.0,0.0,0.0,0.0,0.0,0.084,0.2291,0.3632,0.5141,0.664,0.7891,0.8451,0.8499,0.8632,0.8859,0.9152,0.9173,0.9282,0.9354,0.9374,0.9381,0.9408,0.954,0.9578,0.9605,0.9727,0.9778,0.9825,0.9896,0.9957,1.0017,1.0192,1.0117,0.9994,1.0192,1.0127,1.0027,1.0226,1.0382,1.0483,1.0466,1.0592,1.0683,1.0663,1.066,1.066,1.066,1.066,1.066,1.066,1.066,1.067,1.0687,1.0687,1.07,1.0717,1.0721,1.0721,1.0721,1.0721,1.0721,1.0721,1.0721,1.0721,1.0721,1.0721,1.0721,1.0721,1.0721,1.0721,1.0721,1.0721,1.0721,1.0721,1.0721,1.0721,1.0721,1.0721,1.0721,1.0721,1.0721,1.0731,1.0772,0.0,0.0,0.0,0.0,0.0,0.0,0.0,0.0,0.0,0.0,0.0,0.0,0.0,0.0,0.0,0.0,0.0,0.0,0.0,0.0,0.0,0.0,0.0,0.0,0.0,0.0,0.0,0.0,0.0,0.0,0.0,0.0,0.0,0.0,0.0,0.0,0.0058,0.0982,0.2229,0.3623,0.5205,0.6667,0.7895,0.8562,0.8798,0.8757,0.8906,0.9096,0.935,0.9381,0.9452,0.9537,0.9703,0.9754,0.9768,0.9836,0.9795,0.9849,0.9829,0.9883,0.9903,0.997,1.0112,1.0314,1.0382,1.0344,1.0293,1.0283,1.029,1.0317,1.0385,1.0521,1.0619,1.0619,1.0677,1.0721,1.0721,1.0721,1.0721,1.0721,1.0721,1.0721,1.0721,1.0721,1.0721,1.0721,1.0721,1.0721,1.0721,1.0721,1.0721,1.0721,1.0721,1.0721,1.0721,1.0721,1.0721,1.0721,1.0721,1.0721,1.0721,1.0721,1.0721,1.0721,1.0721,1.0721,1.0721,1.0721,1.0721,1.0721,1.0721,1.0721,1.0721,1.0721,1.0721,1.0741]},{"header":{"parameterUnit":"m.s-1","parameterCategory":1,"la1":30.6,"la2":28.766,"lo1":-90.7593,"lo2":-88.6598,"dy":0.0162,"dx":0.0183,"nx":116,"ny":114,"refTime":"2023-09-21T18:00:00:Z","depth":0,"parameterNumber":3,"parameterNumberName":"V-component_of_WINDS"},"data":[0.0,0.0,0.0,0.0,0.0,0.0,0.0,0.0,0.0,0.0,0.0,0.0,0.0,0.0,0.0,0.0,0.0,0.0,0.0,0.0,0.0,0.0,0.0,0.0,0.0,0.0,0.0,0.0,0.0,0.0,0.0,0.0,0.0,0.0,0.0,0.0,0.0,0.0,0.0,0.0,0.0,0.0,0.0,0.0,0.0,0.0,0.0,0.0,0.0,0.0,0.0,0.0,0.0,0.0,0.0,0.0,0.0,0.0,0.0,0.0,0.0,0.0,0.0,0.0,0.0,0.0,0.0,0.0,0.0,0.0,0.0,0.0,0.0,0.0,0.0,0.0,0.0,0.0,0.0,0.0,0.0,0.0,0.0,0.0,0.0,0.0,0.0,0.0,0.0,0.0,0.0,0.0,0.0,0.0,0.0,0.0,0.0,0.0,0.0,0.0,0.0,0.0,0.0,0.0,0.0,0.0,0.0,0.0,0.0,0.0,0.0,0.0,0.0,0.0,0.0,0.0,0.0,0.0,0.0,0.0,0.0,0.0,0.0,0.0,0.0,0.0,0.0,0.0,0.0,0.0,0.0,0.0,0.0,0.0,0.0,0.0,0.0,0.0,0.0,0.0,0.0,0.0,0.0,0.0,0.0,0.0,0.0,0.0,0.0,0.0,0.0,0.0,0.0,0.0,0.0,0.0,0.0,0.0,0.0,0.0,0.0,0.0,0.0,0.0,0.0,0.0,0.0,0.0,0.0,0.0,0.0,0.0,0.0,0.0,0.0,0.0,0.0,0.0,0.0,0.0,0.0,0.0,0.0,0.0,0.0,0.0,0.0,0.0,0.0,0.0,0.0,0.0,0.0,0.0,0.0,0.0,0.0,0.0,0.0,0.0,0.0,0.0,0.0,0.0,0.0,0.0,0.0,0.0,0.0,0.0,0.0,0.0,0.0,0.0,0.0,0.0,0.0,0.0,0.0,0.0,0.0,0.0,0.0,0.0,0.0,0.0,0.0,0.0,0.0,0.0,0.0,0.0,0.0,0.0,0.0,0.0,0.0,0.0,0.0,0.0,0.0,0.0,0.0,0.0,0.0,0.0,0.0,0.0,0.0,0.0,0.0,0.0,0.0,0.0,0.0,0.0,0.0,0.0,0.0,0.0,0.0,0.0,0.0,0.0,0.0,0.0,0.0,0.0,0.0,0.0,0.0,0.0,0.0,0.0,0.0,0.0,0.0,0.0,0.0,0.0,0.0,0.0,0.0,0.0,0.0,0.0,0.0,0.0,0.0,0.0,0.0,0.0,0.0,0.0,0.0,0.0,0.0,0.0,0.0,0.0,0.0,0.0,0.0,0.0,0.0,0.0,0.0,0.0,0.0,0.0,0.0,0.0,0.0,0.0,0.0,0.0,0.0,0.0,0.0,0.0,0.0,0.0,0.0,0.0,0.0,0.0,0.0,0.0,0.0,0.0,0.0,0.0,0.0,0.0,0.0,0.0,0.0,0.0,0.0,0.0,0.0,0.0,0.0,0.0,0.0,0.0,0.0,0.0,0.0,0.0,0.0,0.0,0.0,0.0,0.0,0.0,0.0,0.0,0.0,0.0,0.0,0.0,0.0,0.0,0.0,0.0,0.0,0.0,0.0,0.0,0.0,0.0,0.0,0.0,0.0,0.0,0.0,0.0,0.0,0.0,0.0,0.0,0.0,0.0,0.0,0.0,0.0,0.0,0.0,0.0,0.0,0.0,0.0,0.0,0.0,0.0,0.0,0.0,0.0,0.0,0.0,0.0,0.0,0.0,0.0,0.0,0.0,0.0,0.0,0.0,0.0,0.0,0.0,0.0,0.0,0.0,0.0,0.0,0.0,0.0,0.0,0.0,0.0,0.0,0.0,0.0,0.0,0.0,0.0,0.0,0.0,0.0,0.0,0.0,0.0,0.0,0.0,0.0,0.0,0.0,0.0,0.0,0.0,0.0,0.0,0.0,0.0,0.0,0.0,0.0,0.0,0.0,0.0,0.0,0.0,0.0,0.0,0.0,0.0,0.0,0.0,0.0,0.0,0.0,0.0,0.0,0.0,0.0,0.0,0.0,0.0,0.0,0.0,0.0,0.0,0.0,0.0,0.0,0.0,0.0,0.0,0.0,0.0,0.0,0.0,0.0,0.0,0.0,0.0,0.0,0.0,0.0,0.0,0.0,0.0,0.0,0.0,0.0,0.0,0.0,0.0,0.0,0.0,0.0,0.0,0.0,0.0,0.0,0.0,0.0,0.0,0.0,0.0,0.0,0.0,0.0,0.0,0.0,0.0,0.0,0.0,0.0,0.0,0.0,0.0,0.0,0.0,0.0,0.0,0.0,0.0,0.0,0.0,0.0,0.0,0.0,0.0,0.0,0.0,0.0,0.0,0.0,0.0,0.0,0.0,0.0,0.0,0.0,0.0,0.0,0.0,0.0,0.0,0.0,0.0,0.0,0.0,0.0,0.0,0.0,0.0,0.0,0.0,0.0,0.0,0.0,0.0,0.0,0.0,0.0,0.0,0.0,0.0,0.0,0.0,0.0,0.0,0.0,0.0,0.0,0.0,0.0,0.0,0.0,0.0,0.0,0.0,0.0,0.0,0.0,0.0,0.0,0.0,0.0,0.0,0.0,0.0,0.0,0.0,0.0,0.0,0.0,0.0,0.0,0.0,0.0,0.0,0.0,0.0,0.0,0.0,0.0,0.0,0.0,0.0,0.0,0.0,0.0,0.0,0.0,0.0,0.0,0.0,0.0,0.0,0.0,0.0,0.0,0.0,0.0,0.0,0.0,0.0,0.0,0.0,0.0,0.0,0.0,0.0,0.0,0.0,0.0,0.0,0.0,0.0,0.0,0.0,0.0,0.0,0.0,0.0,0.0,0.0,0.0,0.0,0.0,0.0,0.0,0.0,0.0,0.0,0.0,0.0,0.0,0.0,0.0,0.0,0.0,0.0,0.0,0.0,0.0,0.0,0.0,0.0,0.0,0.0,0.0,0.0,0.0,0.0,0.0,0.0,0.0,0.0,0.0,0.0,0.0,0.0,0.0,0.0,0.0,0.0,0.0,0.0,0.0,0.0,0.0,0.0,0.0,0.0,0.0,0.0,0.0,0.0,0.0,0.0,0.0,0.0,0.0,0.0,0.0,0.0,0.0,0.0,0.0,0.0,0.0,0.0,0.0,0.0,0.0,0.0,0.0,0.0,0.0,0.0,0.0,0.0,0.0,0.0,0.0,0.0,0.0,0.0,0.0,0.0,0.0,0.0,0.0,0.0,0.0,0.0,0.0,0.0,0.0,0.0,0.0,0.0,0.0,0.0,0.0,0.0,0.0,0.0,0.0,0.0,0.0,0.0,0.0,0.0,0.0,0.0,0.0,0.0,0.0,0.0,0.0,0.0,0.0,0.0,0.0,0.0,0.0,0.0,0.0,0.0,0.0,0.0,0.0,0.0,0.0,0.0,0.0,0.0,0.0,0.0,0.0,0.0,0.0,0.0,0.0,0.0,0.0,0.0,0.0,0.0,0.0,0.0,0.0,0.0,0.0,0.0,0.0,0.0,0.0,0.0,0.0,0.0,0.0,0.0,0.0,0.0,0.0,0.0,0.0,0.0,0.0,0.0,0.0,0.0,0.0,0.0,0.0,0.0,0.0,0.0,0.0,0.0,0.0,0.0,0.0,0.0,0.0,0.0,0.0,0.0,0.0,0.0,0.0,0.0,0.0,0.0,0.0,0.0,0.0,0.0,0.0,0.0,0.0,0.0,0.0,0.0,0.0,0.0,0.0,0.0,0.0,0.0,0.0,0.0,0.0,0.0,0.0,0.0,0.0,0.0,0.0,0.0,0.0,0.0,0.0,0.0,0.0,0.0,0.0,0.0,0.0,0.0,0.0,0.0,0.0,0.0,0.0,0.0,0.0,0.0,0.0,0.0,0.0,0.0,0.0,0.0,0.0,0.0,0.0,0.0,0.0,0.0,0.0,0.0,0.0,0.0,0.0,0.0,0.0,0.0,0.0,0.0,0.0,0.0,0.0,0.0,0.0,0.0,0.0,0.0,0.0,0.0,0.0,0.0,0.0,0.0,0.0,0.0,0.0,0.0,0.0,0.0,0.0,0.0,0.0,0.0,0.0,0.0,0.0,0.0,0.0,0.0,0.0,0.0,0.0,0.0,0.0,0.0,0.0,0.0,0.0,0.0,0.0,0.0,0.0,0.0,0.0,0.0,0.0,0.0,0.0,0.0,0.0,0.0,0.0,0.0,0.0,0.0,0.0,0.0,0.0,0.0,0.0,0.0,0.0,0.0,0.0,0.0,0.0,0.0,0.0,0.0,0.0,0.0,0.0,0.0,0.0,0.0,0.0,0.0,0.0,0.0,0.0,0.0,0.0,0.0,0.0,0.0,0.0,0.0,0.0,0.0,0.0,0.0,0.0,0.0,0.0,0.0,0.0,0.0,0.0,0.0,0.0,0.0,0.0,0.0,0.0,0.0,0.0,0.0,0.0,0.0,0.0,0.0,0.0,0.0,0.0,0.0,0.0,0.0,0.0,0.0,0.0,0.0,0.0,0.0,0.0,0.0,0.0,0.0,0.0,0.0,0.0,0.0,0.0,0.0,0.0,0.0,0.0,0.0,0.0,0.0,0.0,0.0,0.0,0.0,0.0,0.0,0.0,0.0,0.0,0.0,0.0,0.0,0.0,0.0,0.0,0.0,0.0,0.0,0.0,0.0,0.0,0.0,0.0,0.0,0.0,0.0,0.0,0.0,0.0,0.0,0.0,0.0,0.0,0.0,0.0,0.0,0.0,0.0,0.0,0.0,0.0,0.0,0.0,0.0,0.0,0.0,0.0,0.0,0.0,0.0,0.0,0.0,0.0,0.0,0.0,0.0,0.0,0.0,0.0,0.0,0.0,0.0,0.0,0.0,0.0,0.0,0.0,0.0,0.0,0.0,0.0,0.0,0.0,0.0,0.0,0.0,0.0,0.0,0.0,0.0,0.0,0.0,0.0,0.0,0.0,0.0,0.0,0.0,0.0,0.0,0.0,0.0,0.0,0.0,0.0,0.0,0.0,0.0,0.0,0.0,0.0,0.0,0.0,0.0,0.0,0.0,0.0,0.0,0.0,0.0,0.0,0.0,0.0,0.0,0.0,0.0,0.0,0.0,0.0,0.0,0.0,0.0,0.0,0.0,0.0,0.0,0.0,0.0,0.0,0.0,0.0,0.0,0.0,0.0,0.0,0.0,0.0,0.0,0.0,0.0,0.0,0.0,0.0,0.0,0.0,0.0,0.0,0.0,0.0,0.0,0.0,0.0,0.0,0.0,0.0,0.0,0.0,0.0,0.0,0.0,0.0,0.0,0.0,0.0,0.0,0.0,0.0,0.0,0.0,0.0,0.0,0.0,0.0,0.0,0.0,0.0,0.0,0.0,0.0,0.0,0.0,0.0,0.0,0.0,0.0,0.0,0.0,0.0,0.0,0.0,0.0,0.0,0.0,0.0,0.0,0.0,0.0,0.0,0.0,0.0,0.0,0.0,0.0,0.0,0.0,0.0,0.0,0.0,0.0,0.0,0.0,0.0,0.0,0.0,0.0,0.0,0.0,0.0,0.0,0.0,0.0,0.0,0.0,0.0,0.0,0.0,0.0,0.0,0.0,0.0,0.0,0.0,0.0,0.0,0.0,0.0,0.0,0.0,0.0,0.0,0.0,0.0,0.0,0.0,0.0,0.0,0.0,0.0,0.0,0.0,0.0,0.0,0.0,0.0,0.0,0.0,0.0,0.0,0.0,0.0,0.0,0.0,0.0,0.0,0.0,0.0,0.0,0.0,0.0,0.0,0.0,0.0,0.0,0.0,0.0,0.0,0.0,0.0,0.0,0.0,0.0,0.0,0.0,0.0,0.0,0.0,0.0,0.0,0.0,0.0,0.0,0.0,0.0,0.0,0.0,0.0,0.0,0.0,0.0,0.0,0.0,0.0,0.0,0.0,0.0,0.0,0.0,0.0,0.0,0.0,0.0,0.0,0.0,0.0,0.0,0.0,0.0,0.0,0.0,0.0,0.0,0.0,0.0,0.0,0.0,0.0,0.0,0.0,0.0,0.0,0.0,2.3382,2.2272,0.0,0.0,0.0,0.0,0.0,0.0,0.0,0.0,0.0,0.0,0.0,0.0,0.0,0.0,0.0,0.0,0.0,0.0,0.0,0.0,0.0,0.0,0.0,0.0,0.0,0.0,0.0,0.0,0.0,0.0,0.0,0.0,0.0,0.0,0.0,0.0,0.0,0.0,2.3542,2.3431,2.3567,2.4816,2.4967,2.4235,0.0,0.0,0.0,0.0,0.0,0.0,0.0,0.0,0.0,0.0,0.0,0.0,0.0,0.0,0.0,0.0,0.0,0.0,0.0,0.0,0.0,0.0,0.0,0.0,0.0,0.0,0.0,0.0,0.0,0.0,0.0,0.0,0.0,0.0,0.0,0.0,0.0,0.0,0.0,0.0,0.0,0.0,0.0,0.0,0.0,0.0,0.0,0.0,0.0,0.0,0.0,0.0,0.0,0.0,0.0,0.0,0.0,0.0,0.0,0.0,0.0,0.0,0.0,0.0,0.0,0.0,0.0,0.0,0.0,0.0,2.5456,2.3969,0.0,0.0,0.0,0.0,0.0,0.0,0.0,0.0,0.0,0.0,0.0,0.0,0.0,0.0,0.0,0.0,0.0,0.0,0.0,0.0,0.0,0.0,0.0,1.8383,1.8601,1.8856,1.895,1.9122,0.0,0.0,0.0,0.0,0.0,0.0,0.0,2.2152,2.2938,2.3512,2.2847,2.3031,2.4077,2.4913,2.4606,2.3402,2.4774,0.0,0.0,0.0,0.0,0.0,0.0,0.0,0.0,0.0,0.0,0.0,0.0,0.0,0.0,0.0,0.0,0.0,0.0,0.0,0.0,0.0,0.0,0.0,0.0,0.0,0.0,0.0,0.0,0.0,0.0,0.0,0.0,0.0,0.0,0.0,0.0,0.0,0.0,0.0,0.0,0.0,0.0,0.0,0.0,0.0,0.0,0.0,0.0,0.0,0.0,0.0,0.0,0.0,0.0,0.0,0.0,0.0,0.0,0.0,0.0,0.0,0.0,0.0,3.3502,3.3715,3.314,3.3963,3.328,3.1347,2.9034,2.7166,2.5774,2.5762,0.0,0.0,0.0,0.0,0.0,0.0,0.0,0.0,0.0,0.0,0.0,0.0,0.0,0.0,0.0,0.0,0.0,0.0,0.0,0.0,0.0,1.8187,1.8663,1.9876,1.938,1.9384,2.0274,0.0,0.0,0.0,0.0,0.0,2.186,2.3568,2.4136,2.3508,2.2895,2.3018,2.3864,2.483,2.5219,2.5073,2.5293,2.5861,2.6604,0.0,0.0,0.0,0.0,0.0,0.0,0.0,0.0,0.0,0.0,0.0,0.0,0.0,0.0,0.0,0.0,0.0,0.0,0.0,0.0,0.0,0.0,0.0,0.0,0.0,0.0,0.0,0.0,0.0,0.0,0.0,0.0,0.0,0.0,0.0,0.0,0.0,0.0,0.0,0.0,0.0,2.4784,2.4613,0.0,0.0,0.0,0.0,0.0,0.0,0.0,0.0,0.0,0.0,0.0,0.0,0.0,3.3392,3.4331,3.5761,3.5817,3.4529,3.6733,3.6881,3.5235,3.6043,3.6448,3.649,3.5729,0.0,2.797,2.6778,0.0,0.0,0.0,0.0,0.0,0.0,0.0,0.0,0.0,0.0,0.0,0.0,0.0,0.0,0.0,0.0,0.0,0.0,0.0,0.0,0.0,1.886,1.9532,1.9722,2.115,2.147,2.0145,2.0879,0.0,0.0,0.0,2.1879,2.1879,2.3582,2.4522,2.4687,2.5364,2.5997,2.658,2.7517,2.8042,2.8217,2.8249,2.7747,2.6802,2.5911,0.0,0.0,0.0,0.0,0.0,0.0,0.0,0.0,0.0,0.0,0.0,0.0,0.0,0.0,0.0,0.0,0.0,0.0,0.0,0.0,0.0,0.0,0.0,0.0,0.0,0.0,0.0,0.0,0.0,0.0,0.0,0.0,0.0,0.0,0.0,0.0,0.0,0.0,0.0,2.6212,2.6824,2.5815,2.7146,2.7626,0.0,0.0,0.0,0.0,0.0,0.0,0.0,0.0,0.0,3.5757,3.7348,3.8427,3.8903,4.0468,4.1036,4.0651,4.1705,4.1654,4.066,4.079,4.0472,3.9822,3.9871,3.7995,3.4732,3.2255,3.0221,2.8564,0.0,0.0,0.0,0.0,2.6994,2.752,0.0,0.0,0.0,0.0,0.0,0.0,0.0,0.0,0.0,0.0,0.0,0.0,1.8446,1.963,2.051,2.0811,2.282,2.3183,2.1107,2.186,2.1538,1.9693,2.1023,2.1794,2.1794,2.3575,2.5057,2.6161,2.79,2.8999,2.9515,3.0725,3.1386,3.1578,3.1717,3.03,2.774,2.6649,2.6128,2.5917,0.0,0.0,0.0,0.0,0.0,0.0,0.0,0.0,0.0,0.0,0.0,0.0,0.0,0.0,0.0,0.0,0.0,0.0,0.0,0.0,0.0,0.0,0.0,0.0,0.0,0.0,0.0,0.0,0.0,0.0,0.0,0.0,0.0,0.0,0.0,0.0,0.0,2.802,2.881,2.7344,2.9607,3.045,0.0,0.0,0.0,0.0,0.0,0.0,3.5738,3.8219,3.9815,4.0258,4.2124,4.3192,4.3404,4.4643,4.5476,4.5882,4.5882,4.5589,4.5022,4.4724,4.3774,4.2385,4.273,4.2139,4.067,3.7005,3.4175,3.2074,3.1525,3.0639,2.9742,3.0463,3.1116,3.1688,0.0,0.0,0.0,0.0,0.0,0.0,0.0,0.0,0.0,0.0,0.0,1.7411,2.0066,2.023,2.136,2.4445,2.3767,2.3531,2.4401,2.2061,2.0566,2.0456,2.1308,2.1794,2.1794,2.4126,2.6119,2.7699,2.9556,3.0873,3.1688,3.3772,3.4757,3.4774,3.5108,3.3406,3.0214,2.8717,2.7597,2.6755,2.5874,0.0,0.0,0.0,0.0,0.0,0.0,0.0,0.0,0.0,0.0,0.0,0.0,0.0,0.0,0.0,0.0,0.0,0.0,0.0,0.0,0.0,0.0,0.0,0.0,0.0,0.0,0.0,0.0,0.0,0.0,0.0,0.0,0.0,0.0,0.0,0.0,0.0,0.0,2.9362,3.2839,0.0,0.0,0.0,0.0,3.3981,3.7038,3.9277,4.015,4.2604,4.4739,4.6404,4.6577,4.7,4.7778,4.7875,4.7923,4.7952,4.7952,4.7347,4.621,4.6199,4.5561,4.4453,4.4478,4.4224,4.3438,3.8821,3.6775,3.6387,3.453,3.4616,3.5598,3.4277,3.4689,3.5705,0.0,0.0,0.0,0.0,0.0,0.0,0.0,0.0,1.7461,1.7923,1.8087,1.9123,2.1643,2.2836,2.4252,2.6235,2.6513,2.5943,2.4468,2.3246,2.2322,2.1748,2.2264,2.3547,2.5613,2.6494,2.8246,3.0889,3.2084,3.3463,3.4976,3.5738,3.6281,3.6603,3.6729,3.5925,3.4306,3.1602,2.9693,2.8325,2.6346,2.5666,0.0,0.0,0.0,0.0,0.0,0.0,0.0,0.0,0.0,0.0,0.0,0.0,0.0,0.0,0.0,0.0,0.0,0.0,0.0,0.0,0.0,0.0,0.0,0.0,0.0,0.0,0.0,0.0,0.0,0.0,0.0,0.0,0.0,0.0,0.0,0.0,0.0,3.6701,3.9123,0.0,3.8208,3.8327,3.917,4.0706,4.2486,4.4291,4.6133,4.8105,4.9481,5.0096,5.0654,5.0818,5.0538,5.0538,5.0298,4.976,4.9202,4.8424,4.7433,4.6645,4.5795,4.4908,4.4682,4.4514,4.4266,4.2586,4.0989,3.9469,3.8275,3.7611,3.7358,3.7304,3.7757,3.8318,0.0,0.0,0.0,0.0,0.0,0.0,0.0,0.0,1.7506,1.8067,1.8932,2.0458,2.297,2.4874,2.6571,2.8046,2.8118,2.7289,2.5499,2.3963,2.2934,2.2445,2.295,2.4669,2.7732,2.8606,3.032,3.2999,3.4376,3.5713,3.6983,3.7344,3.7932,3.8649,3.8471,3.8223,3.7841,3.5618,3.2929,3.0011,2.8034,2.7598,2.7797,0.0,0.0,0.0,0.0,0.0,0.0,0.0,0.0,0.0,0.0,0.0,0.0,0.0,0.0,0.0,0.0,0.0,0.0,0.0,0.0,0.0,0.0,0.0,0.0,0.0,0.0,0.0,0.0,0.0,0.0,0.0,0.0,0.0,0.0,3.7181,3.9966,4.1709,4.4157,4.512,4.3663,4.3757,4.4561,4.6166,4.7379,4.8832,5.0724,5.1822,5.2549,5.2838,5.308,5.2933,5.2327,5.2327,5.2068,5.1529,5.0664,4.9798,4.8942,4.7844,4.6889,4.6094,4.5891,4.5732,4.5596,4.53,4.4189,4.261,4.1952,4.0946,3.9977,4.0996,4.1198,4.0881,0.0,0.0,0.0,0.0,0.0,0.0,0.0,1.7514,1.7657,1.8661,1.9594,2.123,2.4069,2.6153,2.8104,2.9968,2.834,2.7317,2.7631,2.4091,2.2169,2.2587,2.3375,2.511,2.7897,3.024,3.2228,3.388,3.6317,3.7511,3.7562,3.8637,3.9744,4.0861,4.037,4.0308,4.0566,4.0593,3.7281,3.1951,3.1153,3.0771,3.0408,0.0,0.0,0.0,0.0,0.0,0.0,0.0,0.0,0.0,0.0,0.0,0.0,0.0,0.0,0.0,0.0,0.0,0.0,0.0,0.0,0.0,0.0,0.0,0.0,0.0,0.0,0.0,0.0,0.0,0.0,0.0,0.0,0.0,3.6406,4.0664,4.3906,4.4004,4.7625,4.9148,4.6628,4.8545,4.994,4.9956,5.1525,5.2835,5.3638,5.3553,5.3875,5.4727,5.3802,5.327,5.3251,5.3241,5.3241,5.3203,5.2327,5.151,5.0673,4.9817,4.8952,4.8105,4.8105,4.7913,4.7544,4.6694,4.6166,4.5806,4.5357,4.4506,4.3714,4.5277,4.4855,4.3464,0.0,0.0,0.0,0.0,0.0,0.0,1.78,1.7514,1.7657,1.8661,2.0398,2.268,2.5646,2.7623,2.9326,3.0762,2.8421,2.6748,2.6554,2.3458,2.2682,2.501,2.5822,2.7822,3.1207,3.1935,3.3366,3.5605,3.6886,3.7804,3.8377,3.9271,3.9948,4.051,4.1216,4.1697,4.1963,4.2268,4.1081,3.8731,3.5486,3.3448,3.2149,0.0,0.0,0.0,0.0,0.0,0.0,0.0,0.0,0.0,0.0,0.0,0.0,0.0,0.0,0.0,0.0,0.0,0.0,0.0,0.0,0.0,0.0,0.0,0.0,0.0,0.0,0.0,0.0,0.0,0.0,0.0,3.9297,4.207,4.2461,4.5371,4.8398,5.0879,5.2187,5.2868,5.2771,5.2826,5.3063,5.3601,5.4079,5.4691,5.5443,5.5458,5.5532,5.5785,5.5386,5.4884,5.4293,5.4188,5.3837,5.3203,5.2972,5.2087,5.0693,5.0462,4.951,4.8105,4.8105,4.8049,4.7952,4.7693,4.7406,4.6951,4.5385,4.4566,4.4308,4.4476,4.445,4.4361,0.0,0.0,0.0,0.0,0.0,0.0,1.78,1.7618,1.7885,1.8917,2.1153,2.3473,2.5695,2.7576,2.898,2.9698,2.7317,2.575,2.5656,2.396,2.3832,2.5817,2.7574,2.9796,3.2533,3.361,3.5018,3.6813,3.7951,3.8726,3.9221,4.0029,4.0745,4.1367,4.1882,4.2446,4.3075,4.3443,4.3124,4.2162,4.0048,3.823,3.6511,3.415,3.3153,3.2811,3.0913,3.013,2.9689,2.7632,0.0,0.0,0.0,0.0,0.0,0.0,0.0,0.0,0.0,0.0,0.0,0.0,0.0,0.0,0.0,0.0,0.0,0.0,0.0,0.0,0.0,0.0,0.0,0.0,4.3613,4.7109,4.9043,5.0625,5.2324,5.4316,5.5195,5.5683,5.582,5.539,5.5272,5.5705,5.5723,5.5927,5.6338,5.6317,5.6273,5.6273,5.6025,5.5691,5.5215,5.5075,5.4741,5.4241,5.3914,5.3222,5.2279,5.1914,5.1183,5.024,5.024,5.024,5.0183,4.9471,4.9067,4.8739,0.0,0.0,0.0,0.0,4.5682,4.6136,0.0,0.0,0.0,0.0,0.0,0.0,1.78,1.78,1.8162,1.9147,2.1616,2.3629,2.453,2.6369,2.7519,2.7435,2.5558,2.4526,2.4919,2.4977,2.5391,2.6224,2.8881,3.1157,3.2826,3.5128,3.6652,3.7364,3.9071,3.99,3.9918,4.0818,4.1762,4.272,4.2489,4.2946,4.3909,4.4297,4.4028,4.3431,4.4162,4.3439,4.1647,3.8612,3.791,3.8076,3.4791,3.2771,3.1453,3.0138,0.0,0.0,0.0,0.0,0.0,0.0,0.0,0.0,0.0,0.0,0.0,0.0,0.0,0.0,0.0,0.0,0.0,0.0,0.0,0.0,0.0,0.0,0.0,0.0,4.8066,5.1933,5.5273,5.582,5.584,5.5742,5.7109,5.7695,5.6836,5.6758,5.6758,5.6758,5.6758,5.6797,5.6894,5.6681,0.0,0.0,0.0,5.5936,5.5936,5.5779,5.5703,5.5684,5.4972,5.4587,5.4472,5.3703,5.3299,5.3203,5.3203,5.3203,5.3087,5.1606,5.0923,5.0682,4.9269,4.8073,4.7159,4.7159,4.7643,4.815,0.0,0.0,0.0,0.0,0.0,0.0,1.78,1.78,1.7965,1.8447,2.0849,2.244,2.2268,2.4509,2.5795,2.5202,2.4203,2.3894,2.4547,2.4864,2.6606,3.0213,3.0578,3.1912,3.4477,3.5697,3.6376,3.6523,3.8781,3.99,3.9918,4.1387,4.2189,4.2451,4.3601,4.4241,4.4474,4.5093,4.5267,4.5133,4.5287,4.3937,4.1771,4.1165,4.0211,3.8951,3.6969,3.6559,3.6362,3.2735,3.2207,3.2571,2.9632,2.8143,0.0,0.0,0.0,0.0,0.0,0.0,0.0,0.0,0.0,0.0,0.0,0.0,0.0,0.0,0.0,0.0,0.0,0.0,0.0,4.9121,5.2383,5.5273,5.8066,5.9004,5.918,5.8515,5.873,5.8613,5.7734,5.7656,5.7656,5.7656,5.7656,5.7969,5.8652,5.8007,5.7615,5.7615,5.666,5.6146,5.6146,5.5844,5.5703,5.5703,5.553,0.0,5.4491,5.4337,5.3857,5.3203,5.3203,5.3203,5.3164,5.2856,5.2299,5.1442,4.9125,4.7935,4.7498,4.7498,4.784,4.8268,0.0,0.0,0.0,0.0,0.0,0.0,1.78,1.78,1.8136,1.9031,2.032,2.1336,2.189,2.282,2.3255,2.2883,2.251,2.2781,2.3881,2.5736,2.8032,3.0769,3.2388,3.3974,3.561,3.6468,3.7107,3.7496,3.9515,4.0506,4.0543,4.2139,4.2892,4.2961,4.4097,4.4593,4.4669,4.5782,4.599,4.5633,4.6067,4.522,4.3709,4.374,4.2999,4.1718,4.0054,3.8982,3.7893,3.4941,3.3947,3.3574,3.1476,3.0154,2.9148,0.0,0.0,0.0,0.0,0.0,0.0,0.0,0.0,0.0,0.0,0.0,0.0,0.0,0.0,4.0095,4.3183,0.0,4.9473,5.3379,5.5469,5.7344,5.9492,6.0156,6.0098,5.9297,5.9551,5.9297,5.8027,5.8281,5.8379,5.793,5.8301,5.8555,5.8555,5.8555,5.8359,5.791,5.7602,5.7456,5.7456,5.6722,5.6349,5.6349,5.5915,5.5491,5.5107,5.5107,5.4857,5.4453,5.4453,5.4453,5.4395,5.3549,5.2692,5.1769,5.05,4.9643,4.9156,4.9156,4.9299,4.9463,0.0,0.0,0.0,0.0,0.0,0.0,0.0,1.7698,1.8222,1.941,1.9697,2.02,2.1316,2.1025,2.0801,2.0953,2.1241,2.2155,2.3917,2.6669,2.9122,3.1109,3.3795,3.5652,3.6505,3.718,3.7896,3.8707,4.0306,4.1168,4.1352,4.2818,4.3515,4.3531,4.4266,4.4687,4.4928,4.6318,4.6586,4.6124,4.6682,4.649,4.5825,4.5671,4.5232,4.4471,4.2563,4.0447,3.8296,3.6654,3.4975,3.346,3.2811,3.1999,3.0934,2.915,2.8385,0.0,0.0,0.0,0.0,0.0,0.0,0.0,0.0,3.6551,3.7861,4.1338,4.3318,4.5527,4.9219,5.1855,5.4258,5.6719,5.7832,5.8926,6.0449,6.0644,6.0351,5.9531,6.0019,5.9863,5.8515,5.8887,5.8965,5.8437,5.9043,5.9199,5.8672,5.914,5.9101,5.8418,5.8614,5.8734,5.8707,5.7761,5.7287,5.7253,5.653,5.6203,5.6203,5.603,5.5953,5.5934,5.5761,5.5703,5.5568,5.4068,5.3049,5.2385,5.2212,5.176,5.1164,5.0991,5.0933,5.0865,0.0,0.0,0.0,0.0,0.0,0.0,0.0,0.0,1.7867,1.802,1.8623,1.8843,1.8358,1.8809,1.9418,2.0082,2.1383,2.3359,2.615,2.6707,2.9144,3.4162,3.4089,3.4988,3.7312,3.7456,3.7896,3.8707,4.0306,4.1462,4.2194,4.3075,4.3515,4.3531,4.4266,4.5008,4.5721,4.6537,4.7259,4.7778,4.7163,4.6827,4.6682,4.5893,4.5545,4.5167,4.2694,4.0759,3.9103,3.7444,3.583,3.4531,3.4433,3.3765,3.2696,3.0993,2.9367,2.8391,2.9742,3.0899,3.2455,3.5528,3.6014,3.771,0.0,4.5945,4.5957,4.9394,5.0879,5.1933,5.3203,5.4922,5.6777,5.8613,5.959,6.0469,6.1426,6.1543,6.123,6.0371,6.0351,6.0332,6.0137,5.9551,5.9453,6.0078,6.0215,6.0566,6.123,6.0625,6.0215,6.0117,5.9308,5.882,5.8707,5.8459,5.8269,5.8146,5.8069,5.8011,5.7992,5.7203,5.6849,5.681,5.603,5.5703,5.5626,5.4722,5.4299,5.4126,5.3356,5.301,5.2837,5.2038,5.1769,5.1654,0.0,0.0,0.0,0.0,0.0,0.0,0.0,0.0,0.0,1.8386,1.8335,1.8318,1.8437,1.8724,1.9012,1.9321,2.0771,2.2902,2.5879,2.7552,3.0176,3.4038,3.5006,3.6302,3.8175,3.8193,3.8817,4.0086,4.124,4.1974,4.2323,4.3112,4.3515,4.3549,4.4753,4.548,4.591,4.762,4.8259,4.8067,4.774,4.7317,4.675,4.5374,4.3921,4.2447,4.0938,3.9045,0.0,3.4795,3.3996,3.3818,3.3378,3.2987,3.2321,3.0602,3.0285,3.108,3.3796,3.5183,3.6529,3.9414,4.1436,4.3903,4.8529,4.9413,5.0254,5.3711,5.4726,5.5527,5.7383,5.832,5.9219,6.0449,6.0937,6.1289,6.164,6.1269,6.0449,5.9101,5.8945,5.914,5.9648,5.9824,6.0039,6.0371,6.0879,6.1094,6.0957,6.1074,6.0918,6.043,6.0405,6.0348,6.02,5.958,5.9176,5.8992,5.8531,5.83,5.83,5.7915,5.7473,5.6945,5.6069,5.5703,5.5645,5.4818,5.4491,5.4453,5.4107,5.3953,5.3857,5.2991,5.2654,5.2606,0.0,0.0,0.0,0.0,0.0,0.0,0.0,0.0,0.0,0.0,1.8065,1.8143,1.875,1.9001,1.9172,1.9313,2.0526,2.2466,2.5258,2.7391,2.9944,3.3106,3.4945,3.6783,3.8655,3.8927,3.9827,4.1425,4.2011,4.2415,4.2635,4.3222,4.3515,4.3549,4.4748,4.5625,4.6269,4.8119,4.8741,4.8432,4.8202,4.7336,4.597,4.3989,4.1532,3.9119,3.8794,3.6762,3.3954,3.2216,3.1762,3.1918,3.1854,3.1836,3.168,3.0879,3.2051,3.4082,3.6328,3.8105,3.998,4.2773,4.5918,4.8887,5.1094,5.2422,5.3984,5.6758,5.7324,5.7871,5.9726,6.0078,6.0351,6.1191,6.1348,6.1348,6.1348,6.0605,5.9433,5.7734,5.7324,5.7539,5.8398,5.9238,5.9902,6.0371,6.0976,6.1172,6.0781,6.1367,6.1406,6.0781,6.1276,6.1465,6.1309,6.0582,6.0092,5.9858,5.9281,5.8992,5.8973,5.8742,5.8165,5.7319,5.6684,5.628,5.6011,5.5434,5.5049,5.4818,5.4818,5.4818,5.4741,5.4126,5.376,5.353,0.0,0.0,0.0,0.0,0.0,0.0,0.0,0.0,0.0,0.0,0.0,0.0,0.0,1.9263,1.9868,2.0315,2.1039,2.2483,2.4856,2.5456,2.7615,3.1866,3.3235,3.5398,3.8637,3.946,4.0653,4.2268,4.2286,4.269,4.346,4.3496,4.3515,4.3513,4.3902,4.5165,4.7095,4.7493,4.8309,4.9298,4.8432,4.6605,4.4105,4.1574,3.8593,3.5855,3.6603,3.4246,3.0753,3.0739,2.9713,2.873,3.041,3.0937,3.125,3.2812,3.5117,3.6973,3.623,3.8535,4.1933,4.5332,4.8164,5.0996,5.4375,5.6465,5.7969,5.8926,5.9121,5.914,5.9219,5.9238,5.9492,6.0312,6.0449,6.0449,6.0449,5.9746,5.8594,5.6855,5.5898,5.5723,5.6582,5.7461,5.8652,6.0273,6.043,6.0801,6.1621,6.1699,6.1699,6.166,6.168,6.1575,6.1309,6.1264,6.1097,6.0762,6.0742,6.0723,6.0704,5.9858,5.9031,5.8261,5.8242,5.7742,5.6964,5.6926,5.6426,5.5665,5.5665,5.5665,5.5665,5.5626,5.5126,5.4337,0.0,0.0,0.0,0.0,0.0,0.0,0.0,0.0,0.0,0.0,0.0,0.0,0.0,0.0,0.0,0.0,2.0613,2.1725,2.3369,2.4736,2.6623,2.9223,3.1918,3.4527,3.7041,3.7915,3.935,4.1515,4.0965,4.1111,4.1919,4.1919,4.2194,4.2725,4.3658,4.488,4.6293,4.7203,4.7648,4.7567,4.5586,4.3912,4.2247,3.8626,3.5498,3.2967,0.0,3.065,2.884,2.7759,2.7401,2.7441,2.7441,2.8242,2.9844,3.3262,3.5703,3.7988,4.1113,4.3672,4.6269,4.9687,5.1641,5.3633,5.7109,5.789,5.8144,5.9023,5.8281,5.7305,5.6719,5.6601,5.707,5.8515,5.9238,5.9785,6.0312,6.0176,5.8711,5.5273,5.5644,5.5371,5.3359,5.5508,5.7969,6.0234,6.039,6.0781,6.164,6.1699,6.1699,6.1699,6.1699,6.1577,6.1309,6.1303,6.1124,6.08,6.08,6.08,6.0762,5.9896,5.9358,5.9069,5.8531,5.8127,5.7857,5.7857,5.7338,5.6618,5.7203,5.7069,5.6637,5.7203,5.7242,5.6819,0.0,0.0,0.0,0.0,0.0,0.0,0.0,0.0,0.0,0.0,0.0,0.0,0.0,0.0,0.0,0.0,0.0,2.1025,2.2124,2.3689,2.5321,2.6997,2.9868,3.2403,3.4504,3.5344,3.6652,3.849,3.7973,3.7973,3.849,3.8784,3.9205,3.9751,4.09,4.2079,4.3183,4.3756,4.3895,4.3547,4.1604,3.9931,3.8272,3.501,3.2397,0.0,2.8634,2.7722,2.7133,2.6054,2.6289,2.6953,2.6719,2.8652,3.1582,3.4355,3.7266,4.0527,4.4766,4.7402,4.9785,5.3223,5.4746,5.6055,5.8613,5.8281,5.7422,5.7344,5.5957,5.4473,5.3633,5.2969,5.3418,5.6074,5.6719,5.748,5.9258,5.9238,5.8125,5.5683,5.582,5.5508,5.3887,5.5742,5.7617,5.8945,5.9883,6.0644,6.1211,6.1523,6.1699,6.1699,6.1657,6.1515,6.1309,6.1227,6.107,6.08,6.08,6.08,6.0781,6.0223,5.9954,5.9935,5.9415,5.9031,5.8723,5.8723,5.8223,5.7511,5.8088,5.7953,5.753,5.8088,5.8492,5.8531,0.0,0.0,0.0,0.0,0.0,0.0,0.0,0.0,0.0,0.0,0.0,0.0,0.0,0.0,0.0,0.0,0.0,0.0,2.1119,2.2291,2.362,2.5059,2.709,2.9105,3.1054,3.1916,3.2766,3.3623,3.3623,3.3642,3.3697,3.4454,3.4839,3.4926,3.5948,3.7069,3.8169,3.7612,3.7519,3.7712,3.6808,3.4968,3.2608,3.0941,2.9361,2.7818,2.6191,2.5657,2.5703,2.5801,2.6504,2.748,2.8359,3.207,3.6172,3.6348,3.9961,4.4473,4.7148,4.9687,5.2402,5.5762,5.7226,5.8047,5.8828,5.7656,5.5898,5.4101,5.2324,5.0801,4.9961,4.8555,4.8926,5.3183,5.332,5.4101,5.7539,5.7344,5.7129,5.7812,5.6484,5.6113,5.7676,5.791,5.7617,5.6797,5.9004,6.043,6.0469,6.125,6.1699,6.1699,6.1577,6.146,6.1367,6.1155,6.0983,6.08,6.08,6.08,6.08,6.08,6.08,6.08,6.08,6.0319,5.9569,5.9569,5.9088,5.8377,5.8415,5.8396,5.8377,5.8415,5.8915,5.9454,0.0,0.0,0.0,0.0,0.0,0.0,0.0,0.0,0.0,0.0,0.0,0.0,0.0,0.0,0.0,0.0,0.0,0.0,1.9587,2.0572,2.1261,2.1515,2.3941,2.5787,2.6917,2.8301,2.9714,3.1127,3.1127,3.1421,3.2021,3.221,3.2651,3.3225,3.3487,3.4297,3.5432,3.5411,3.5228,3.4825,3.3506,3.2239,3.0869,2.8593,2.7512,2.7066,2.6047,2.5683,2.5898,2.7207,2.9473,3.1914,3.2793,3.5312,3.8437,4.0996,4.4043,4.7305,5.0527,5.2812,5.4668,5.6211,5.6777,5.6816,5.6387,5.4941,5.3027,5.0683,4.8301,4.6172,4.4668,4.5625,4.7812,5.1465,5.4062,5.6582,5.9375,6.0137,5.9785,5.8105,0.0,5.7871,5.7012,5.8105,5.8789,5.8555,5.9687,6.0683,6.1328,6.1582,6.1699,6.1699,6.1577,6.1709,6.2198,6.194,6.1477,6.08,6.08,6.08,6.08,6.08,6.08,6.08,6.08,6.0666,6.0473,6.0473,5.9973,5.9261,5.9915,5.9762,5.9281,5.9915,6.0281,6.0435,0.0,0.0,0.0,0.0,0.0,0.0,0.0,0.0,0.0,0.0,0.0,0.0,0.0,0.0,0.0,0.0,0.0,0.0,0.0,2.0123,2.0541,2.0343,2.2145,2.352,2.4318,2.4897,2.5768,2.7042,2.6751,2.6829,2.73,2.8087,2.8703,2.9148,2.9634,3.0403,3.1346,3.0801,3.0612,0.0,0.0,2.8625,2.8067,2.6741,2.6245,2.6224,2.5837,2.6934,2.8809,3.0527,3.3144,3.5957,3.7533,4.0114,4.3086,4.5762,4.8105,5.0508,5.3574,5.5683,5.7129,5.7617,5.7441,5.664,5.4629,5.2246,4.9512,4.6191,4.4043,4.2344,4.0976,4.2246,4.4863,4.9043,5.2012,5.5078,5.8789,6.0058,6.0351,0.0,6.0,0.0,5.9473,6.0644,6.1445,6.1445,6.1152,6.1172,6.168,6.2051,6.2109,6.1719,6.2232,6.263,6.2844,6.2356,6.1851,6.1358,6.0973,6.08,6.08,6.08,6.08,6.08,6.08,6.08,6.08,6.08,6.0512,6.0127,6.0608,6.0492,6.0127,6.0608,6.08,6.08,0.0,0.0,0.0,0.0,0.0,0.0,0.0,0.0,0.0,0.0,0.0,0.0,0.0,0.0,0.0,0.0,0.0,0.0,0.0,0.0,2.0552,2.0394,2.1086,2.1803,2.2528,2.1975,2.2029,2.2719,2.2259,2.2028,2.2066,2.363,2.4425,2.4583,2.5396,2.6268,2.7056,2.5674,2.559,2.6326,2.5591,2.5308,2.5344,0.0,2.55,2.5547,2.566,2.8281,3.2012,3.412,3.6894,3.9863,4.2243,4.5342,4.8476,5.0332,5.1914,5.3613,5.623,5.8047,5.918,5.9062,5.8281,5.6582,5.2871,4.9453,4.582,4.1406,3.9804,3.8984,3.8203,3.9062,4.1582,4.6758,4.9141,5.2207,5.748,5.8789,5.9863,6.166,6.1875,6.2207,6.3086,6.3867,6.4355,6.4453,6.2969,6.1992,6.1875,6.2695,6.2812,6.2007,6.3243,6.3737,6.3301,6.2724,6.2332,6.2101,6.132,6.0916,6.08,6.08,6.08,6.08,6.08,6.08,6.08,6.08,6.08,6.08,6.08,6.08,6.08,6.08,6.08,6.08,0.0,0.0,0.0,0.0,0.0,0.0,0.0,0.0,0.0,0.0,1.6244,0.0,0.0,0.0,0.0,0.0,0.0,0.0,0.0,0.0,0.0,1.9764,1.9748,1.9888,2.0184,2.0704,2.11,2.1352,2.1903,2.2173,2.2173,2.2489,2.3025,2.3686,2.3153,2.3791,2.522,2.4397,2.4524,2.5287,2.5282,2.5371,2.5477,2.5481,0.0,0.0,2.5683,2.7109,2.9667,3.4117,3.9306,4.4219,4.6093,4.8554,5.1211,5.3691,5.4629,5.543,5.8047,5.8965,5.9023,5.8301,5.6933,5.4473,4.9609,4.6348,0.0,3.786,3.6168,3.5546,3.5339,3.7829,4.1582,4.6758,4.9629,5.3242,5.914,5.9512,6.0098,0.0,6.2773,6.3125,6.3984,6.4219,6.4609,6.5312,6.4433,6.3535,6.2812,6.3594,6.3871,6.3453,6.4213,6.4193,6.332,6.3878,6.3474,6.2101,6.1947,6.1493,6.08,6.08,6.08,6.08,6.08,6.08,6.08,6.08,6.08,6.08,6.08,6.08,6.08,6.08,6.08,6.08,0.0,0.0,0.0,0.0,0.0,0.0,0.0,0.0,0.0,0.0,1.7904,1.7813,0.0,0.0,0.0,0.0,0.0,0.0,0.0,0.0,0.0,0.0,1.9506,1.971,2.0215,2.0092,2.0334,2.0998,0.0,2.0991,2.1074,2.1583,2.2059,2.2465,2.2503,2.2991,2.377,2.3905,2.3912,2.3936,2.4918,2.4833,2.4252,0.0,0.0,0.0,0.0,2.7109,2.9472,3.2804,3.7379,4.2422,4.6809,4.9977,5.25,5.4668,5.5625,5.6543,5.9121,5.9824,5.9629,5.8789,5.6582,5.3144,4.7477,0.0,0.0,3.4893,3.3863,3.3779,3.3334,3.612,3.9762,4.3633,4.6035,4.9824,5.6777,5.7012,5.8105,6.248,6.3398,6.4023,6.4883,6.539,6.582,6.625,6.5898,6.5273,6.4394,6.425,6.4489,6.5128,6.4918,6.4741,6.4647,6.4628,6.3974,6.2724,6.2312,6.1639,6.08,6.08,6.08,6.08,6.08,6.08,6.08,6.08,6.08,6.08,6.08,6.08,6.08,6.08,6.1089,6.1485,0.0,0.0,0.0,0.0,0.0,0.0,0.0,1.6708,1.7632,1.895,1.9489,1.9562,1.897,1.8193,1.7622,0.0,0.0,0.0,0.0,0.0,0.0,0.0,0.0,0.0,0.0,0.0,0.0,2.0854,2.0221,0.0,0.0,0.0,0.0,0.0,2.2216,2.2624,2.2836,2.3528,2.3432,0.0,0.0,2.4196,0.0,0.0,0.0,0.0,0.0,2.6855,2.9082,3.1211,3.416,3.8007,4.4064,4.8567,5.1953,5.3691,5.5332,5.7129,5.9492,6.041,6.039,5.9219,5.6308,5.207,4.5787,4.1698,3.7798,3.2658,3.2162,3.2503,3.2062,3.4384,3.7427,4.0664,4.2441,4.6133,5.3926,5.459,5.6445,6.2305,6.3769,0.0,6.5781,6.668,6.7109,6.6914,6.6894,6.6601,6.5918,6.4882,6.4963,6.6354,6.5515,6.5305,6.5878,6.5224,6.4359,6.3288,6.2839,6.1993,6.08,6.0993,6.0973,6.08,6.08,6.08,6.08,6.08,6.08,6.08,6.08,6.08,6.08,6.08,6.1223,6.1831,0.0,0.0,0.0,0.0,0.0,0.0,0.0,1.6762,1.8427,1.9656,1.9756,1.9675,1.9613,1.8477,1.7411,0.0,0.0,0.0,0.0,0.0,0.0,0.0,0.0,0.0,0.0,0.0,0.0,2.0352,2.0299,0.0,0.0,0.0,0.0,0.0,0.0,2.2062,2.2816,2.2893,0.0,0.0,0.0,0.0,0.0,0.0,0.0,0.0,0.0,2.5176,2.6562,2.9902,3.1289,3.2266,3.5996,4.2187,4.8418,5.0156,0.0,0.0,5.8828,6.043,6.1015,5.8613,5.539,5.1015,4.4107,0.0,3.6148,3.1561,3.0745,3.1056,3.1791,3.2877,3.5318,4.0371,4.1933,4.5234,5.3027,5.4726,5.7129,6.2383,0.0,0.0,6.6621,6.7578,6.7754,6.6953,6.6894,6.6875,6.6777,6.5648,6.5446,6.6367,6.601,6.5839,6.5897,6.582,6.4955,6.3308,6.4032,6.3128,6.0819,6.162,6.155,6.08,6.08,6.08,6.08,6.08,6.08,6.08,6.08,6.08,6.08,6.08,6.0839,6.0916,0.0,0.0,0.0,0.0,0.0,0.0,0.0,1.7052,1.8187,2.0442,2.0633,2.0338,1.9757,1.8963,1.7738,0.0,0.0,0.0,0.0,0.0,0.0,0.0,0.0,0.0,0.0,0.0,2.0026,2.0308,2.0188,0.0,0.0,0.0,0.0,0.0,0.0,2.1427,2.1354,2.2416,0.0,0.0,0.0,0.0,0.0,0.0,0.0,0.0,0.0,0.0,2.4394,2.5742,2.6894,0.0,2.9375,3.373,3.9375,4.4726,4.9355,5.3457,5.6738,5.8887,5.9824,5.8281,5.4121,4.8983,4.3498,0.0,3.3966,3.1047,3.0042,2.9986,3.089,3.2246,3.4109,3.6785,3.7967,4.0898,4.7637,4.8887,5.1992,5.9785,6.1445,6.3262,6.6582,6.7207,6.7265,6.6933,6.7383,6.7441,6.6933,6.6245,6.6037,6.6387,6.6067,6.5897,6.5897,6.5897,6.5282,6.4089,6.4436,6.3531,6.1601,6.1947,6.162,6.08,6.08,6.08,6.08,6.08,6.08,6.08,6.08,6.08,6.08,6.08,6.1127,6.1581,0.0,0.0,0.0,0.0,0.0,0.0,1.7535,1.7453,1.8056,2.0318,2.0448,2.0186,1.9774,1.8857,1.7622,1.608,0.0,0.0,0.0,0.0,0.0,0.0,0.0,0.0,0.0,0.0,2.0069,2.0308,2.0156,2.0161,0.0,0.0,2.0295,2.0334,0.0,0.0,0.0,0.0,0.0,0.0,0.0,0.0,0.0,0.0,0.0,0.0,0.0,0.0,0.0,0.0,0.0,0.0,0.0,2.775,3.1991,3.8984,4.4668,4.9433,5.2988,5.5762,5.7383,5.6248,5.199,4.6923,0.0,0.0,3.2943,3.0838,2.991,2.969,3.0365,3.1546,3.2878,3.4362,3.5597,3.8378,4.418,4.5664,4.9023,5.6738,5.8613,6.0879,6.4961,6.6289,6.7109,6.7637,6.7754,6.7558,6.6933,6.6576,6.6406,6.6406,6.6067,6.5897,6.5897,6.5897,6.5455,6.4609,6.4859,6.3974,6.212,6.2339,6.1993,6.1166,6.0916,6.0954,6.1146,6.0916,6.08,6.08,6.08,6.08,6.08,6.08,6.1185,6.1716,0.0,0.0,0.0,0.0,0.0,0.0,0.0,1.792,1.8308,1.8946,1.8726,1.8857,1.9715,1.7846,1.6833,1.7603,0.0,0.0,0.0,0.0,0.0,0.0,0.0,0.0,0.0,0.0,2.0308,2.0308,2.0308,2.0308,2.0292,2.0308,2.0307,2.0332,0.0,0.0,0.0,0.0,0.0,0.0,0.0,0.0,0.0,0.0,0.0,0.0,0.0,0.0,0.0,0.0,0.0,0.0,0.0,2.5538,2.7992,3.3241,3.9668,4.5449,4.7207,5.0801,5.3612,5.1829,4.8777,4.5048,4.0543,3.6867,3.3635,3.0945,3.0385,3.0411,3.0495,3.0522,3.1417,3.4162,3.6051,3.9011,4.4257,4.7226,5.0156,5.3633,5.5586,5.7988,6.1426,6.4863,6.7617,6.9336,6.7871,6.6914,6.6894,6.6576,6.6406,6.6406,6.6067,6.5897,6.5897,6.5897,6.5455,6.4609,6.5474,6.4551,6.2139,6.2916,6.2858,6.2043,6.1166,6.1281,6.2024,6.1146,6.08,6.08,6.08,6.08,6.08,6.08,6.08,6.08,0.0,0.0,0.0,0.0,0.0,0.0,0.0,1.5941,1.6145,1.7527,1.7214,1.7202,1.8123,1.7187,1.6603,1.6853,0.0,0.0,0.0,0.0,0.0,0.0,0.0,0.0,0.0,0.0,1.9969,2.1115,2.1115,2.1427,2.2008,2.1448,2.1198,2.1181,2.0925,2.0817,0.0,0.0,0.0,0.0,0.0,0.0,2.0909,0.0,0.0,0.0,0.0,0.0,0.0,0.0,0.0,0.0,0.0,0.0,0.0,2.8473,3.3408,3.8594,4.1543,4.3729,4.5051,4.4474,4.1685,3.8405,3.5733,3.2473,2.9937,2.9583,2.9063,2.9061,3.0221,3.0956,3.228,3.4973,3.6912,3.9284,4.2734,4.6504,5.0391,5.4414,6.0078,6.4297,6.5976,6.7148,6.8027,6.8574,6.8105,6.7539,6.6933,6.6576,6.6406,6.6406,6.6067,6.5897,6.5897,6.5301,6.4878,6.4609,6.4878,6.3993,6.2139,6.2935,6.2551,6.1204,6.0916,6.0954,6.1185,6.0916,6.08,6.08,6.08,6.08,6.08,6.08,6.08,6.08,0.0,0.0,0.0,0.0,0.0,0.0,0.0,1.5514,1.5419,1.6501,1.6087,1.6162,1.7397,1.6615,1.6253,1.691,0.0,0.0,0.0,0.0,0.0,0.0,0.0,0.0,0.0,1.8838,1.9815,2.1504,2.1504,2.1952,2.2829,2.2353,2.1978,2.1655,2.1182,2.1142,0.0,0.0,0.0,0.0,0.0,0.0,2.0507,0.0,0.0,0.0,0.0,0.0,0.0,0.0,0.0,0.0,0.0,0.0,0.0,0.0,2.8636,3.2059,3.5889,3.799,3.9087,3.9043,3.6885,0.0,3.2908,3.0414,2.8555,2.9014,2.8703,2.8775,3.0154,3.0879,3.2043,3.4404,3.6303,3.8504,4.1458,4.5644,5.0254,5.5195,6.1484,6.5762,6.664,6.7617,6.8203,6.8203,6.789,6.7461,6.6933,6.6576,6.6406,6.6406,6.6067,6.5897,6.5897,6.5359,6.4936,6.4609,6.4609,6.3724,6.212,6.2627,6.2281,6.1262,6.0935,6.0993,0.0,6.0935,6.08,6.08,6.08,6.08,6.08,6.08,6.08,6.08,0.0,0.0,0.0,0.0,0.0,0.0,0.0,0.0,0.0,0.0,1.5341,1.5628,1.7247,1.6108,1.583,0.0,0.0,0.0,0.0,0.0,0.0,0.0,0.0,0.0,0.0,1.8598,1.9823,2.1504,2.1562,2.2065,2.2992,2.3047,2.2654,2.1893,2.1893,2.2344,0.0,0.0,0.0,0.0,0.0,0.0,0.0,0.0,0.0,0.0,0.0,0.0,0.0,0.0,0.0,0.0,0.0,0.0,0.0,0.0,0.0,0.0,0.0,3.3259,3.5023,3.4908,3.371,3.2313,3.1438,2.9987,0.0,2.8915,2.8973,2.9319,3.0308,3.05,3.116,3.3229,3.4975,3.7303,4.0861,4.5385,5.0508,5.6367,6.0742,6.3594,6.4414,6.668,6.8125,6.8203,6.7383,6.6894,6.6874,6.6572,6.6381,6.6387,6.6076,6.5859,6.5801,6.5743,6.5282,6.4416,6.4416,6.357,6.2005,6.2082,6.2082,6.1966,6.1146,6.1262,6.1947,6.1127,6.08,6.08,6.08,6.08,6.08,6.08,6.08,6.08,0.0,0.0,0.0,0.0,0.0,0.0,0.0,0.0,0.0,0.0,1.5059,1.5192,1.5715,1.543,0.0,0.0,0.0,0.0,0.0,0.0,0.0,0.0,0.0,0.0,0.0,1.8974,1.9864,2.1504,2.2177,2.2945,2.3827,2.3891,2.3484,2.2699,2.2141,2.2012,2.2168,0.0,0.0,0.0,0.0,0.0,0.0,0.0,0.0,0.0,2.0304,2.0308,0.0,0.0,0.0,0.0,0.0,0.0,0.0,0.0,2.4857,2.5573,2.6603,0.0,2.7835,2.7815,2.7456,2.7085,0.0,2.6481,2.6385,2.7044,2.7717,2.8832,3.1006,3.1385,3.2823,3.7209,3.8358,4.0151,4.4317,5.101,5.6973,6.1015,6.414,6.6055,6.6269,6.6836,6.748,6.8144,6.7383,6.6833,6.6685,6.6508,6.6327,6.6181,6.5986,6.557,6.4916,6.4243,6.3493,6.2685,6.2685,6.2139,6.1127,6.1812,6.1735,6.1089,6.0877,6.0916,6.1089,6.0877,6.08,6.08,6.08,6.08,6.08,6.08,6.08,6.08,0.0,0.0,0.0,0.0,0.0,0.0,0.0,0.0,0.0,0.0,0.0,0.0,0.0,0.0,0.0,0.0,0.0,0.0,0.0,0.0,0.0,0.0,0.0,0.0,1.9076,1.9096,2.0077,2.21,2.2566,2.3439,2.4709,2.4774,2.4174,2.3008,2.224,2.1894,2.1875,2.1365,2.1398,0.0,2.0786,0.0,0.0,0.0,0.0,0.0,2.0981,2.0846,0.0,2.1312,2.0946,2.05,0.0,0.0,0.0,0.0,2.4413,2.4832,2.5192,2.561,2.605,2.6455,2.6227,2.6,2.6404,2.5865,2.5654,2.6928,0.0,2.8679,3.1237,3.2044,3.3638,3.7612,3.9376,4.2321,4.8288,5.3494,5.8262,6.25,6.4961,6.6465,6.6855,6.7265,6.7539,6.7598,6.7168,6.6811,6.6603,6.6473,6.6305,6.6119,6.5585,6.507,6.4609,6.4128,6.3281,6.2101,6.2101,6.1639,6.0819,6.1281,6.1243,6.08,6.08,6.08,6.08,6.08,6.08,6.08,6.08,6.08,6.08,6.08,6.08,6.08,0.0,0.0,0.0,0.0,0.0,0.0,0.0,0.0,0.0,0.0,0.0,0.0,0.0,0.0,0.0,0.0,0.0,0.0,0.0,0.0,0.0,0.0,0.0,1.8544,1.948,1.9353,2.0444,2.2797,2.2932,2.3827,2.5399,2.5604,2.476,2.3068,2.2127,2.1699,2.1699,2.1631,2.16,2.1513,2.0658,0.0,0.0,0.0,0.0,0.0,0.0,0.0,0.0,2.2547,2.1773,2.0731,2.2158,0.0,0.0,0.0,0.0,0.0,2.5269,2.6327,2.7236,2.7448,2.714,2.6967,2.7563,0.0,0.0,0.0,0.0,2.9261,3.1836,3.3064,3.462,3.7429,4.0535,4.5183,5.2636,5.5176,5.8008,6.2656,6.4746,6.6035,6.664,6.748,6.7695,6.6953,6.6874,6.6764,6.658,6.6441,6.6221,6.5886,6.5041,6.4474,6.4224,6.4224,6.3512,6.2101,6.1966,6.1524,6.08,6.08,6.08,6.08,6.08,6.08,6.08,6.08,6.08,6.08,6.08,6.08,6.08,6.08,6.08,6.08,0.0,0.0,0.0,0.0,0.0,0.0,0.0,0.0,0.0,0.0,0.0,0.0,0.0,0.0,0.0,0.0,0.0,0.0,0.0,0.0,0.0,0.0,1.9391,1.9722,2.1267,2.0515,2.1001,2.2797,2.3548,2.4384,2.5322,2.6191,2.5377,2.3105,2.1504,2.0801,2.0801,2.0732,2.0668,2.0593,2.0385,0.0,0.0,0.0,0.0,0.0,0.0,0.0,0.0,2.2759,2.2139,2.137,2.162,0.0,0.0,0.0,0.0,0.0,2.6173,2.8077,2.9154,2.6385,2.6717,2.7544,2.6948,2.7698,0.0,0.0,0.0,3.1985,3.4541,3.5775,3.7715,4.1754,4.6529,5.1702,5.7402,5.9648,6.1562,6.3828,6.5644,6.6465,6.5859,6.6582,6.7031,6.6914,6.674,6.658,6.6435,6.6252,6.5741,6.4867,6.4672,6.3916,6.2505,6.2486,6.2351,6.2101,6.1351,6.0935,6.08,6.08,6.08,6.08,6.08,6.08,6.08,6.08,6.08,6.08,6.08,6.08,6.08,6.08,6.08,6.08,0.0,0.0,0.0,0.0,0.0,0.0,0.0,0.0,0.0,0.0,0.0,0.0,0.0,0.0,0.0,0.0,0.0,0.0,0.0,0.0,0.0,2.0483,2.0501,2.0866,2.1635,2.1216,2.204,2.4159,2.4543,2.5178,2.5986,2.5147,2.4191,2.3125,2.1345,2.0815,2.1204,2.063,2.0642,2.1041,0.0,0.0,0.0,0.0,0.0,0.0,0.0,0.0,0.0,0.0,2.1927,2.1,2.1927,0.0,0.0,0.0,0.0,0.0,2.5673,2.7465,2.8835,2.7746,2.9447,3.1183,3.0354,3.077,3.1577,0.0,0.0,3.4749,3.7288,3.9298,4.2299,4.7567,5.1256,5.4801,5.8652,5.9453,6.0625,6.3281,6.4297,6.5019,6.5547,6.6387,6.6894,6.6894,6.6713,6.6533,6.6419,6.6204,6.5642,6.464,6.4147,6.3531,6.2762,6.1839,6.1408,6.1389,6.0993,6.08,6.08,6.08,6.08,6.08,6.08,6.08,6.08,6.08,6.08,6.08,6.08,6.08,6.08,6.08,6.08,6.08,0.0,0.0,0.0,0.0,0.0,0.0,0.0,0.0,0.0,0.0,0.0,0.0,0.0,0.0,0.0,0.0,0.0,0.0,0.0,0.0,2.0579,2.078,2.1318,2.1775,2.2182,2.1991,2.3002,2.5308,2.5308,2.5664,2.6293,2.4266,2.3152,2.2792,2.1219,2.0856,2.1413,2.0638,2.08,2.1575,0.0,0.0,0.0,0.0,0.0,0.0,0.0,0.0,0.0,0.0,0.0,0.0,0.0,0.0,0.0,2.3706,2.4221,2.4553,2.5404,2.7091,2.8706,2.9224,3.1444,3.3612,3.4023,3.4264,3.4995,3.7158,3.7773,3.8522,4.0485,4.3209,4.6869,5.2148,5.4805,5.7129,5.9726,5.9687,6.0371,6.2988,6.3652,6.4355,6.5488,6.6191,6.668,6.6875,6.6312,6.5981,6.6082,6.5687,6.4988,6.4044,6.3378,6.2916,6.2724,6.1435,6.0896,6.1089,6.0896,6.08,6.08,6.08,6.08,6.08,6.08,6.08,6.08,6.08,6.08,6.08,6.08,6.08,6.08,6.08,6.08,6.08,0.0,0.0,0.0,0.0,0.0,0.0,0.0,0.0,0.0,0.0,0.0,0.0,0.0,0.0,0.0,0.0,0.0,0.0,0.0,0.0,2.0824,2.1576,2.1607,2.2336,2.3897,2.3126,2.3552,2.5308,2.5308,2.5389,2.5568,2.4643,2.3371,2.1859,2.0919,2.0492,2.049,2.0363,2.0794,2.152,2.0716,0.0,0.0,0.0,0.0,0.0,0.0,0.0,0.0,0.0,0.0,0.0,0.0,0.0,2.3937,2.4052,2.462,2.5428,2.6346,2.8418,3.018,2.9628,3.0197,3.1912,3.5906,3.7403,3.89,4.2247,4.3634,4.4304,4.4479,4.7375,5.0644,5.3457,5.6738,5.9805,6.2363,6.3379,6.3926,6.418,6.5625,6.6348,6.5664,6.5664,6.6035,6.6836,6.5109,6.4356,6.5148,6.4106,6.3132,6.2312,6.2216,6.1812,6.0993,6.0858,6.1204,6.2005,6.1185,6.08,6.08,6.08,6.08,6.08,6.08,6.08,6.08,6.08,6.08,6.08,6.08,6.08,6.08,6.08,6.08,6.08,0.0,0.0,0.0,0.0,0.0,0.0,0.0,0.0,0.0,0.0,0.0,0.0,0.0,0.0,0.0,0.0,0.0,0.0,0.0,0.0,2.1629,2.2479,2.291,2.37,2.4829,2.4027,2.4432,2.6115,2.6154,2.5944,2.5465,2.4167,2.2941,2.1813,2.0905,2.0451,2.0406,2.0322,2.0492,2.0842,2.1578,2.21,0.0,0.0,0.0,0.0,0.0,0.0,0.0,0.0,2.3744,2.3471,2.4524,2.4509,2.4206,2.4697,2.5099,2.5433,2.5801,2.8631,3.1439,3.1181,3.295,3.5337,3.7527,4.0339,4.315,4.5553,4.759,4.8942,4.8942,5.0937,5.3223,5.5273,5.8047,6.0664,6.2715,6.2812,6.2871,6.3437,6.4062,6.4355,6.4023,6.4473,6.4881,6.5137,6.43,6.391,6.4144,6.3626,6.2935,6.2139,6.2101,6.1678,6.08,6.08,6.0973,6.1281,6.0954,6.08,6.08,6.08,6.08,6.08,6.08,6.08,6.08,6.08,6.08,6.08,6.08,6.08,6.08,6.08,6.08,6.08,0.0,0.0,0.0,0.0,0.0,0.0,0.0,0.0,0.0,0.0,0.0,0.0,0.0,0.0,0.0,0.0,0.0,0.0,2.0605,2.1049,2.1827,2.2972,2.3492,2.425,2.5306,2.4795,2.5066,2.6192,2.6273,2.5786,2.4722,2.3897,2.2927,2.1853,2.1472,2.1273,2.1191,2.0876,2.0888,2.1174,2.1768,2.1975,0.0,0.0,0.0,0.0,0.0,0.0,0.0,0.0,2.3875,2.3793,2.4942,2.4928,2.4591,2.5167,2.5352,2.5404,2.5459,2.8102,3.1017,3.1571,3.4334,3.7539,4.0059,4.332,4.6621,4.9453,5.0976,5.1894,5.2168,5.3203,5.457,5.6328,5.8965,6.123,6.2422,6.2305,6.2226,6.2558,6.3086,6.3301,6.3027,6.3535,6.3941,6.4088,6.3419,6.306,6.3173,6.2761,6.2262,6.1716,6.1697,6.1408,6.08,6.08,6.08,6.08,6.08,6.08,6.08,6.08,6.08,6.08,6.08,6.08,6.08,6.08,6.08,6.08,6.08,6.08,6.08,6.08,6.08,6.08,0.0,0.0,0.0,0.0,0.0,0.0,0.0,0.0,0.0,0.0,0.0,0.0,0.0,0.0,0.0,0.0,0.0,0.0,2.0605,2.0559,2.1287,2.302,2.3044,2.3761,2.5363,2.5409,2.5379,2.5308,2.5434,2.468,2.3139,2.4001,2.3474,2.1857,2.2717,2.3053,2.2939,2.2076,2.2175,2.2749,2.1032,2.1322,2.2816,0.0,0.0,0.0,0.0,0.0,0.0,0.0,2.4639,2.5308,2.5308,2.5308,2.5317,2.5379,2.5394,2.5434,2.5561,2.6892,2.8677,3.0488,3.3535,3.7656,4.3652,4.6367,4.9082,5.4258,5.3945,5.3008,5.3867,5.4023,5.4609,5.6328,5.9473,6.1699,6.1699,6.2441,6.2676,6.1797,6.3223,6.3945,6.3066,6.2988,6.3296,6.403,6.2348,6.1583,6.2252,6.1345,6.08,6.08,6.08,6.08,6.08,6.08,6.08,6.08,6.08,6.08,6.08,6.08,6.08,6.08,6.08,6.08,6.08,6.08,6.08,6.08,6.08,6.08,6.08,6.08,6.08,6.08,0.0,0.0,0.0,0.0,0.0,0.0,0.0,0.0,0.0,0.0,0.0,0.0,0.0,0.0,0.0,0.0,0.0,0.0,2.0605,2.1103,2.1928,2.304,2.3538,2.4306,2.5457,2.5479,2.5438,2.5371,2.5493,2.5005,2.3941,2.4255,2.3828,2.2791,2.3006,2.3097,2.3057,2.2782,2.2799,2.2987,2.306,2.3384,2.3786,0.0,0.0,0.0,0.0,0.0,0.0,0.0,0.0,0.0,2.5308,2.533,2.5368,2.5383,2.5477,2.5689,2.6339,2.9131,3.2128,3.3281,3.7988,4.3125,4.6133,4.7695,5.0156,5.5937,5.623,5.5527,5.5781,5.6328,5.6914,5.7422,5.9355,6.0996,6.1601,6.1914,6.1992,6.1738,6.2168,6.2363,6.2109,6.209,6.2096,6.2133,6.1604,6.1274,6.1237,6.0954,6.08,6.08,6.08,6.08,6.08,6.08,6.08,6.08,6.08,6.08,6.08,6.08,6.08,6.08,6.08,6.08,6.08,6.08,6.08,6.08,6.08,6.08,6.08,6.08,6.08,6.08,0.0,0.0,0.0,0.0,0.0,0.0,0.0,0.0,0.0,0.0,0.0,0.0,0.0,0.0,0.0,0.0,0.0,0.0,0.0,2.1578,2.2373,2.3565,2.3993,2.4629,2.5525,2.5545,2.5526,2.5485,2.5558,2.5152,2.4312,2.4699,2.443,2.3648,2.3961,2.4101,2.4115,2.3763,2.3596,2.3569,2.3759,2.3785,2.3761,0.0,0.0,0.0,0.0,0.0,0.0,0.0,0.0,0.0,2.5308,2.5357,2.542,2.5434,2.5524,2.5877,2.7119,3.0135,3.3457,3.5684,4.0664,4.5801,4.8926,5.1094,5.3789,5.8457,5.8183,5.7324,5.7988,5.7988,5.8125,5.8789,6.0039,6.1094,6.1621,6.1699,6.1699,6.1699,6.1699,6.1699,6.1699,6.1699,6.1584,6.1331,6.1303,6.1147,6.0816,6.08,6.08,6.08,6.08,6.08,6.08,6.08,6.08,6.08,6.08,6.08,6.08,6.08,6.08,6.08,6.08,6.08,6.08,6.08,6.08,6.08,6.08,6.08,6.08,6.08,6.08,6.08,0.0,0.0,0.0,0.0,0.0,0.0,0.0,0.0,0.0,0.0,0.0,0.0,0.0,0.0,0.0,0.0,0.0,0.0,0.0,0.0,2.2656,2.4336,2.4473,2.4861,2.5582,2.5604,2.5605,2.5605,2.5603,2.5191,2.4448,2.5227,2.5169,2.4448,2.5249,2.5635,2.5644,2.4844,2.4529,2.4459,2.3657,2.3309,2.3326,2.405,0.0,0.0,0.0,0.0,0.0,0.0,0.0,0.0,2.5308,2.5346,2.5421,2.5473,2.5554,2.6041,2.8007,3.0371,3.3379,3.7832,4.2344,4.7012,5.2031,5.5625,5.8555,6.0879,5.9629,5.8594,6.0117,5.9219,5.8711,6.0176,6.1133,6.1699,6.1699,6.1699,6.1699,6.1699,6.1699,6.1699,6.1699,6.1621,6.1467,6.1195,6.1186,6.0992,6.0585,6.0646,6.0646,6.0569,6.0569,6.0608,6.0685,6.0608,6.0608,6.0685,6.0608,6.0569,6.0569,6.0723,6.08,6.08,6.08,6.08,6.08,6.08,6.08,6.08,6.08,6.08,6.08,6.08,6.08,6.08,0.0,0.0,0.0,0.0,0.0,0.0,0.0,0.0,0.0,0.0,0.0,0.0,0.0,0.0,0.0,0.0,0.0,0.0,0.0,0.0,2.2656,2.4336,2.5059,2.5486,2.5602,2.5658,2.5683,2.5683,2.5632,2.5503,2.5327,2.5451,2.5453,2.5327,2.5524,2.5635,2.5684,2.5508,2.5429,2.5409,2.5214,2.5109,2.5042,2.5167,2.5181,0.0,0.0,0.0,0.0,0.0,0.0,0.0,2.5308,2.5379,2.5473,2.5506,2.5575,2.6366,2.9492,3.1719,3.4492,4.0176,4.6348,5.2051,5.5898,5.7363,5.8066,5.8594,5.9336,5.9961,6.0332,6.0664,6.0781,6.0449,6.1133,6.1699,6.1699,6.1699,6.1699,6.1699,6.1699,6.1699,6.1699,6.1074,6.0568,6.0311,6.0272,5.9859,5.8891,5.9435,5.9492,5.8858,5.8838,5.9146,5.9762,5.9146,5.9146,5.9762,5.9146,5.8838,5.8877,6.0204,6.08,6.08,6.08,6.08,6.08,6.08,6.08,6.08,6.08,6.08,6.08,6.08,6.08,6.08,0.0,0.0,0.0,0.0,0.0,0.0,0.0,0.0,0.0,0.0,0.0,0.0,0.0,0.0,0.0,0.0,0.0,0.0,0.0,0.0,0.0,2.4961,2.5469,2.5683,2.5658,2.5683,2.5703,2.5703,2.5634,2.5602,2.5601,2.5563,2.5563,2.5602,2.5602,2.5635,2.5703,2.5703,2.5703,2.5703,2.5703,2.5683,2.5636,2.5567,2.5517,2.5444,2.5364,0.0,0.0,0.0,0.0,0.0,0.0,0.0,2.5517,2.5543,2.563,2.6367,2.9434,3.2422,3.6484,4.4219,4.9121,5.2871,5.5957,5.666,5.6894,5.7734,5.8926,5.9824,5.9824,6.0195,6.0351,5.9902,6.0215,6.0644,6.1015,6.0742,6.0644,6.1035,6.0742,6.0508,6.0508,6.0098,5.9736,5.949,5.942,5.9087,5.8433,5.8732,5.8723,5.8319,5.83,5.8511,5.8915,5.8511,5.8511,5.8915,5.8511,5.83,5.8338,5.9204,5.9608,5.9627,6.0012,6.0185,6.0204,6.0627,6.08,6.08,6.08,6.08,6.08,6.08,6.08,6.08,0.0,0.0,0.0,0.0,0.0,0.0,0.0,0.0,0.0,0.0,0.0,0.0,0.0,0.0,0.0,0.0,0.0,0.0,0.0,0.0,0.0,2.5644,2.5683,2.5703,2.5703,2.5703,2.5703,2.5703,2.5637,2.5765,0.0,0.0,2.5595,2.5602,2.5602,2.5635,2.5703,2.5703,2.5703,2.5703,2.5703,2.5703,2.5683,2.5632,2.5563,2.5517,2.5447,2.5379,2.5335,2.5335,0.0,0.0,0.0,0.0,2.5506,2.5561,2.5633,2.6269,2.8887,3.3164,3.8926,4.7402,5.0469,5.2012,5.4316,5.4961,5.5488,5.6933,5.8164,5.8984,5.8984,5.9101,5.914,5.9004,5.9101,5.9433,6.0098,5.9629,5.9453,6.0117,5.9609,5.9199,5.9199,5.9062,5.8901,5.8716,5.8563,5.8357,5.8073,5.8064,5.8011,5.7857,5.7857,5.7915,5.8069,5.7934,5.7934,5.8069,5.7915,5.7857,5.7857,5.7857,5.803,5.8338,5.9146,5.9492,5.9569,6.0435,6.08,6.08,6.08,6.08,6.08,6.08,6.08,6.08,0.0,0.0,0.0,0.0,0.0,0.0,0.0,0.0,0.0,0.0,0.0,0.0,0.0,0.0,0.0,0.0,0.0,0.0,2.4199,0.0,0.0,2.5608,2.5662,2.5703,2.5703,2.5703,2.5703,2.5703,2.5683,0.0,0.0,0.0,0.0,2.5602,0.0,2.5635,2.5703,2.5703,2.5703,2.5703,2.5703,2.5703,2.5683,2.5632,0.0,2.557,2.55,2.5471,2.5463,2.5463,2.5438,0.0,0.0,0.0,2.5428,2.5486,2.5559,2.6199,2.8867,3.4941,4.1523,4.5762,4.9121,5.1699,5.2793,5.3633,5.4238,5.4473,5.6426,5.8066,5.8066,5.8691,5.8945,5.8203,5.8711,5.9238,5.9355,5.9277,5.9238,5.9355,5.9277,5.9199,5.9199,5.8515,5.8004,5.786,5.7687,5.7191,5.63,5.683,5.683,5.6069,5.6049,5.6415,5.7176,5.6415,5.6434,5.7157,5.6415,5.6049,5.6049,5.6049,5.6876,5.8338,5.9146,5.9492,5.9569,6.0435,6.08,6.08,6.08,6.08,6.08,6.08,6.08,6.08,0.0,0.0,0.0,0.0,0.0,0.0,0.0,0.0,0.0,0.0,0.0,0.0,0.0,0.0,0.0,2.232,2.3298,2.4218,2.5012,2.5422,2.5633,2.5602,2.5661,2.5703,2.5703,2.5703,2.5703,2.5703,0.0,0.0,0.0,2.7397,2.7563,0.0,0.0,0.0,0.0,2.6113,2.5703,2.5703,2.5703,2.5703,0.0,0.0,0.0,0.0,0.0,0.0,2.5491,2.5491,2.5462,2.5401,2.5431,0.0,0.0,0.0,2.5551,2.6507,3.0605,3.4238,3.8242,4.4101,4.6328,4.7832,5.0664,5.1601,5.2148,5.3086,5.4199,5.5137,5.5625,5.6836,5.7461,5.6582,5.7168,5.791,5.8398,5.8047,5.793,5.8418,5.8047,5.7734,5.7734,5.6953,5.662,5.7041,5.6414,5.6022,5.6071,5.6202,5.6088,5.5703,5.5703,5.5876,5.6272,5.5876,5.5876,5.6272,5.5876,5.5703,5.5703,5.5703,5.6126,5.6896,5.7723,5.8377,5.8896,5.9723,6.0358,6.08,6.08,6.08,6.08,6.08,6.08,6.08,0.0,0.0,0.0,0.0,0.0,0.0,0.0,0.0,0.0,0.0,0.0,0.0,0.0,0.0,0.0,0.0,2.396,2.4979,2.5564,2.5602,2.5602,2.5602,2.5661,2.5703,2.5703,2.5703,2.5703,0.0,0.0,0.0,2.8569,2.8538,2.9613,0.0,2.9706,2.8554,0.0,0.0,0.0,0.0,0.0,0.0,0.0,0.0,0.0,0.0,0.0,0.0,0.0,0.0,2.5486,2.5438,2.5476,2.5447,0.0,0.0,0.0,2.6546,3.0917,3.2598,3.459,4.082,4.2871,4.4277,4.7754,4.9062,4.9961,5.1426,5.1914,5.2266,5.291,5.4629,5.5723,5.5078,5.5527,5.6172,5.6816,5.6348,5.6172,5.6836,5.6328,5.5937,5.5937,5.5351,5.5234,5.5898,5.5289,5.5174,5.5822,5.5754,5.5703,5.5703,5.5703,5.5703,5.5703,5.5703,5.5703,5.5703,5.5703,5.5703,5.5703,5.5703,5.5703,5.5742,5.6618,5.7492,5.8357,5.9165,6.0012,6.08,6.08,6.08,6.08,6.08,6.08,6.08,0.0,0.0,0.0,0.0,0.0,0.0,0.0,0.0,0.0,0.0,0.0,0.0,2.4971,2.4529,2.4466,2.5243,2.5514,2.5623,2.5603,2.5602,2.5602,2.5602,2.5661,0.0,2.5703,2.5703,2.5703,0.0,0.0,0.0,2.9531,2.9458,3.0809,3.3183,3.1388,2.9262,2.7129,0.0,0.0,0.0,0.0,0.0,0.0,0.0,0.0,0.0,0.0,0.0,0.0,0.0,0.0,2.5506,2.551,2.5401,2.5322,0.0,0.0,0.0,2.8026,3.0371,3.2734,3.4746,3.8887,4.2734,4.3808,4.5957,4.7988,4.8906,4.9746,5.0332,5.0391,5.2441,5.4121,5.4062,5.4101,5.4141,5.4199,5.416,5.4141,5.4199,5.416,5.4141,5.4141,5.4082,5.4082,5.4121,5.4603,5.4916,5.4975,5.5436,5.5703,5.5703,5.5703,5.5703,5.5703,5.5703,5.5703,5.5703,5.5703,5.5703,5.5703,5.5703,5.5703,5.5742,5.6618,5.7492,5.8357,5.9165,6.0012,6.08,6.08,6.08,6.08,6.08,6.08,6.08,0.0,0.0,0.0,0.0,0.0,0.0,0.0,0.0,0.0,0.0,0.0,0.0,0.0,2.4013,2.436,2.4648,2.5182,2.5508,2.5463,2.5503,2.5541,2.5541,2.5636,2.5703,2.5703,2.5703,0.0,0.0,0.0,2.6736,2.8692,2.8679,2.9169,3.006,2.9971,2.946,2.8574,2.7207,0.0,0.0,0.0,0.0,0.0,0.0,0.0,0.0,0.0,0.0,0.0,0.0,0.0,0.0,0.0,0.0,0.0,0.0,2.5508,2.5931,2.7791,2.8574,2.9805,3.3711,3.6094,3.8125,4.0684,4.2812,4.4668,4.6094,4.709,4.8047,4.916,5.1445,5.3164,5.3164,5.3633,5.4004,5.4004,5.4004,5.4004,5.4004,5.4004,5.4004,5.4004,5.3496,5.3398,5.3965,5.3511,5.3477,5.4046,5.4091,5.4107,5.4107,5.4645,5.5184,5.5684,5.5184,5.5184,5.5703,5.5703,5.5703,5.5703,5.5703,5.5703,5.5722,5.603,5.6646,5.753,5.8377,5.9223,6.0012,6.0569,6.08,6.08,6.08,6.08,6.08,0.0,0.0,0.0,0.0,0.0,0.0,0.0,0.0,0.0,0.0,0.0,0.0,0.0,0.0,2.4676,2.4698,2.5162,2.5488,2.5491,2.5511,2.5547,2.5563,2.5658,2.5703,2.5703,2.5703,0.0,0.0,0.0,0.0,0.0,2.7779,2.7936,2.8241,2.8509,2.866,0.0,0.0,0.0,2.6523,0.0,0.0,2.6973,0.0,0.0,0.0,0.0,0.0,0.0,0.0,0.0,0.0,0.0,0.0,0.0,0.0,0.0,0.0,2.7087,0.0,2.7891,3.1621,3.3203,3.4531,3.7129,3.9473,4.1543,4.2988,4.4433,4.5957,4.7715,4.9648,5.1074,5.1387,5.1914,5.2285,5.2285,5.2539,5.2715,5.2715,5.2969,5.3125,5.3125,5.2598,5.25,5.3086,5.2614,5.2543,5.3132,5.3194,5.3203,5.3203,5.376,5.4318,5.4857,5.4626,5.4761,5.5299,5.5568,5.5703,5.5703,5.5703,5.5703,5.5703,5.5703,5.6195,5.7041,5.7607,5.8511,5.9569,6.0146,6.0531,6.08,6.08,6.08,6.08,0.0,0.0,0.0,0.0,0.0,0.0,0.0,0.0,0.0,0.0,0.0,0.0,0.0,0.0,0.0,2.5683,2.5634,2.5611,2.5683,2.5634,2.5633,2.5683,2.5703,2.5703,2.5703,0.0,0.0,0.0,0.0,0.0,0.0,0.0,2.7351,2.8184,2.7329,2.6941,2.7129,0.0,2.9824,2.8144,0.0,2.7305,2.9492,0.0,0.0,0.0,2.9863,2.9023,0.0,2.6367,0.0,0.0,0.0,0.0,0.0,0.0,0.0,0.0,0.0,0.0,0.0,2.8086,3.0254,3.2363,3.3184,3.6016,3.873,3.9648,4.1836,4.4121,4.5859,4.6894,4.7773,4.8633,4.8848,4.8906,4.8906,4.9629,5.0156,5.0156,5.0859,5.1348,5.1367,5.1367,5.1367,5.1387,5.1928,5.2271,5.2265,5.2799,5.3145,5.3164,5.3145,5.3164,5.3241,5.4049,5.4491,5.453,5.5318,5.5703,5.5703,5.5703,5.5703,5.5703,5.5703,5.6195,5.6964,5.6983,5.7973,5.9473,5.9492,6.0031,6.08,6.08,6.08,6.08,0.0,0.0,0.0,0.0,0.0,0.0,0.0,0.0,0.0,0.0,0.0,0.0,2.5491,2.5526,2.5541,2.5554,2.5543,2.5541,2.5554,2.5573,2.5605,2.5632,2.5662,2.5703,2.5703,2.5703,2.5703,2.5703,2.5703,2.582,2.6055,2.6034,0.0,0.0,2.7479,2.7225,2.6152,2.75,0.0,2.8262,2.7773,2.8398,0.0,0.0,0.0,0.0,0.0,2.8906,2.9062,0.0,2.7988,2.8257,0.0,0.0,0.0,0.0,0.0,0.0,2.5682,0.0,0.0,0.0,0.0,0.0,3.2344,3.4219,3.6211,3.7715,3.957,4.1465,4.3164,4.4199,4.5058,4.5937,4.7676,4.8906,4.8906,4.9101,4.9258,4.9258,4.9453,4.9844,5.0469,5.0527,5.0721,5.1228,5.137,5.1397,5.1283,5.1359,5.1664,5.2231,5.1702,5.2279,5.4126,5.376,5.4164,5.5376,5.5588,5.5703,5.5703,5.5703,5.5703,5.5703,5.5703,5.5838,5.6107,5.6753,5.7627,5.8684,5.9281,6.0031,6.08,6.08,6.08,6.08,0.0,0.0,0.0,0.0,0.0,0.0,0.0,0.0,0.0,0.0,0.0,0.0,2.6082,2.6121,2.6121,2.6121,2.5788,2.5573,2.5573,2.563,2.5636,2.5636,2.5683,2.5703,2.5703,2.5703,2.5703,2.5703,2.5703,2.5703,2.5703,2.5703,2.5898,0.0,0.0,0.0,0.0,0.0,0.0,0.0,2.8691,2.9785,3.1074,3.0059,3.0215,3.0918,3.0566,0.0,3.1387,2.9062,2.8612,0.0,0.0,0.0,0.0,0.0,0.0,0.0,0.0,0.0,0.0,0.0,0.0,0.0,3.0547,3.1894,3.3398,3.4414,3.6289,3.8242,3.9961,4.1289,4.2402,4.3262,4.5273,4.6973,4.7715,4.8125,4.8359,4.8359,4.8672,4.9101,4.9609,4.9607,4.9888,5.0638,5.0553,5.0429,5.027,5.0209,5.0375,5.0837,5.0741,5.1404,5.2895,5.2741,5.3337,5.4664,5.503,5.5376,5.5703,5.5703,5.5703,5.5722,5.6069,5.6252,5.6291,5.6791,5.7511,5.8357,5.8819,5.9742,6.08,6.08,6.08,6.08,0.0,0.0,0.0,0.0,0.0,0.0,0.0,0.0,0.0,0.0,2.5953,2.6328,0.0,0.0,0.0,0.0,2.6445,2.5957,2.5859,2.584,2.5801,2.5703,2.5703,2.5703,2.5703,2.5703,2.5703,2.5703,2.5703,2.5742,2.584,2.584,2.6309,2.7148,0.0,0.0,0.0,0.0,0.0,2.8379,2.9355,3.1211,3.3379,3.3184,3.3652,3.4316,3.3535,3.3769,3.3828,2.9902,2.8355,0.0,0.0,0.0,0.0,0.0,2.6914,0.0,0.0,0.0,0.0,0.0,2.9316,0.0,2.8828,2.9922,3.1152,3.1055,3.293,3.5059,3.6719,3.8359,3.9746,4.0625,4.2187,4.3945,4.5879,4.6914,4.7461,4.7461,4.8144,4.8633,4.873,4.8634,4.8896,4.9756,4.9576,4.9389,4.925,4.926,4.9298,4.9394,5.0144,5.0654,5.0827,5.1548,5.2327,5.3222,5.4087,5.4876,5.5568,5.5665,5.5703,5.5742,5.6522,5.6868,5.6868,5.6964,5.7569,5.8415,5.8338,5.9319,6.08,6.08,6.08,6.08,0.0,0.0,0.0,0.0,0.0,0.0,0.0,0.0,0.0,0.0,2.775,2.8125,0.0,0.0,0.0,0.0,2.7891,2.748,2.6797,2.6758,2.6426,2.5723,2.5703,2.5703,2.5703,2.5703,2.5703,2.5703,2.5703,2.6055,2.6758,2.6758,2.7207,0.0,0.0,0.0,0.0,0.0,2.9746,2.8437,3.0019,3.1758,3.3242,3.1894,3.1934,3.2676,3.25,3.2539,3.2441,3.0918,2.8941,2.7224,0.0,0.0,0.0,2.7574,0.0,0.0,0.0,0.0,0.0,0.0,3.1543,0.0,3.0898,3.1699,3.2734,3.207,3.2851,3.3965,3.5019,3.6055,3.7051,3.793,3.9512,4.1719,4.4824,4.5996,4.6543,4.6543,4.6699,4.7049,4.7632,4.768,4.7934,4.8577,4.8481,4.8382,4.8355,4.8355,4.8682,4.9375,4.9548,5.0298,5.1654,5.1808,5.2327,5.3222,5.4087,5.4587,5.4761,5.5395,5.5703,5.5703,5.5876,5.5953,5.6011,5.6714,5.7896,5.9204,5.855,5.9319,6.08,6.08,6.08,6.08,0.0,0.0,0.0,0.0,0.0,0.0,0.0,0.0,0.0,0.0,0.0,0.0,0.0,0.0,0.0,0.0,0.0,0.0,0.0,2.7246,2.6992,2.6992,2.6152,2.6113,2.6973,2.6562,2.6562,2.6992,2.6992,2.7226,2.7656,2.7656,2.7871,0.0,0.0,0.0,0.0,0.0,3.0644,3.0273,3.0723,3.166,3.2754,3.2305,3.2422,3.2793,3.2793,3.2266,3.1601,3.2012,3.0995,2.9389,2.851,2.8842,2.937,0.0,2.8573,2.8848,0.0,0.0,0.0,3.1016,3.2187,0.0,0.0,3.1523,3.1641,3.2109,3.1836,3.2031,3.373,3.4414,3.498,3.5859,3.7461,3.9512,4.209,4.3555,4.4355,4.4355,4.4355,4.4665,4.543,4.5844,4.6474,4.7519,4.7542,4.7509,4.7509,4.7509,4.7894,4.8721,4.9163,5.001,5.1298,5.1298,5.1722,5.2558,5.2991,5.3664,5.4511,5.4914,5.5318,5.5722,5.6145,5.6349,5.6426,5.728,5.8377,5.9454,5.9069,5.9685,6.08,6.08,6.08,6.08,2.5543,0.0,0.0,0.0,0.0,0.0,0.0,0.0,0.0,0.0,0.0,0.0,0.0,0.0,0.0,0.0,0.0,0.0,0.0,0.0,2.748,2.8027,2.6855,2.6777,2.8027,2.7519,2.7598,2.8301,2.8301,2.8398,2.8555,2.8555,2.8633,0.0,0.0,0.0,0.0,0.0,0.0,3.1914,3.1523,3.1894,3.2734,3.3223,3.3398,3.3359,3.3027,3.1934,3.0879,3.2402,3.248,3.1601,2.9668,3.0371,0.0,0.0,0.0,0.0,0.0,0.0,0.0,0.0,3.2695,3.2969,0.0,0.0,0.0,3.1698,3.0779,3.0426,3.2499,3.289,3.3065,3.3612,3.5429,3.7147,3.82,3.9957,4.1384,4.2049,4.1814,4.2056,4.3189,4.3813,4.4704,4.6074,4.6182,4.624,4.6394,4.6567,4.7028,4.7836,4.8702,4.9567,5.0442,5.0616,5.1029,5.1673,5.1827,5.2741,5.426,5.4414,5.4934,5.5742,5.6445,5.6753,5.683,5.7877,5.8684,5.9281,5.9435,6.0031,6.08,6.08,6.08,6.08,2.5682,2.5683,0.0,0.0,0.0,0.0,0.0,0.0,0.0,0.0,0.0,0.0,0.0,0.0,0.0,0.0,0.0,3.041,3.2676,2.9883,0.0,0.0,2.7695,2.7734,2.7168,2.7812,2.8203,2.8301,2.8301,2.8691,2.9453,2.9453,2.9863,0.0,2.9902,0.0,0.0,0.0,3.0957,3.1172,3.2559,3.3633,3.4336,3.3652,3.3398,3.3203,3.1719,3.0566,2.9883,3.0859,3.1113,3.1133,3.1601,3.1426,3.1289,3.2461,0.0,0.0,0.0,0.0,0.0,3.2754,3.4473,3.5723,3.1914,0.0,3.25,3.115,0.0,3.0589,3.0948,0.0,0.0,3.0199,3.2809,3.4415,3.3017,3.4976,3.7705,4.0792,3.9735,3.9666,4.1969,4.2163,4.2518,4.3451,4.3528,4.3835,4.4566,4.5316,4.6144,4.7,4.7817,4.8663,4.9529,5.0308,5.075,5.0837,5.1568,5.2404,5.3376,5.4145,5.4934,5.5703,5.5799,5.5838,5.5972,5.7627,5.8357,5.8511,5.9223,6.0031,6.08,6.08,6.08,6.08,2.5801,2.5703,0.0,0.0,0.0,0.0,0.0,0.0,0.0,0.0,0.0,0.0,0.0,0.0,0.0,0.0,0.0,3.3008,3.4082,3.0957,0.0,0.0,0.0,0.0,0.0,0.0,0.0,2.9805,2.9805,3.0,3.0351,3.0351,3.0273,3.0137,2.9766,0.0,3.0703,3.084,3.1465,3.2402,3.3125,3.3926,3.4609,3.373,3.3105,3.2559,3.1328,3.0664,3.041,3.0781,3.1543,3.2246,3.1641,3.2207,3.3047,3.2773,0.0,0.0,0.0,0.0,3.5117,3.4551,3.5098,3.5449,3.4141,3.3241,3.273,3.2964,0.0,0.0,0.0,0.0,0.0,0.0,3.2118,3.2944,3.2692,3.2681,3.3851,3.6879,3.6554,3.6864,3.8858,3.9823,4.0508,4.0873,4.1797,4.272,4.3566,4.4393,4.547,4.6846,4.7231,4.7798,4.8644,4.951,4.9952,4.9952,5.0798,5.1645,5.2462,5.2818,5.3741,5.4991,5.4991,5.5261,5.5799,5.703,5.7838,5.8377,5.9184,6.0031,6.08,6.08,6.08,6.08,0.0,0.0,0.0,0.0,0.0,0.0,3.1289,3.4217,3.5856,3.4899,3.8058,3.9917,3.8614,3.8695,0.0,0.0,3.6832,3.5465,3.5699,3.2753,3.1035,0.0,0.0,0.0,0.0,0.0,0.0,3.0898,3.0898,3.1016,3.125,3.1016,3.0684,3.0293,3.0059,3.0215,3.0684,3.1328,3.2422,3.3789,3.4023,3.4355,3.4609,3.373,3.2891,3.2148,3.1738,3.1445,3.1289,3.1504,3.2383,3.3223,3.2246,3.3203,3.4512,0.0,0.0,0.0,3.4043,3.4746,3.5449,3.5605,3.5351,3.5098,3.5254,3.4023,3.3142,3.4119,3.3022,0.0,0.0,0.0,3.2177,3.1675,0.0,3.2162,3.2092,3.1368,3.165,3.3851,3.4283,3.4775,3.572,3.7077,3.7995,3.8238,3.9585,4.0893,4.2008,4.3278,4.4643,4.6144,4.6654,4.7173,4.7778,4.8856,4.9394,4.9413,5.0289,5.1125,5.1904,5.2154,5.3087,5.4511,5.4722,5.5164,5.5761,5.6637,5.7511,5.8377,5.9184,6.0031,6.08,6.08,6.08,6.08,2.7129,2.7637,0.0,0.0,0.0,3.041,3.293,3.3384,3.4585,3.7812,3.8338,3.9307,4.1671,4.047,4.0781,0.0,3.9864,3.7373,3.8233,3.593,3.2715,2.8594,0.0,3.1719,0.0,0.0,0.0,0.0,3.0898,3.1328,3.2148,3.1289,3.1348,3.207,3.123,3.1758,3.3281,3.3301,3.3848,3.4726,3.5586,3.543,3.4609,3.373,3.2891,3.2305,3.3047,3.2812,3.2285,3.3066,3.3359,3.3535,3.4336,3.4629,3.4863,3.5644,3.5293,3.4844,3.5684,3.6543,3.6816,3.5156,3.5351,3.5527,3.3867,3.4017,3.4293,3.3512,3.3906,3.4136,3.3342,3.318,0.0,0.0,0.0,0.0,0.0,3.0633,3.2019,3.3025,3.3782,3.3891,3.3115,3.384,3.4699,3.5558,3.6385,3.7603,3.9342,4.1777,4.3528,4.4355,4.6028,4.6904,4.6942,4.8586,4.9394,4.9413,5.0289,5.1125,5.1923,5.2779,5.3645,5.453,5.5318,5.5684,5.5761,5.6637,5.7511,5.8377,5.9184,6.0031,6.08,6.08,6.08,6.08,0.0,0.0,0.0,0.0,0.0,3.0623,3.3651,3.6021,3.8465,4.1276,4.2622,4.4283,4.6791,4.6097,4.5652,4.6138,4.3214,4.1235,4.1005,3.8664,3.6387,3.4336,3.5351,3.4629,0.0,0.0,0.0,0.0,3.2559,3.2715,3.2988,3.2695,0.0,0.0,0.0,3.1758,3.1816,3.293,3.3574,3.3926,3.4785,3.5312,3.5391,3.3945,3.3223,3.3027,3.3301,3.3223,3.3047,3.3301,3.3789,3.4219,3.3926,3.4629,3.5508,3.5215,3.5332,3.5625,3.5918,3.6211,3.6309,3.5703,3.5781,3.5859,3.5254,3.5331,3.5271,3.4411,3.4446,3.4355,3.3442,0.0,0.0,0.0,0.0,0.0,0.0,3.0462,3.0966,3.1279,3.1523,3.1558,3.1269,3.2025,3.2679,3.2962,3.4808,3.6404,3.7526,4.0546,4.2624,4.347,4.5143,4.6028,4.6028,4.7702,4.8548,4.8567,5.001,5.0837,5.1125,5.1414,5.2318,5.3645,5.3933,5.4664,5.5722,5.6011,5.6646,5.7511,5.8377,5.9204,6.0012,6.0589,6.08,6.08,3.0117,0.0,0.0,0.0,3.1228,3.2739,3.5479,3.8731,4.1689,4.3904,4.5646,4.7526,4.9752,4.9001,4.8345,4.8322,4.6125,4.4164,4.2779,4.1243,3.9469,3.7383,3.7891,3.6719,3.3476,0.0,0.0,0.0,0.0,3.3867,3.3867,0.0,0.0,0.0,0.0,3.2598,3.1894,3.3594,3.4141,3.3945,3.4805,3.5508,3.5879,3.4746,3.4512,3.4746,3.4434,3.4121,3.3867,3.3867,3.4238,3.4609,3.4043,3.4844,3.5898,3.5332,3.5566,3.5996,3.5996,3.5996,3.5996,3.5996,3.5996,3.5996,3.5996,3.623,3.6211,3.5332,3.5389,3.5282,3.4339,3.4095,0.0,0.0,0.0,0.0,0.0,3.0673,3.075,3.0442,3.0404,3.0404,3.0404,3.0904,3.1231,3.1231,3.3308,3.4942,3.5776,3.9315,4.1739,4.2604,4.4547,4.5594,4.5594,4.7259,4.8105,4.8125,4.9875,5.0712,5.0712,5.0991,5.1722,5.2779,5.3395,5.428,5.5299,5.5568,5.6214,5.7099,5.7953,5.88,5.9608,6.0473,6.08,6.08,3.1133,3.1777,3.2461,3.2519,3.4377,3.6486,3.8302,4.1281,4.4,4.5858,4.745,4.9086,5.0827,4.95,4.9105,5.0635,4.857,4.6169,4.3758,4.3721,4.1952,3.7793,3.9258,3.8105,3.375,3.6133,0.0,0.0,0.0,0.0,0.0,0.0,0.0,0.0,3.4746,3.4238,3.3457,3.5234,3.5527,3.4844,3.5664,3.6055,3.6113,3.6035,3.6562,3.7246,3.6328,3.5469,3.4766,3.4766,3.4766,3.4766,3.4824,3.5391,3.6074,3.6113,3.6133,3.6133,3.6133,3.6094,3.6055,3.6055,3.6035,3.5996,3.5996,3.668,3.7051,3.6172,3.6629,3.6881,3.5872,3.5633,3.5292,0.0,0.0,0.0,0.0,3.1173,3.1385,3.0558,3.0423,3.0404,3.0404,3.0404,3.0404,3.0404,3.1948,3.3256,3.409,3.8188,4.0873,4.1712,4.4239,4.5594,4.5594,4.7259,4.8105,4.8125,4.9875,5.0712,5.0731,5.1491,5.1865,5.1981,5.3703,5.4453,5.4549,5.5376,5.6195,5.7022,5.7896,5.8742,5.9608,6.0473,6.08,6.08,3.2031,3.4082,3.6191,3.6836,3.6841,3.7766,4.0703,4.3413,4.6375,4.9882,5.1809,5.3491,5.5194,5.4496,5.3277,5.1731,5.0693,4.9013,4.6396,4.6446,4.5213,4.2187,4.3105,4.168,3.7363,3.8555,3.7851,3.5019,0.0,0.0,3.5664,0.0,0.0,0.0,0.0,3.4492,3.2656,3.5019,3.5879,3.5684,3.5918,3.6777,3.7793,3.6484,3.6934,3.8066,3.6543,3.5859,3.5664,3.5664,3.5664,3.5781,3.6426,3.6797,3.709,3.7734,3.793,3.793,3.793,3.7461,3.6973,3.6973,3.6484,3.5996,3.5996,3.6636,3.6974,3.6113,3.6528,3.6768,3.5803,3.5611,3.5292,0.0,0.0,0.0,0.0,3.1564,3.1621,3.1385,3.0788,3.0404,3.0404,3.0404,3.0404,3.0404,3.1948,3.3006,3.3218,3.7861,4.0593,4.0843,4.394,4.5594,4.5594,4.7259,4.8105,4.8125,4.9875,5.0712,5.0712,5.0914,5.1337,5.1962,5.3068,5.3895,5.4549,5.5376,5.5818,5.6107,5.6992,5.8223,5.9608,6.0473,6.08,6.08,3.4433,3.6894,3.9394,4.0625,4.1252,4.222,4.4048,4.5788,4.8095,5.1453,5.3128,5.4352,5.5233,5.5024,5.4202,5.2682,5.1347,4.9802,4.7972,4.7643,4.6715,4.4902,4.4941,4.3164,3.9258,3.9648,3.8437,3.543,0.0,0.0,3.5996,0.0,0.0,0.0,0.0,3.498,3.3398,3.4824,3.5879,3.6543,3.6152,3.6816,0.0,3.6934,3.7402,3.8476,3.748,3.6641,3.6055,3.6445,3.6562,3.6719,3.7598,3.7871,3.7969,3.8457,3.8594,3.8594,3.8594,3.8242,3.7773,3.7402,3.7226,3.7011,3.6576,3.7127,3.7572,3.7055,3.6949,3.6787,3.626,3.5828,3.525,0.0,0.0,0.0,0.0,3.2545,3.2526,3.1795,3.1583,3.1212,3.0462,3.0404,3.0404,3.0404,3.1948,3.2891,3.2891,3.7399,4.015,4.0496,4.4182,4.599,4.5594,4.8009,4.8856,4.8125,4.9875,5.0712,5.0712,5.0712,5.1144,5.1942,5.2818,5.3683,5.4549,5.5376,5.5703,5.5818,5.7069,5.8357,5.9608,6.0473,6.08,6.08,3.7595,3.9882,4.2109,4.3457,4.5929,4.7781,4.8034,4.867,4.9908,5.2146,5.3366,5.3944,5.3723,5.3737,5.3661,5.3418,5.1436,4.9756,4.8755,4.801,4.721,4.6348,4.5566,4.3613,4.0293,4.0019,3.8301,3.5039,3.5566,0.0,0.0,0.0,0.0,0.0,0.0,0.0,0.0,3.4863,3.5801,3.7246,3.6601,3.6797,3.7461,3.7461,3.7949,3.8594,3.8594,3.7637,3.6465,3.7207,3.7461,3.7617,3.8496,3.8769,3.8789,3.8906,3.8945,3.8945,3.8945,3.8867,3.8594,3.7832,3.8125,3.8377,3.7469,3.7843,3.8366,3.8292,3.7526,3.6875,3.6875,3.6125,3.5288,3.4622,3.5064,3.4923,3.3295,3.3718,0.0,3.2045,3.2468,0.0,3.0712,3.0577,3.0519,3.0404,3.1948,3.2891,3.2891,3.6969,3.9669,4.0477,4.4432,4.6355,4.5941,4.8865,4.9702,4.8471,4.9971,5.0712,5.0712,5.0808,5.1241,5.1942,5.2953,5.3799,5.4549,5.5376,5.5703,5.5857,5.7492,5.8627,5.9454,6.03,6.0704,6.08,4.018,4.2409,4.4063,4.3749,4.6848,5.0124,5.2308,5.3119,5.3931,5.5117,5.6541,5.7151,5.6426,5.5901,5.5035,5.353,5.2655,5.1197,4.886,4.866,4.7948,4.6367,4.6152,4.4785,4.2012,4.0605,3.8906,3.6836,3.5566,3.5293,0.0,0.0,0.0,0.0,0.0,0.0,3.5762,3.5762,3.6367,3.7344,3.793,3.8242,3.8379,3.8379,3.8476,3.8594,3.8594,3.8398,3.8164,3.832,3.8379,3.8516,3.9394,3.9668,3.9805,4.0527,4.0742,4.0742,4.0742,4.0215,3.9648,3.9473,3.9023,3.8514,3.823,3.8244,3.8287,3.8161,3.7397,3.6741,3.6741,3.6059,3.5673,3.6173,3.5827,3.5135,3.4129,3.4109,0.0,0.0,3.2814,3.2526,3.1564,3.1468,3.1173,3.0442,3.1948,3.2891,3.2891,3.6969,3.9669,4.0477,4.3258,4.5682,4.7644,4.8259,4.9125,5.025,5.0558,5.0712,5.0731,5.1395,5.1769,5.1981,5.3587,5.4357,5.4549,5.5376,5.5703,5.5799,5.683,5.7742,5.8607,5.9435,6.0185,6.08,4.4148,4.5737,0.0,4.75,5.0247,5.3171,5.5432,5.6264,5.6501,5.6142,5.6408,5.6289,5.5347,5.5036,5.4561,5.3687,5.2644,5.1112,4.8954,4.8866,4.8125,4.6387,4.6308,4.5078,4.2461,4.0762,3.9043,3.7305,3.5547,3.5156,0.0,3.6465,3.6426,3.5996,0.0,3.6504,3.7324,3.6875,3.7187,3.8008,3.8437,3.8867,3.9277,3.9277,3.9551,3.9941,3.9941,3.9941,3.9883,3.9434,3.9277,3.9434,4.0293,4.0566,4.0664,4.1074,4.1191,4.1191,4.1191,4.0898,4.0469,4.0019,3.9922,3.9803,3.9208,3.9343,3.9563,3.9467,3.8344,3.7238,3.6769,3.6385,3.6404,3.7238,3.6673,3.5981,3.5565,3.5507,3.4853,0.0,0.0,0.0,3.1231,3.1814,3.1987,3.1135,3.2218,3.3103,3.3545,3.6796,3.92,4.0458,4.3855,4.624,4.7471,4.9192,5.0067,5.0029,5.0481,5.0712,5.0731,5.1529,5.2154,5.2654,5.3933,5.4741,5.5145,5.553,5.5703,5.5818,5.7165,5.7934,5.8454,5.9704,6.0435,6.08,4.8008,4.8923,5.0024,5.1431,5.357,5.5572,5.7109,5.8051,5.8156,5.6938,5.5923,5.503,5.4251,5.3938,5.3808,5.3808,5.2178,5.0508,4.9004,4.873,4.793,4.6367,4.6308,4.5156,4.2734,4.0859,3.9141,3.7578,3.582,3.5332,3.6016,3.707,3.7109,3.6289,3.6465,3.7207,3.8301,3.7988,3.8242,3.8887,3.9082,3.9551,4.0176,4.0176,4.0605,4.1191,4.1191,4.1191,4.1094,4.041,4.0176,4.0293,4.0976,4.1191,4.1191,4.1191,4.1191,4.1191,4.1191,4.1191,4.1035,4.0311,4.0642,4.093,4.0094,4.0353,4.0767,4.066,3.925,3.7853,3.7334,3.6942,3.7046,3.8104,3.7546,3.6904,3.6731,3.6692,3.5815,3.3468,0.0,0.0,3.1231,3.2295,3.291,3.2275,3.2641,3.3276,3.4148,3.6622,3.8681,4.0208,4.4201,4.6605,4.7154,4.9962,5.0875,4.9933,5.0452,5.0789,5.0971,5.1798,5.2654,5.353,5.4376,5.5107,5.5703,5.5703,5.5799,5.6107,5.7492,5.8242,5.8704,6.0031,6.0646,6.08,5.051,5.1274,5.2117,5.3116,5.4737,5.6026,5.6455,5.786,5.8812,5.8666,5.7154,5.6052,5.5963,5.4675,5.3808,5.3808,5.1651,4.9902,4.8965,4.8164,4.7305,4.6348,4.6308,4.5449,4.3613,4.1152,3.9434,3.8476,3.6738,3.5918,3.6035,3.7695,3.8008,3.7207,3.8008,3.8008,3.7519,3.9023,3.9707,3.9844,4.0644,4.1016,4.1074,4.1074,4.1133,4.1191,4.1191,4.1191,4.1191,4.1113,4.1074,4.1094,4.1172,4.1191,4.1191,4.1191,4.1191,4.1191,4.1191,4.1191,4.1151,4.0955,4.0964,4.0955,4.0665,4.0654,4.068,4.0545,3.9176,3.8219,3.8938,3.7777,3.7238,3.8911,3.845,3.7603,3.6808,3.6692,3.6045,3.4302,0.0,0.0,3.2852,3.3526,3.4052,3.3975,3.3295,3.3276,3.4148,3.6622,3.843,3.9381,4.2739,4.5643,4.7971,4.9086,5.0317,5.1654,5.101,5.1087,5.1808,5.2683,5.3549,5.4414,5.5241,5.5626,5.5703,5.5703,5.6175,5.6887,5.706,5.805,5.9415,5.9569,6.0127,6.08,5.3048,5.3094,5.3586,5.5392,5.5843,5.6357,5.76,5.7901,5.807,5.8267,5.7674,5.7018,5.6508,5.4924,5.3916,5.3916,5.2088,5.0566,4.9726,4.8867,4.7988,4.7129,4.6582,4.5723,4.4512,4.2969,4.1269,3.9375,3.9219,3.8594,3.7598,3.8809,3.9199,3.8848,3.8672,3.8691,3.8906,3.9609,3.9902,3.998,4.0859,4.1191,4.1191,4.1191,4.1191,4.1191,4.1191,4.1191,4.1191,4.1191,4.1191,4.1191,4.1191,4.1191,4.1191,4.1191,4.1191,4.1191,4.1191,4.1191,4.1171,4.1028,4.0996,4.0955,4.0807,4.0726,4.068,4.0636,4.002,3.9457,3.9323,3.8296,3.7873,3.9111,3.8123,3.7276,3.7469,3.7019,3.6269,3.5122,3.5288,3.4827,3.3064,3.3686,3.4629,3.5622,3.4449,3.4064,3.493,3.6892,3.8392,3.9265,4.3055,4.5817,4.7355,4.924,5.051,5.1183,5.1337,5.1587,5.1942,5.3337,5.4434,5.5241,5.5549,5.5703,5.5703,5.5703,5.6214,5.706,5.7569,5.8473,5.9569,6.0089,6.0492,6.08,5.4818,5.4844,5.5359,5.757,5.7458,5.742,5.8578,5.7984,5.7427,5.7518,5.7519,5.7285,5.668,5.5039,5.4004,5.4004,5.2187,5.0801,5.0234,4.9141,4.8242,4.7637,4.6777,4.5898,4.5019,4.4141,4.2695,4.0644,4.1016,4.0449,3.9004,3.9609,3.9902,3.9883,3.9512,3.9551,3.9922,4.0176,4.0273,4.0332,4.0957,4.1191,4.1191,4.1191,4.1348,4.1543,4.1543,4.1543,4.1543,4.1543,4.1406,4.123,4.1484,4.1543,4.1543,4.1543,4.1543,4.1504,4.1269,4.1366,4.1495,4.1354,4.1496,4.1551,4.1184,4.1058,4.0952,4.0688,4.0374,4.0054,3.9708,3.895,3.8661,3.9515,3.8623,3.7853,3.7988,3.77,3.7065,3.5981,3.6077,3.5654,3.416,3.4564,3.5526,3.6969,3.5988,3.5699,3.6565,3.7738,3.8777,3.9631,4.3767,4.6278,4.6885,4.9433,5.0712,5.0712,5.1529,5.2019,5.2327,5.4068,5.5164,5.5703,5.5703,5.5703,5.5722,5.5972,5.6588,5.7473,5.8319,5.9165,5.9954,6.0569,6.08,6.08,5.5528,5.6582,5.7702,5.9456,5.9766,5.9551,5.8994,5.8042,5.7213,5.6678,5.6621,5.6601,5.6601,5.5039,5.4004,5.4004,5.168,5.0215,5.0195,4.8574,4.7617,4.7598,4.6777,4.5898,4.5019,4.4141,4.3262,4.2363,4.1582,4.0742,3.9883,3.9902,3.9902,3.9941,4.0781,4.0703,3.9961,4.082,4.1172,4.1191,4.1191,4.1191,4.1191,4.1191,4.1699,4.2383,4.2383,4.2383,4.2383,4.2383,4.1855,4.1348,4.2129,4.2383,4.2383,4.2383,4.2383,4.2207,4.1426,4.1727,4.2244,4.2124,4.2625,4.2937,4.1998,4.1797,4.1546,4.0669,3.9861,3.9554,4.0342,3.9823,3.9554,4.0342,4.0477,3.9881,3.8238,3.8719,3.8623,3.6885,3.745,3.7623,3.6731,3.6654,3.7046,3.7911,3.7969,3.8334,3.9207,3.9265,3.965,4.0458,4.4643,4.6885,4.6904,4.9433,5.0712,5.0712,5.1529,5.2346,5.3241,5.4914,5.5684,5.5703,5.5703,5.5703,5.5761,5.6637,5.7492,5.8357,5.9165,6.0012,6.0781,6.08,6.08,6.08,5.6424,5.6954,5.755,5.8701,5.8501,5.8145,5.8091,5.7304,5.6681,5.6601,5.6601,5.6601,5.6601,5.5039,5.4004,5.4004,5.2168,5.1016,5.1016,4.9433,4.8496,4.8496,4.707,4.6172,4.5898,4.5605,4.4746,4.3281,4.4219,4.3926,4.248,4.248,4.1875,4.0801,4.1074,4.1055,4.0801,4.1074,4.1191,4.1191,4.1191,4.1191,4.1191,4.1191,4.1367,4.1641,4.2207,4.2402,4.2402,4.2402,4.2226,4.2051,4.2324,4.2402,4.2519,4.3053,4.322,4.3136,4.2799,4.2861,4.3027,4.2886,4.3032,4.3105,4.2768,4.2239,4.1712,4.145,4.07,4.0208,4.0458,3.9842,3.9381,3.965,3.9181,3.8815,3.8873,3.8604,3.843,3.8469,3.818,3.7892,3.7603,3.7584,3.818,3.9611,3.8642,3.8373,3.9246,4.0373,4.1123,4.1373,4.497,4.7154,4.7721,5.026,5.1529,5.1548,5.2991,5.4107,5.4914,5.5453,5.5703,5.5703,5.5703,5.5703,5.5722,5.5992,5.6973,5.8338,5.8588,5.955,6.08,6.08,6.08,6.08,5.6888,5.7456,5.7947,5.8545,5.8548,5.8305,5.7842,5.7246,5.6782,5.662,5.6601,5.6601,5.6601,5.5332,5.4492,5.4492,5.2891,5.1894,5.1894,5.0312,4.9238,4.8906,4.7539,4.6641,4.6308,4.6308,4.5762,4.4687,4.5449,4.5098,4.3691,4.3691,4.3144,4.2148,4.2148,4.1953,4.168,4.1992,4.1777,4.123,4.1523,4.1465,4.123,4.1543,4.1855,4.2246,4.3086,4.3379,4.3379,4.3379,4.2949,4.2461,4.2793,4.287,4.2958,4.3441,4.3551,4.352,4.3412,4.3588,4.3785,4.3711,4.3891,4.4005,4.3638,4.2893,4.2297,4.2297,4.1585,4.0989,4.0989,4.0304,3.9746,3.9746,3.9284,3.9008,3.9265,3.9084,3.9027,3.9265,3.9084,3.8815,3.8527,3.8757,3.9373,4.0419,4.0412,4.0469,4.07,4.172,4.2585,4.322,4.6547,4.8567,4.9067,5.1279,5.2385,5.2404,5.3818,5.4914,5.5703,5.5703,5.5703,5.5703,5.5703,5.5703,5.5722,5.6049,5.6819,5.7877,5.8511,5.9396,6.0339,6.0685,6.08,6.08,5.6925,5.7936,5.8695,5.8861,5.9536,5.9577,5.8202,5.7736,5.7311,5.6679,5.6601,5.6601,5.6601,5.5879,5.539,5.539,5.373,5.2695,5.2695,5.1133,4.9805,4.8945,4.8066,4.7187,4.6328,4.6308,4.6308,4.6308,4.5488,4.4687,4.3887,4.3828,4.3789,4.3789,4.373,4.3242,4.2539,4.3359,4.2793,4.1445,4.2187,4.2012,4.1367,4.2109,4.2891,4.3711,4.4609,4.4941,4.5,4.5,4.3887,4.2637,4.3437,4.3602,4.3522,4.3639,4.3627,4.3566,4.3563,4.4054,4.4582,4.4582,4.509,4.5383,4.4586,4.3758,4.3181,4.3181,4.2489,4.1885,4.1885,4.1219,4.0669,4.0593,4.0593,4.0304,3.9496,4.0035,4.0246,3.9554,4.0131,4.0323,3.9631,4.0189,4.0612,4.0689,4.2816,4.3874,4.3297,4.3374,4.4143,4.5652,4.8961,5.0731,5.0789,5.2452,5.3318,5.3376,5.4203,5.4972,5.5703,5.5703,5.5703,5.5703,5.5703,5.5714,5.5773,5.6582,5.6947,5.7159,5.8795,5.9446,5.9608,6.0473,6.08,6.08,5.6167,5.7139,5.8149,5.8792,5.8653,5.8552,5.8847,5.7713,5.6775,5.6621,5.6601,5.6601,5.6601,5.6426,5.6289,5.6289,5.4082,5.2695,5.2695,5.1133,4.9805,4.8945,4.8066,4.7187,4.6328,4.6308,4.6308,4.6308,4.6094,4.5898,4.5664,4.5,4.4687,4.4668,4.4004,4.3594,4.3418,4.3613,4.3476,4.3125,4.332,4.2871,4.2148,4.2324,4.2539,4.2812,4.3691,4.4433,4.5,4.5,4.4277,4.3437,4.3633,4.3136,4.2716,4.404,4.4817,4.5208,4.5104,4.5221,4.5335,4.5335,4.5475,4.5556,4.5344,4.4624,4.4028,4.4028,4.3355,4.2797,4.2797,4.2624,4.2277,4.1604,4.1489,4.1181,4.0342,4.0381,4.0689,4.1143,4.1373,4.1681,4.2143,4.1777,4.1777,4.2431,4.2431,4.3162,4.4921,4.622,4.6817,4.6605,4.926,5.0991,5.1606,5.3337,5.4491,5.5107,5.5318,5.5511,5.5703,5.5703,5.5703,5.5703,5.5703,5.5769,5.5879,5.6072,5.6555,5.7271,5.8325,5.904,5.9608,6.0473,6.08,6.08,5.6625,5.7556,5.8297,5.8419,5.8474,5.8515,5.8594,5.7461,5.6738,5.7148,5.6855,5.6601,5.6601,5.6601,5.6601,5.6601,5.457,5.3281,5.3281,5.1699,5.0371,4.9531,4.8652,4.7793,4.6914,4.6504,4.6308,4.6308,4.6308,4.6308,4.6289,4.582,4.5586,4.5566,4.5098,4.4668,4.4316,4.4726,4.4433,4.373,4.4121,4.3769,4.3047,4.3437,4.3594,4.3691,4.457,4.5195,4.5586,4.5586,4.5019,4.4297,4.4297,4.3831,4.3478,4.4411,4.4896,4.5183,4.5513,4.5594,4.5594,4.5594,4.5594,4.5594,4.5594,4.5229,4.4893,4.4893,4.422,4.3643,4.3643,4.3355,4.2816,4.1942,4.1788,4.1508,4.0631,4.0496,4.0816,4.17,4.1788,4.2143,4.3028,4.3374,4.3412,4.3124,4.4451,4.5374,4.5594,4.8298,4.9471,4.8663,5.1106,5.2645,5.3087,5.4395,5.5472,5.6291,5.6291,5.6492,5.6896,5.6896,5.6665,5.6291,5.6291,5.6146,5.5896,5.5896,5.6187,5.6729,5.8007,5.8684,5.9108,6.0339,6.08,6.08,5.7512,5.8373,5.8765,5.8202,5.8711,5.8906,5.8027,5.7168,5.6875,5.7617,5.7051,5.6601,5.6601,5.6601,5.6601,5.6601,5.5137,5.4141,5.4004,5.248,5.1172,5.0234,4.9492,4.8691,4.7812,4.6933,4.6426,4.6308,4.6308,4.6308,4.6308,4.6308,4.6308,4.6308,4.6308,4.5898,4.5234,4.5996,4.5449,4.416,4.4902,4.4668,4.3984,4.4726,4.5,4.5098,4.584,4.6191,4.6308,4.6308,4.5703,4.4999,4.5116,4.4948,4.4696,4.4832,4.4699,4.4662,4.5402,4.5594,4.5594,4.5594,4.5594,4.5594,4.5594,4.5594,4.5594,4.5594,4.5017,4.4489,4.4489,4.3932,4.3181,4.2316,4.2085,4.17,4.0823,4.0708,4.1066,4.2066,4.2297,4.2758,4.3758,4.5028,4.5297,4.4143,4.724,4.8432,4.6653,5.0087,5.1837,5.1289,5.3376,5.4549,5.4684,5.5491,5.6272,5.7003,5.7137,5.7569,5.83,5.83,5.7896,5.7214,5.7214,5.684,5.6283,5.6283,5.6283,5.6458,5.8065,5.8597,5.8665,6.0223,6.08,6.08,5.752,5.8481,5.912,5.9023,5.9101,5.8906,5.8027,5.7168,5.664,5.6777,5.668,5.6601,5.6601,5.6601,5.6601,5.6601,5.5683,5.4785,5.4043,5.3066,5.1816,5.0273,5.0078,4.959,4.8711,4.7832,4.7031,4.6308,4.6308,4.6308,4.6308,4.6308,4.6308,4.6308,4.6308,4.6211,4.6113,4.623,4.6133,4.5918,4.6035,4.5586,4.4805,4.4941,4.5,4.5019,4.5156,4.5664,4.6308,4.6308,4.5658,4.4969,4.5691,4.5293,4.4679,4.5408,4.5517,4.5441,4.5556,4.5594,4.5594,4.5594,4.5594,4.5594,4.5594,4.5594,4.5594,4.5594,4.5498,4.5402,4.5402,4.5306,4.494,4.4047,4.3335,4.2585,4.172,4.1604,4.2181,4.372,4.4547,4.5624,4.7163,4.6951,4.7182,4.8336,4.8355,4.9067,5.0827,5.2241,5.328,5.3895,5.428,5.4818,5.5511,5.6368,5.6868,5.7003,5.7742,5.8165,5.83,5.83,5.8223,5.8107,5.8107,5.8113,5.8103,5.8103,5.8103,5.82,5.914,5.9418,5.9435,6.0435,6.08,6.08,5.7723,5.8787,5.9394,5.8633,5.8613,5.8535,5.7988,5.7168,5.6777,5.7246,5.6894,5.6601,5.6601,5.6601,5.6601,5.6601,5.623,5.5625,5.4765,5.3437,5.2344,5.1582,5.0683,4.9785,4.8926,4.8047,4.7402,4.6992,4.6523,4.6308,4.6308,4.6308,4.6308,4.6308,4.6308,4.6308,4.6308,4.6308,4.6308,4.6308,4.6308,4.6055,4.5703,4.5703,4.5703,4.5703,4.5703,4.5957,4.6289,4.6222,4.5874,4.5555,4.5888,4.5624,4.5286,4.568,4.5708,4.5594,4.5594,4.5594,4.5594,4.5594,4.5594,4.5594,4.5594,4.5594,4.5729,4.6201,4.5932,4.5748,4.6201,4.5913,4.5479,4.5075,4.4297,4.3605,4.3201,4.3143,4.3605,4.4855,4.5759,4.6778,4.799,4.8606,4.9067,4.9375,5.0298,5.1164,5.1865,5.3164,5.4087,5.4491,5.4914,5.5318,5.5703,5.656,5.7253,5.7703,5.855,5.9184,5.9646,5.9646,5.9396,5.8954,5.8954,5.8778,5.8501,5.8501,5.8501,5.8579,5.9392,5.9611,5.9608,6.0473,6.0856,6.0905,5.8437,5.9355,5.9687,5.8418,5.8379,5.8301,5.7695,5.7031,5.6836,5.7519,5.7012,5.6601,5.6601,5.6601,5.6601,5.6601,5.6601,5.6328,5.5644,5.416,5.3125,5.2715,5.1269,5.0078,4.9219,4.8555,4.8105,4.7891,4.7031,4.6601,4.6601,4.6387,4.6308,4.6308,4.6308,4.6308,4.6308,4.6308,4.6308,4.6308,4.6308,4.6308,4.6308,4.6308,4.6308,4.6308,4.6308,4.6308,4.6289,4.6145,4.608,4.6033,4.5914,4.5819,4.5754,4.5754,4.5688,4.5594,4.5594,4.5594,4.5594,4.5594,4.5748,4.5893,4.5893,4.6047,4.6374,4.7048,4.6644,4.6394,4.7067,4.6624,4.6133,4.5932,4.5336,4.4836,4.4624,4.4778,4.522,4.6067,4.7124,4.8105,4.8913,5.0375,5.1087,5.0625,5.2395,5.3299,5.2808,5.4049,5.4876,5.5068,5.5472,5.5799,5.5992,5.6868,5.7723,5.8588,5.9415,6.0146,6.08,6.08,6.0435,5.98,5.98,5.9517,5.9021,5.9021,5.9021,5.9098,5.9717,5.9889,5.9877,6.055,6.0873,6.1025,6.0078,6.0293,6.0098,5.9258,5.9121,5.8574,5.6953,5.664,5.6621,5.6699,5.664,5.6601,5.6601,5.6601,5.6601,5.6601,5.6601,5.6562,5.6504,5.5625,5.4394,5.2773,5.1816,5.0937,5.0117,5.0039,4.9609,4.8808,4.793,4.75,4.748,4.668,4.6308,4.6308,4.6308,4.6308,4.6308,4.6308,4.6308,4.6308,4.6308,4.6308,4.6308,4.6308,4.6308,4.6308,4.6308,4.6308,4.6289,4.6145,4.6027,4.5894,4.5832,4.5711,4.562,4.562,4.5603,4.5594,4.5594,4.5594,4.5594,4.5594,4.6201,4.6797,4.6797,4.7375,4.7932,4.8009,4.7971,4.7952,4.8009,4.7971,4.7682,4.6932,4.675,4.6432,4.5614,4.6201,4.7009,4.7817,4.9394,5.0741,5.1538,5.2472,5.3318,5.4068,5.4299,5.4703,5.5376,5.553,5.5972,5.6791,5.6088,5.6088,5.6907,5.7761,5.8607,5.9415,6.0281,6.0742,6.08,6.08,6.0762,6.0704,6.0704,6.0677,6.0623,6.0623,6.0623,6.0643,6.07,6.0708,6.0704,6.0781,6.0873,6.1122,6.0234,6.0273,6.0117,5.9961,5.9219,5.8535,5.8262,5.7754,5.7402,5.7402,5.6933,5.6601,5.6601,5.6601,5.6601,5.6601,5.6601,5.6601,5.6601,5.5781,5.4512,5.2773,5.2383,5.1816,5.0957,5.0469,5.0039,4.9707,4.8828,4.8418,4.8398,4.7519,4.7109,4.707,4.6543,4.6308,4.6308,4.6308,4.6308,4.6308,4.6308,4.6308,4.6308,4.6308,4.6308,4.6308,4.6308,4.6247,4.6168,4.603,4.5909,4.5826,4.5703,4.5643,4.5594,4.5594,4.5594,4.5729,4.6259,4.6009,4.5729,4.6278,4.6663,4.7019,4.7528,4.7875,4.8413,4.949,4.9279,4.9221,5.025,5.0048,4.9606,4.9298,4.8798,4.8336,4.799,4.8702,4.9375,4.9683,5.1202,5.2375,5.2683,5.3491,5.4145,5.4472,5.5453,5.6175,5.6503,5.6522,5.6656,5.6983,5.6676,5.6915,5.78,5.8127,5.8704,5.9511,6.0377,6.08,6.08,6.08,6.08,6.08,6.08,6.08,6.08,6.08,6.08,6.08,6.08,6.08,6.08,6.08,6.1239,6.1867,6.0293,6.0254,6.0098,6.0039,5.9433,5.9004,5.918,5.8691,5.8301,5.8301,5.7558,5.7012,5.7012,5.6758,5.6601,5.6601,5.6601,5.6601,5.6601,5.6035,5.4922,5.3183,5.2851,5.2422,5.1816,5.0996,5.0586,5.0586,4.9726,4.9316,4.9277,4.8144,4.7598,4.7558,4.6699,4.6308,4.6308,4.6308,4.6308,4.6308,4.6308,4.6308,4.6308,4.6308,4.6308,4.6289,4.6248,4.6175,4.6077,4.5918,4.5836,4.5789,4.5643,4.5594,4.5594,4.5594,4.5787,4.6144,4.674,4.6644,4.6528,4.7124,4.749,4.7894,4.8721,4.9106,4.9721,5.1183,5.101,5.0933,5.2096,5.1856,5.1395,5.1125,5.0798,5.0491,5.0221,5.0933,5.1491,5.1491,5.2741,5.3606,5.3606,5.4376,5.4991,5.5261,5.6349,5.7118,5.7376,5.7657,5.778,5.778,5.778,5.8204,5.9088,5.8819,5.9088,5.9915,6.0512,6.08,6.08,6.08,6.08,6.08,6.08,6.08,6.08,6.08,6.08,6.08,6.08,6.08,6.08,6.08,6.1452,6.2361,6.041,6.039,6.0156,5.9355,5.9863,6.0137,5.9336,5.9219,5.9219,5.9219,5.8457,5.791,5.791,5.7148,5.6621,5.6601,5.6601,5.6601,5.6601,5.6601,5.582,5.4101,5.3183,5.2715,5.2695,5.1855,5.1406,5.1406,5.0605,5.0215,5.0176,4.8437,4.7617,4.7578,4.6719,4.6328,4.6308,4.6328,4.6328,4.6308,4.6308,4.6308,4.6308,4.6308,4.6308,4.6289,4.6147,4.6108,4.6069,4.5867,4.5796,4.5789,4.5643,4.5594,4.5614,4.5614,4.622,4.6904,4.6923,4.7509,4.8125,4.8105,4.8779,4.9644,5.0519,5.1337,5.2154,5.3029,5.3222,5.3222,5.3222,5.3222,5.2933,5.2058,5.2654,5.2914,5.2019,5.2654,5.3222,5.3222,5.3972,5.4511,5.4511,5.5222,5.6049,5.6926,5.7003,5.7396,5.828,5.9069,5.9492,5.9492,5.9492,5.9915,6.0781,5.9935,5.9935,6.08,6.08,6.08,6.08,6.08,6.08,6.08,6.08,6.08,6.08,6.08,6.08,6.08,6.08,6.08,6.08,6.08,6.1452,6.244,6.1191,6.082,6.0527,6.0898,6.0644,6.0527,6.0898,6.0449,6.0039,6.0039,5.9316,5.8808,5.8808,5.8574,5.8183,5.7578,5.7519,5.7246,5.664,5.6601,5.6367,5.5859,5.498,5.3945,5.2734,5.2441,5.2012,5.1406,5.1152,5.1035,5.1016,4.9922,4.9414,4.9394,4.8516,4.7773,4.7246,4.7851,4.7773,4.7207,4.7207,4.7207,4.7148,4.6523,4.6246,4.6149,4.6115,4.6001,4.5889,4.5815,4.5733,4.564,4.5612,4.6009,4.6509,4.6509,4.7105,4.7875,4.849,4.9279,4.9779,4.9163,4.9663,5.0529,5.1356,5.2202,5.3068,5.3933,5.4107,5.428,5.4857,5.4953,5.4684,5.3857,5.3933,5.3818,5.2933,5.3568,5.4107,5.4107,5.4838,5.5338,5.5338,5.5549,5.6049,5.6926,5.8088,5.9127,6.0012,5.9704,5.9492,5.9492,5.9492,5.9627,5.9896,5.9627,5.9935,6.08,6.08,6.08,6.08,6.08,6.08,6.08,6.08,6.08,6.08,6.08,6.08,6.08,6.08,6.08,6.08,6.08,6.1724,6.3059,6.1074,6.0762,6.0566,6.1094,6.1035,6.1094,6.1621,6.125,6.0918,6.0918,6.0195,5.9668,5.9668,5.9394,5.8984,5.8457,5.8418,5.8183,5.7656,5.7305,5.7109,5.7109,5.6289,5.5156,5.3769,5.3398,5.2793,5.1914,5.1914,5.1738,5.1387,5.0586,5.0195,5.0156,4.9297,4.8613,4.8144,4.8672,4.8594,4.8105,4.8105,4.7889,4.7454,4.6947,4.6436,4.6024,4.599,4.5901,4.5848,4.6139,4.6389,4.6586,4.6586,4.6951,4.7375,4.7375,4.7971,4.874,4.926,5.026,5.1048,5.0529,5.1048,5.1914,5.2741,5.3337,5.3953,5.4799,5.4972,5.5126,5.5607,5.5972,5.5934,5.5107,5.5261,5.5184,5.4318,5.4645,5.4972,5.4972,5.5395,5.5703,5.5703,5.5703,5.6203,5.7415,5.8742,5.9877,6.0742,6.03,6.0012,6.0012,6.0012,6.0012,6.0012,6.0012,6.0281,6.08,6.08,6.08,6.08,6.08,6.08,6.08,6.08,6.08,6.08,6.08,6.08,6.08,6.08,6.08,6.08,6.08,6.1666,6.2882,6.0527,6.0527,6.0527,6.0527,6.1172,6.1699,6.1699,6.1699,6.1699,6.1699,6.1015,6.0527,6.0527,5.9863,5.9394,5.9316,5.9238,5.9199,5.9199,5.8457,5.7988,5.789,5.7148,5.6308,5.5449,5.4551,5.3652,5.2695,5.2695,5.2246,5.1387,5.0644,5.0312,5.0273,4.9473,4.9082,4.9023,4.9082,4.9082,4.9023,4.9004,4.841,4.7515,4.7413,4.6758,4.5891,4.5892,4.5906,4.602,4.6771,4.749,4.8105,4.8105,4.8144,4.824,4.8317,4.8952,4.9644,4.9721,5.0914,5.2135,5.2135,5.2769,5.3606,5.4337,5.4549,5.4818,5.5549,5.5703,5.5703,5.5703,5.6406,5.6753,5.5953,5.656,5.6849,5.603,5.5934,5.5934,5.5934,5.5934,5.5934,5.5934,5.5992,5.6703,5.83,5.9165,5.9954,6.0762,6.08,6.08,6.08,6.08,6.08,6.08,6.08,6.08,6.08,6.08,6.08,6.08,6.08,6.08,6.08,6.08,6.08,6.08,6.08,6.08,6.08,6.08,6.08,6.08,6.08,6.1351,6.2235,6.1426,6.1426,6.1426,6.1426,6.1562,6.1699,6.1699,6.1699,6.1699,6.1699,6.1543,6.1426,6.1426,6.1269,6.0879,6.0195,5.9551,5.9199,5.9199,5.9023,5.8613,5.793,5.7715,5.7207,5.6348,5.5469,5.4258,5.2695,5.2695,5.2246,5.1406,5.1211,5.1133,5.1133,5.0937,5.0508,4.9961,5.0586,5.0488,4.9902,4.9808,4.9224,4.8333,4.7544,4.6659,4.5905,4.6519,4.6715,4.6782,4.7557,4.7971,4.8105,4.8105,4.8567,4.924,4.9933,5.0721,5.15,5.2202,5.3145,5.3933,5.3933,5.4549,5.503,5.4607,5.4991,5.5491,5.5665,5.5703,5.5703,5.5703,5.6406,5.6945,5.6753,5.7453,5.7953,5.7761,5.7742,5.7742,5.7742,5.7742,5.7742,5.7742,5.8319,5.8838,5.9204,6.0031,6.0589,6.0781,6.08,6.08,6.08,6.08,6.08,6.08,6.08,6.08,6.08,6.08,6.08,6.08,6.08,6.08,6.08,6.08,6.08,6.08,6.08,6.08,6.08,6.08,6.08,6.08,6.08,6.1351,6.2312,6.1699,6.1699,6.1699,6.1699,6.1699,6.1699,6.1699,6.1699,6.1699,6.1699,6.1699,6.1699,6.1699,6.1699,6.1523,6.1055,6.0644,6.0215,5.9805,5.9765,5.9394,5.8555,5.8125,5.7695,5.7226,5.6367,5.5078,5.332,5.332,5.2656,5.1406,5.1406,5.1406,5.1406,5.1406,5.1172,5.0801,5.1211,5.1112,5.0671,5.061,4.9988,4.9075,4.8552,4.774,4.6947,4.7372,4.778,4.8221,4.9067,4.9606,4.9981,5.0394,5.0856,5.1298,5.176,5.2183,5.2615,5.3087,5.3837,5.4491,5.4491,5.5415,5.6099,5.5261,5.5395,5.5703,5.5703,5.603,5.6329,5.6329,5.7349,5.8069,5.7684,5.8319,5.8742,5.8357,5.83,5.83,5.83,5.83,5.83,5.83,5.8684,5.9088,5.9473,5.9915,6.0358,6.0781,6.08,6.08,6.08,6.08,6.08,6.08,6.08,6.08,6.08,6.08,6.08,6.08,6.08,6.08,6.08,6.08,6.08,6.08,6.08,6.08,6.08,6.08,6.08,6.08,6.08,6.1351,6.2293,6.1699,6.1699,6.1699,6.1699,6.1699,6.1699,6.1699,6.1699,6.1699,6.1699,6.1699,6.1699,6.1699,6.1699,6.1699,6.1699,6.1699,6.1387,6.0664,6.0625,6.0254,5.9433,5.8574,5.8047,5.789,5.7051,5.582,5.4219,5.4219,5.3418,5.1836,5.1836,5.1836,5.1836,5.1699,5.1621,5.1601,5.1465,5.1321,5.1201,5.1188,5.0553,4.9591,4.9574,4.8955,4.8125,4.8279,4.8971,4.9933,5.0664,5.1452,5.225,5.2972,5.3203,5.3241,5.3376,5.3414,5.3453,5.3587,5.4145,5.4741,5.4895,5.5983,5.6849,5.628,5.603,5.5953,5.6107,5.6599,5.706,5.7195,5.8473,5.9281,5.8607,5.9184,5.9492,5.8819,5.8723,5.8723,5.8723,5.8723,5.8723,5.8723,5.8723,5.8992,5.9665,5.9723,6.0031,6.0762,6.08,6.08,6.08,6.08,6.08,6.08,6.08,6.08,6.08,6.08,6.08,6.08,6.08,6.08,6.08,6.08,6.08,6.08,6.08,6.08,6.08,6.08,6.08,6.08,6.08,6.1262,6.1985,6.1699,6.1699,6.1699,6.1699,6.1699,6.1699,6.1699,6.1699,6.1699,6.1699,6.1699,6.1699,6.1699,6.1699,6.1699,6.1699,6.1699,6.164,6.1523,6.1523,6.1133,6.0273,5.9453,5.8672,5.793,5.7051,5.6113,5.5117,5.5117,5.4629,5.3652,5.3652,5.3652,5.3613,5.2851,5.2519,5.2461,5.1719,5.1321,5.1199,5.1141,5.0501,4.9596,4.9472,4.8864,4.8202,4.8952,5.024,5.1577,5.1692,5.2308,5.3049,5.3164,5.3203,5.3356,5.4107,5.4318,5.4472,5.5164,5.5453,5.5722,5.6483,5.683,5.7176,5.78,5.7376,5.7041,5.78,5.7434,5.7234,5.7992,5.8877,5.9454,5.9358,6.0069,6.0589,6.0473,6.0454,6.0454,6.0454,6.0454,6.0454,6.0454,6.0454,6.0512,6.0608,6.0608,6.0685,6.0781,6.08,6.08,6.08,6.08,6.08,6.08,6.08,6.08,6.08,6.08,6.08,6.08,6.08,6.08,6.08,6.08,6.08,6.08,6.08,6.08,6.08,6.08,6.08,6.08,6.08,6.0858,6.1089,6.1699,6.1699,6.1699,6.1699,6.1699,6.1699,6.1699,6.1699,6.1699,6.1699,6.1699,6.1699,6.1699,6.1699,6.1699,6.1699,6.1699,6.1484,6.1015,6.1426,6.1308,6.0449,6.0058,5.9473,5.8633,5.7773,5.6894,5.6035,5.5547,5.4844,5.4004,5.4004,5.4004,5.3984,5.3594,5.3437,5.3398,5.294,5.2374,5.1807,5.1692,5.107,5.0203,5.0153,4.9894,4.9663,5.051,5.1587,5.2692,5.3203,5.3606,5.4087,5.503,5.5318,5.5395,5.578,5.5906,5.5857,5.5742,5.6049,5.6522,5.6907,5.7715,5.8492,5.8877,5.8665,5.8377,5.8319,5.8357,5.8511,5.8896,5.9665,6.0223,6.0223,6.055,6.08,6.08,6.08,6.08,6.08,6.08,6.08,6.08,6.08,6.08,6.08,6.08,6.08,6.08,6.08,6.08,6.08,6.08,6.08,6.08,6.08,6.08,6.08,6.08,6.08,6.08,6.08,6.08,6.08,6.08,6.08,6.08,6.08,6.08,6.08,6.08,6.08,6.08,6.08,6.08,6.0916]}]]